Wetterdaten: Freitag, 06.05.2016
Datum Zeit Temp. A. Feuchte A. Luftdruck Regen Wind Richtung Richtung Sonnenschein ET UV Solar Taupunkt Windchill Windben Empfang
06.05.2016 00:00 8,5 C 91 % 1021,1 hPa 0,0 l/m 8,0 km/h (2 Bft) O-NO 61 0 min 0,000 mm 0,0 UV-I 0 W/m 7,1 C 7,3 C 9,7 km/h (2 Bft) 100,00 %
06.05.2016 00:02 8,5 C 91 % 1021,1 hPa 0,0 l/m 8,5 km/h (2 Bft) NO 42 0 min 0,000 mm 0,0 UV-I 0 W/m 7,1 C 6,9 C 12,9 km/h (3 Bft) 16,67 %
06.05.2016 00:03 8,4 C 92 % 1021,1 hPa 0,0 l/m 7,6 km/h (2 Bft) O-NO 57 0 min 0,000 mm 0,0 UV-I 0 W/m 7,2 C 7,5 C 11,3 km/h (2 Bft) 28,57 %
06.05.2016 00:04 8,4 C 92 % 1021,1 hPa 0,0 l/m 7,9 km/h (2 Bft) O-NO 59 0 min 0,000 mm 0,0 UV-I 0 W/m 7,2 C 7,2 C 14,5 km/h (3 Bft) 100,00 %
06.05.2016 00:05 8,4 C 92 % 1021,1 hPa 0,0 l/m 10,1 km/h (2 Bft) O-NO 71 0 min 0,000 mm 0,0 UV-I 0 W/m 7,2 C 5,8 C 16,1 km/h (3 Bft) 100,00 %
06.05.2016 00:06 8,4 C 92 % 1021,1 hPa 0,0 l/m 10,4 km/h (2 Bft) O-NO 57 0 min 0,000 mm 0,0 UV-I 0 W/m 7,2 C 5,6 C 14,5 km/h (3 Bft) 100,00 %
06.05.2016 00:07 8,4 C 92 % 1021,1 hPa 0,0 l/m 8,5 km/h (2 Bft) O 79 0 min 0,000 mm 0,0 UV-I 0 W/m 7,2 C 6,8 C 12,9 km/h (3 Bft) 100,00 %
06.05.2016 00:08 8,4 C 92 % 1021,1 hPa 0,0 l/m 10,0 km/h (2 Bft) O-NO 65 0 min 0,000 mm 0,0 UV-I 0 W/m 7,2 C 5,8 C 14,5 km/h (3 Bft) 100,00 %
06.05.2016 00:09 8,4 C 92 % 1021,1 hPa 0,0 l/m 9,6 km/h (2 Bft) O-NO 61 0 min 0,000 mm 0,0 UV-I 0 W/m 7,2 C 6,1 C 14,5 km/h (3 Bft) 100,00 %
06.05.2016 00:10 8,4 C 92 % 1021,2 hPa 0,0 l/m 9,1 km/h (2 Bft) NO 46 0 min 0,000 mm 0,0 UV-I 0 W/m 7,2 C 6,4 C 14,5 km/h (3 Bft) 100,00 %
06.05.2016 00:11 8,4 C 92 % 1021,2 hPa 0,0 l/m 9,5 km/h (2 Bft) O-NO 66 0 min 0,000 mm 0,0 UV-I 0 W/m 7,2 C 6,1 C 12,9 km/h (3 Bft) 100,00 %
06.05.2016 00:12 8,4 C 92 % 1021,1 hPa 0,0 l/m 9,7 km/h (2 Bft) O-NO 61 0 min 0,000 mm 0,0 UV-I 0 W/m 7,2 C 6,0 C 12,9 km/h (3 Bft) 100,00 %
06.05.2016 00:13 8,4 C 92 % 1021,1 hPa 0,0 l/m 8,8 km/h (2 Bft) NO 51 0 min 0,000 mm 0,0 UV-I 0 W/m 7,2 C 6,6 C 14,5 km/h (3 Bft) 100,00 %
06.05.2016 00:14 8,4 C 92 % 1021,1 hPa 0,0 l/m 8,4 km/h (2 Bft) O-NO 71 0 min 0,000 mm 0,0 UV-I 0 W/m 7,2 C 6,9 C 12,9 km/h (3 Bft) 100,00 %
06.05.2016 00:15 8,4 C 92 % 1021,1 hPa 0,0 l/m 8,8 km/h (2 Bft) O-NO 69 0 min 0,000 mm 0,0 UV-I 0 W/m 7,2 C 6,6 C 11,3 km/h (2 Bft) 100,00 %
06.05.2016 00:16 8,4 C 92 % 1021,1 hPa 0,0 l/m 8,1 km/h (2 Bft) O-NO 63 0 min 0,000 mm 0,0 UV-I 0 W/m 7,2 C 7,1 C 12,9 km/h (3 Bft) 100,00 %
06.05.2016 00:17 8,4 C 92 % 1021,1 hPa 0,0 l/m 8,1 km/h (2 Bft) O-NO 76 0 min 0,000 mm 0,0 UV-I 0 W/m 7,2 C 7,1 C 12,9 km/h (3 Bft) 100,00 %
06.05.2016 00:18 8,4 C 92 % 1021,1 hPa 0,0 l/m 8,8 km/h (2 Bft) NO 45 0 min 0,000 mm 0,0 UV-I 0 W/m 7,2 C 6,6 C 12,9 km/h (3 Bft) 100,00 %
06.05.2016 00:19 8,4 C 92 % 1021,1 hPa 0,0 l/m 12,4 km/h (3 Bft) NO 56 0 min 0,000 mm 0,0 UV-I 0 W/m 7,2 C 4,5 C 16,1 km/h (3 Bft) 100,00 %
06.05.2016 00:20 8,4 C 92 % 1021,1 hPa 0,0 l/m 11,9 km/h (2 Bft) O-NO 62 0 min 0,000 mm 0,0 UV-I 0 W/m 7,2 C 4,7 C 16,1 km/h (3 Bft) 100,00 %
06.05.2016 00:21 8,4 C 92 % 1021,1 hPa 0,0 l/m 11,3 km/h (2 Bft) O-NO 78 0 min 0,000 mm 0,0 UV-I 0 W/m 7,2 C 5,1 C 14,5 km/h (3 Bft) 100,00 %
06.05.2016 00:22 8,4 C 92 % 1021,1 hPa 0,0 l/m 10,5 km/h (2 Bft) O-NO 57 0 min 0,000 mm 0,0 UV-I 0 W/m 7,2 C 5,5 C 16,1 km/h (3 Bft) 100,00 %
06.05.2016 00:23 8,4 C 92 % 1021,1 hPa 0,0 l/m 11,1 km/h (2 Bft) NO 42 0 min 0,000 mm 0,0 UV-I 0 W/m 7,2 C 5,2 C 16,1 km/h (3 Bft) 100,00 %
06.05.2016 00:24 8,4 C 92 % 1021,1 hPa 0,0 l/m 9,2 km/h (2 Bft) O-NO 76 0 min 0,000 mm 0,0 UV-I 0 W/m 7,2 C 6,3 C 12,9 km/h (3 Bft) 100,00 %
06.05.2016 00:25 8,4 C 92 % 1021,1 hPa 0,0 l/m 10,3 km/h (2 Bft) NO 55 0 min 0,000 mm 0,0 UV-I 0 W/m 7,2 C 5,6 C 12,9 km/h (3 Bft) 100,00 %
06.05.2016 00:26 8,4 C 92 % 1021,1 hPa 0,0 l/m 8,9 km/h (2 Bft) O-NO 73 0 min 0,000 mm 0,0 UV-I 0 W/m 7,2 C 6,5 C 12,9 km/h (3 Bft) 95,83 %
06.05.2016 00:27 8,3 C 92 % 1021,1 hPa 0,0 l/m 9,5 km/h (2 Bft) O-NO 58 0 min 0,000 mm 0,0 UV-I 0 W/m 7,1 C 6,0 C 12,9 km/h (3 Bft) 100,00 %
06.05.2016 00:28 8,3 C 92 % 1021,1 hPa 0,0 l/m 11,6 km/h (2 Bft) O-NO 71 0 min 0,000 mm 0,0 UV-I 0 W/m 7,1 C 4,8 C 16,1 km/h (3 Bft) 100,00 %
06.05.2016 00:29 8,3 C 92 % 1021,1 hPa 0,0 l/m 11,1 km/h (2 Bft) O-NO 57 0 min 0,000 mm 0,0 UV-I 0 W/m 7,1 C 5,1 C 14,5 km/h (3 Bft) 100,00 %
06.05.2016 00:30 8,3 C 92 % 1021,0 hPa 0,0 l/m 10,9 km/h (2 Bft) O-NO 71 0 min 0,000 mm 0,0 UV-I 0 W/m 7,1 C 5,2 C 16,1 km/h (3 Bft) 100,00 %
06.05.2016 00:31 8,3 C 92 % 1021,0 hPa 0,0 l/m 11,3 km/h (2 Bft) O-NO 71 0 min 0,000 mm 0,0 UV-I 0 W/m 7,1 C 4,9 C 14,5 km/h (3 Bft) 100,00 %
06.05.2016 00:32 8,3 C 92 % 1021,0 hPa 0,0 l/m 9,9 km/h (2 Bft) O 96 0 min 0,000 mm 0,0 UV-I 0 W/m 7,1 C 5,8 C 14,5 km/h (3 Bft) 95,83 %
06.05.2016 00:33 8,2 C 92 % 1021,0 hPa 0,0 l/m 9,8 km/h (2 Bft) NO 55 0 min 0,000 mm 0,0 UV-I 0 W/m 7,0 C 5,7 C 12,9 km/h (3 Bft) 100,00 %
06.05.2016 00:34 8,2 C 92 % 1021,0 hPa 0,0 l/m 8,6 km/h (2 Bft) O-NO 62 0 min 0,000 mm 0,0 UV-I 0 W/m 7,0 C 6,5 C 11,3 km/h (2 Bft) 95,83 %
06.05.2016 00:35 8,2 C 93 % 1021,0 hPa 0,0 l/m 9,8 km/h (2 Bft) NO 52 0 min 0,000 mm 0,0 UV-I 0 W/m 7,1 C 5,7 C 14,5 km/h (3 Bft) 95,65 %
06.05.2016 00:36 8,2 C 93 % 1021,0 hPa 0,0 l/m 10,1 km/h (2 Bft) O-NO 69 0 min 0,000 mm 0,0 UV-I 0 W/m 7,1 C 5,5 C 14,5 km/h (3 Bft) 95,83 %
06.05.2016 00:37 8,2 C 93 % 1021,0 hPa 0,0 l/m 10,3 km/h (2 Bft) NO 47 0 min 0,000 mm 0,0 UV-I 0 W/m 7,1 C 5,4 C 14,5 km/h (3 Bft) 100,00 %
06.05.2016 00:38 8,2 C 93 % 1020,9 hPa 0,0 l/m 9,0 km/h (2 Bft) O-NO 78 0 min 0,000 mm 0,0 UV-I 0 W/m 7,1 C 6,3 C 12,9 km/h (3 Bft) 100,00 %
06.05.2016 00:39 8,2 C 93 % 1020,9 hPa 0,0 l/m 7,8 km/h (2 Bft) NO 55 0 min 0,000 mm 0,0 UV-I 0 W/m 7,1 C 7,1 C 9,7 km/h (2 Bft) 95,83 %
06.05.2016 00:40 8,2 C 93 % 1020,9 hPa 0,0 l/m 7,1 km/h (2 Bft) NO 51 0 min 0,000 mm 0,0 UV-I 0 W/m 7,1 C 7,7 C 9,7 km/h (2 Bft) 100,00 %
06.05.2016 00:41 8,2 C 93 % 1020,9 hPa 0,0 l/m 5,7 km/h (1 Bft) O-NO 69 0 min 0,000 mm 0,0 UV-I 0 W/m 7,1 C 8,2 C 11,3 km/h (2 Bft) 100,00 %
06.05.2016 00:42 8,2 C 93 % 1021,0 hPa 0,0 l/m 6,2 km/h (2 Bft) NO 38 0 min 0,000 mm 0,0 UV-I 0 W/m 7,1 C 8,2 C 9,7 km/h (2 Bft) 100,00 %
06.05.2016 00:43 8,2 C 93 % 1021,0 hPa 0,0 l/m 6,5 km/h (2 Bft) O-NO 59 0 min 0,000 mm 0,0 UV-I 0 W/m 7,1 C 8,1 C 9,7 km/h (2 Bft) 100,00 %
06.05.2016 00:44 8,2 C 93 % 1020,9 hPa 0,0 l/m 5,9 km/h (2 Bft) O-NO 59 0 min 0,000 mm 0,0 UV-I 0 W/m 7,1 C 8,2 C 8,0 km/h (2 Bft) 95,65 %
06.05.2016 00:45 8,2 C 93 % 1020,9 hPa 0,0 l/m 7,1 km/h (2 Bft) O-NO 58 0 min 0,000 mm 0,0 UV-I 0 W/m 7,1 C 7,7 C 9,7 km/h (2 Bft) 100,00 %
06.05.2016 00:46 8,2 C 93 % 1020,9 hPa 0,0 l/m 6,7 km/h (2 Bft) O-NO 73 0 min 0,000 mm 0,0 UV-I 0 W/m 7,1 C 8,0 C 8,0 km/h (2 Bft) 100,00 %
06.05.2016 00:47 8,2 C 93 % 1020,9 hPa 0,0 l/m 7,6 km/h (2 Bft) O-NO 60 0 min 0,000 mm 0,0 UV-I 0 W/m 7,1 C 7,3 C 11,3 km/h (2 Bft) 100,00 %
06.05.2016 00:48 8,2 C 93 % 1020,9 hPa 0,0 l/m 9,5 km/h (2 Bft) O-NO 74 0 min 0,000 mm 0,0 UV-I 0 W/m 7,1 C 5,9 C 14,5 km/h (3 Bft) 95,65 %
06.05.2016 00:49 8,2 C 93 % 1020,9 hPa 0,0 l/m 9,3 km/h (2 Bft) O 80 0 min 0,000 mm 0,0 UV-I 0 W/m 7,1 C 6,1 C 12,9 km/h (3 Bft) 100,00 %
06.05.2016 00:50 8,2 C 93 % 1020,9 hPa 0,0 l/m 8,0 km/h (2 Bft) NO 49 0 min 0,000 mm 0,0 UV-I 0 W/m 7,1 C 7,0 C 11,3 km/h (2 Bft) 100,00 %
06.05.2016 00:51 8,1 C 93 % 1020,9 hPa 0,0 l/m 8,7 km/h (2 Bft) O-NO 62 0 min 0,000 mm 0,0 UV-I 0 W/m 7,0 C 6,4 C 11,3 km/h (2 Bft) 100,00 %
06.05.2016 00:52 8,1 C 93 % 1020,9 hPa 0,0 l/m 10,3 km/h (2 Bft) NO 49 0 min 0,000 mm 0,0 UV-I 0 W/m 7,0 C 5,3 C 16,1 km/h (3 Bft) 100,00 %
06.05.2016 00:53 8,1 C 93 % 1020,9 hPa 0,0 l/m 13,1 km/h (3 Bft) O-NO 58 0 min 0,000 mm 0,0 UV-I 0 W/m 7,0 C 3,7 C 17,7 km/h (3 Bft) 100,00 %
06.05.2016 00:54 8,1 C 93 % 1020,9 hPa 0,0 l/m 10,4 km/h (2 Bft) O-NO 67 0 min 0,000 mm 0,0 UV-I 0 W/m 7,0 C 5,2 C 14,5 km/h (3 Bft) 95,83 %
06.05.2016 00:55 8,1 C 93 % 1020,9 hPa 0,0 l/m 8,9 km/h (2 Bft) NO 56 0 min 0,000 mm 0,0 UV-I 0 W/m 7,0 C 6,2 C 11,3 km/h (2 Bft) 100,00 %
06.05.2016 00:56 8,1 C 93 % 1020,9 hPa 0,0 l/m 9,3 km/h (2 Bft) O-NO 61 0 min 0,000 mm 0,0 UV-I 0 W/m 7,0 C 5,9 C 14,5 km/h (3 Bft) 95,83 %
06.05.2016 00:57 8,1 C 93 % 1020,9 hPa 0,0 l/m 9,0 km/h (2 Bft) NO 51 0 min 0,000 mm 0,0 UV-I 0 W/m 7,0 C 6,1 C 12,9 km/h (3 Bft) 100,00 %
06.05.2016 00:58 8,1 C 93 % 1020,9 hPa 0,0 l/m 9,4 km/h (2 Bft) NO 46 0 min 0,000 mm 0,0 UV-I 0 W/m 7,0 C 5,9 C 12,9 km/h (3 Bft) 95,83 %
06.05.2016 00:59 8,1 C 93 % 1020,9 hPa 0,0 l/m 10,8 km/h (2 Bft) O-NO 69 0 min 0,000 mm 0,0 UV-I 0 W/m 7,0 C 5,0 C 14,5 km/h (3 Bft) 91,30 %
06.05.2016 01:00 8,1 C 93 % 1020,9 hPa 0,0 l/m 7,4 km/h (2 Bft) O-NO 62 0 min 0,000 mm 0,0 UV-I 0 W/m 7,0 C 7,3 C 9,7 km/h (2 Bft) 95,83 %
06.05.2016 01:01 8,1 C 94 % 1020,9 hPa 0,0 l/m 8,7 km/h (2 Bft) O-NO 61 0 min 0,000 mm 0,0 UV-I 0 W/m 7,2 C 6,4 C 12,9 km/h (3 Bft) 91,30 %
06.05.2016 01:02 8,1 C 94 % 1020,9 hPa 0,0 l/m 10,0 km/h (2 Bft) O-NO 61 0 min 0,000 mm 0,0 UV-I 0 W/m 7,2 C 5,5 C 14,5 km/h (3 Bft) 95,83 %
06.05.2016 01:03 8,2 C 94 % 1020,9 hPa 0,0 l/m 11,1 km/h (2 Bft) O-NO 59 0 min 0,000 mm 0,0 UV-I 0 W/m 7,3 C 4,9 C 16,1 km/h (3 Bft) 91,30 %
06.05.2016 01:04 8,1 C 93 % 1020,9 hPa 0,0 l/m 10,3 km/h (2 Bft) O-NO 63 0 min 0,000 mm 0,0 UV-I 0 W/m 7,0 C 5,3 C 12,9 km/h (3 Bft) 100,00 %
06.05.2016 01:05 8,2 C 93 % 1020,8 hPa 0,0 l/m 10,8 km/h (2 Bft) O-NO 63 0 min 0,000 mm 0,0 UV-I 0 W/m 7,1 C 5,1 C 16,1 km/h (3 Bft) 91,30 %
06.05.2016 01:06 8,2 C 93 % 1020,8 hPa 0,0 l/m 11,5 km/h (2 Bft) NO 39 0 min 0,000 mm 0,0 UV-I 0 W/m 7,1 C 4,7 C 14,5 km/h (3 Bft) 100,00 %
06.05.2016 01:07 8,2 C 93 % 1020,8 hPa 0,0 l/m 9,2 km/h (2 Bft) O-NO 67 0 min 0,000 mm 0,0 UV-I 0 W/m 7,1 C 6,1 C 14,5 km/h (3 Bft) 95,65 %
06.05.2016 01:08 8,2 C 93 % 1020,8 hPa 0,0 l/m 7,8 km/h (2 Bft) NO 49 0 min 0,000 mm 0,0 UV-I 0 W/m 7,1 C 7,1 C 12,9 km/h (3 Bft) 100,00 %
06.05.2016 01:09 8,2 C 93 % 1020,8 hPa 0,0 l/m 9,6 km/h (2 Bft) NO 46 0 min 0,000 mm 0,0 UV-I 0 W/m 7,1 C 5,9 C 14,5 km/h (3 Bft) 95,65 %
06.05.2016 01:10 8,2 C 93 % 1020,7 hPa 0,0 l/m 11,1 km/h (2 Bft) NO 45 0 min 0,000 mm 0,0 UV-I 0 W/m 7,1 C 4,9 C 14,5 km/h (3 Bft) 95,83 %
06.05.2016 01:11 8,2 C 93 % 1020,8 hPa 0,0 l/m 10,3 km/h (2 Bft) O-NO 57 0 min 0,000 mm 0,0 UV-I 0 W/m 7,1 C 5,4 C 16,1 km/h (3 Bft) 100,00 %
06.05.2016 01:12 8,2 C 93 % 1020,7 hPa 0,0 l/m 9,3 km/h (2 Bft) O-NO 61 0 min 0,000 mm 0,0 UV-I 0 W/m 7,1 C 6,1 C 12,9 km/h (3 Bft) 96,30 %
06.05.2016 01:13 8,2 C 93 % 1020,8 hPa 0,0 l/m 9,6 km/h (2 Bft) O-NO 60 0 min 0,000 mm 0,0 UV-I 0 W/m 7,1 C 5,9 C 12,9 km/h (3 Bft) 100,00 %
06.05.2016 01:14 8,2 C 93 % 1020,8 hPa 0,0 l/m 9,2 km/h (2 Bft) O 84 0 min 0,000 mm 0,0 UV-I 0 W/m 7,1 C 6,1 C 12,9 km/h (3 Bft) 95,83 %
06.05.2016 01:15 8,2 C 93 % 1020,8 hPa 0,0 l/m 8,0 km/h (2 Bft) O-NO 62 0 min 0,000 mm 0,0 UV-I 0 W/m 7,1 C 7,0 C 14,5 km/h (3 Bft) 96,15 %
06.05.2016 01:16 8,2 C 93 % 1020,8 hPa 0,0 l/m 9,9 km/h (2 Bft) NO 55 0 min 0,000 mm 0,0 UV-I 0 W/m 7,1 C 5,7 C 14,5 km/h (3 Bft) 91,67 %
06.05.2016 01:17 8,2 C 93 % 1020,8 hPa 0,0 l/m 11,8 km/h (2 Bft) O-NO 62 0 min 0,000 mm 0,0 UV-I 0 W/m 7,1 C 4,6 C 16,1 km/h (3 Bft) 100,00 %
06.05.2016 01:18 8,2 C 93 % 1020,8 hPa 0,0 l/m 11,7 km/h (2 Bft) NO 48 0 min 0,000 mm 0,0 UV-I 0 W/m 7,1 C 4,6 C 14,5 km/h (3 Bft) 91,30 %
06.05.2016 01:19 8,2 C 93 % 1020,8 hPa 0,0 l/m 11,6 km/h (2 Bft) O-NO 63 0 min 0,000 mm 0,0 UV-I 0 W/m 7,1 C 4,7 C 16,1 km/h (3 Bft) 100,00 %
06.05.2016 01:20 8,2 C 93 % 1020,8 hPa 0,0 l/m 12,0 km/h (2 Bft) NO 56 0 min 0,000 mm 0,0 UV-I 0 W/m 7,1 C 4,4 C 16,1 km/h (3 Bft) 91,30 %
06.05.2016 01:21 8,2 C 93 % 1020,8 hPa 0,0 l/m 12,5 km/h (3 Bft) O-NO 57 0 min 0,000 mm 0,0 UV-I 0 W/m 7,1 C 4,2 C 16,1 km/h (3 Bft) 95,83 %
06.05.2016 01:22 8,2 C 93 % 1020,8 hPa 0,0 l/m 10,6 km/h (2 Bft) O-NO 74 0 min 0,000 mm 0,0 UV-I 0 W/m 7,1 C 5,2 C 14,5 km/h (3 Bft) 100,00 %
06.05.2016 01:23 8,2 C 93 % 1020,8 hPa 0,0 l/m 11,2 km/h (2 Bft) NO 48 0 min 0,000 mm 0,0 UV-I 0 W/m 7,1 C 4,9 C 14,5 km/h (3 Bft) 95,83 %
06.05.2016 01:24 8,2 C 93 % 1020,8 hPa 0,0 l/m 13,3 km/h (3 Bft) NO 54 0 min 0,000 mm 0,0 UV-I 0 W/m 7,1 C 3,8 C 17,7 km/h (3 Bft) 100,00 %
06.05.2016 01:25 8,2 C 93 % 1020,7 hPa 0,0 l/m 9,0 km/h (2 Bft) O-NO 61 0 min 0,000 mm 0,0 UV-I 0 W/m 7,1 C 6,3 C 14,5 km/h (3 Bft) 96,30 %
06.05.2016 01:26 8,3 C 93 % 1020,7 hPa 0,0 l/m 11,9 km/h (2 Bft) O-NO 58 0 min 0,000 mm 0,0 UV-I 0 W/m 7,2 C 4,6 C 16,1 km/h (3 Bft) 91,30 %
06.05.2016 01:27 8,3 C 93 % 1020,8 hPa 0,0 l/m 13,1 km/h (3 Bft) O-NO 63 0 min 0,000 mm 0,0 UV-I 0 W/m 7,2 C 4,0 C 16,1 km/h (3 Bft) 100,00 %
06.05.2016 01:28 8,3 C 93 % 1020,7 hPa 0,0 l/m 12,4 km/h (3 Bft) NO 56 0 min 0,000 mm 0,0 UV-I 0 W/m 7,2 C 4,3 C 16,1 km/h (3 Bft) 95,65 %
06.05.2016 01:29 8,3 C 93 % 1020,7 hPa 0,0 l/m 13,1 km/h (3 Bft) O-NO 64 0 min 0,000 mm 0,0 UV-I 0 W/m 7,2 C 4,0 C 16,1 km/h (3 Bft) 100,00 %
06.05.2016 01:30 8,3 C 93 % 1020,6 hPa 0,0 l/m 10,9 km/h (2 Bft) O-NO 64 0 min 0,000 mm 0,0 UV-I 0 W/m 7,2 C 5,2 C 16,1 km/h (3 Bft) 100,00 %
06.05.2016 01:31 8,3 C 93 % 1020,6 hPa 0,0 l/m 9,8 km/h (2 Bft) NO 34 0 min 0,000 mm 0,0 UV-I 0 W/m 7,2 C 5,8 C 16,1 km/h (3 Bft) 100,00 %
06.05.2016 01:32 8,3 C 93 % 1020,6 hPa 0,0 l/m 9,9 km/h (2 Bft) NO 49 0 min 0,000 mm 0,0 UV-I 0 W/m 7,2 C 5,8 C 14,5 km/h (3 Bft) 91,30 %
06.05.2016 01:33 8,3 C 93 % 1020,6 hPa 0,0 l/m 7,0 km/h (2 Bft) NO 37 0 min 0,000 mm 0,0 UV-I 0 W/m 7,2 C 7,8 C 11,3 km/h (2 Bft) 100,00 %
06.05.2016 01:34 8,3 C 93 % 1020,7 hPa 0,0 l/m 8,4 km/h (2 Bft) NO 44 0 min 0,000 mm 0,0 UV-I 0 W/m 7,2 C 6,8 C 12,9 km/h (3 Bft) 100,00 %
06.05.2016 01:35 8,3 C 93 % 1020,6 hPa 0,0 l/m 7,4 km/h (2 Bft) NO 42 0 min 0,000 mm 0,0 UV-I 0 W/m 7,2 C 7,5 C 9,7 km/h (2 Bft) 100,00 %
06.05.2016 01:36 8,2 C 93 % 1020,6 hPa 0,0 l/m 9,0 km/h (2 Bft) O-NO 58 0 min 0,000 mm 0,0 UV-I 0 W/m 7,1 C 6,3 C 16,1 km/h (3 Bft) 100,00 %
06.05.2016 01:37 8,2 C 93 % 1020,6 hPa 0,0 l/m 6,5 km/h (2 Bft) O-NO 59 0 min 0,000 mm 0,0 UV-I 0 W/m 7,1 C 8,1 C 8,0 km/h (2 Bft) 96,15 %
06.05.2016 01:38 8,2 C 93 % 1020,6 hPa 0,0 l/m 8,6 km/h (2 Bft) O-NO 61 0 min 0,000 mm 0,0 UV-I 0 W/m 7,1 C 6,5 C 16,1 km/h (3 Bft) 100,00 %
06.05.2016 01:39 8,2 C 93 % 1020,6 hPa 0,0 l/m 9,6 km/h (2 Bft) O-NO 71 0 min 0,000 mm 0,0 UV-I 0 W/m 7,1 C 5,9 C 12,9 km/h (3 Bft) 95,65 %
06.05.2016 01:40 8,2 C 93 % 1020,6 hPa 0,0 l/m 8,2 km/h (2 Bft) O 83 0 min 0,000 mm 0,0 UV-I 0 W/m 7,1 C 6,8 C 9,7 km/h (2 Bft) 100,00 %
06.05.2016 01:41 8,2 C 93 % 1020,6 hPa 0,0 l/m 10,1 km/h (2 Bft) O-NO 66 0 min 0,000 mm 0,0 UV-I 0 W/m 7,1 C 5,5 C 14,5 km/h (3 Bft) 100,00 %
06.05.2016 01:42 8,2 C 93 % 1020,5 hPa 0,0 l/m 10,5 km/h (2 Bft) O-NO 57 0 min 0,000 mm 0,0 UV-I 0 W/m 7,1 C 5,3 C 14,5 km/h (3 Bft) 100,00 %
06.05.2016 01:43 8,2 C 93 % 1020,6 hPa 0,0 l/m 8,4 km/h (2 Bft) NO 42 0 min 0,000 mm 0,0 UV-I 0 W/m 7,1 C 6,7 C 12,9 km/h (3 Bft) 100,00 %
06.05.2016 01:44 8,2 C 93 % 1020,6 hPa 0,0 l/m 11,3 km/h (2 Bft) NO 55 0 min 0,000 mm 0,0 UV-I 0 W/m 7,1 C 4,8 C 14,5 km/h (3 Bft) 100,00 %
06.05.2016 01:45 8,2 C 93 % 1020,6 hPa 0,0 l/m 11,0 km/h (2 Bft) NO 41 0 min 0,000 mm 0,0 UV-I 0 W/m 7,1 C 5,0 C 12,9 km/h (3 Bft) 100,00 %
06.05.2016 01:46 8,2 C 93 % 1020,5 hPa 0,0 l/m 9,0 km/h (2 Bft) NO 46 0 min 0,000 mm 0,0 UV-I 0 W/m 7,1 C 6,3 C 14,5 km/h (3 Bft) 100,00 %
06.05.2016 01:47 8,2 C 93 % 1020,5 hPa 0,0 l/m 9,5 km/h (2 Bft) O-NO 58 0 min 0,000 mm 0,0 UV-I 0 W/m 7,1 C 5,9 C 12,9 km/h (3 Bft) 100,00 %
06.05.2016 01:48 8,2 C 93 % 1020,5 hPa 0,0 l/m 12,3 km/h (3 Bft) O-NO 57 0 min 0,000 mm 0,0 UV-I 0 W/m 7,1 C 4,3 C 16,1 km/h (3 Bft) 100,00 %
06.05.2016 01:49 8,2 C 93 % 1020,5 hPa 0,0 l/m 9,8 km/h (2 Bft) O-NO 65 0 min 0,000 mm 0,0 UV-I 0 W/m 7,1 C 5,7 C 14,5 km/h (3 Bft) 100,00 %
06.05.2016 01:50 8,2 C 93 % 1020,5 hPa 0,0 l/m 11,1 km/h (2 Bft) O-NO 59 0 min 0,000 mm 0,0 UV-I 0 W/m 7,1 C 4,9 C 14,5 km/h (3 Bft) 100,00 %
06.05.2016 01:51 8,2 C 93 % 1020,5 hPa 0,0 l/m 11,2 km/h (2 Bft) O-NO 62 0 min 0,000 mm 0,0 UV-I 0 W/m 7,1 C 4,9 C 16,1 km/h (3 Bft) 100,00 %
06.05.2016 01:52 8,2 C 93 % 1020,5 hPa 0,0 l/m 11,1 km/h (2 Bft) O-NO 63 0 min 0,000 mm 0,0 UV-I 0 W/m 7,1 C 4,9 C 14,5 km/h (3 Bft) 100,00 %
06.05.2016 01:53 8,2 C 93 % 1020,5 hPa 0,0 l/m 9,8 km/h (2 Bft) O-NO 57 0 min 0,000 mm 0,0 UV-I 0 W/m 7,1 C 5,7 C 12,9 km/h (3 Bft) 100,00 %
06.05.2016 01:54 8,2 C 93 % 1020,5 hPa 0,0 l/m 11,3 km/h (2 Bft) O-NO 63 0 min 0,000 mm 0,0 UV-I 0 W/m 7,1 C 4,8 C 16,1 km/h (3 Bft) 100,00 %
06.05.2016 01:55 8,2 C 93 % 1020,5 hPa 0,0 l/m 11,4 km/h (2 Bft) NO 39 0 min 0,000 mm 0,0 UV-I 0 W/m 7,1 C 4,8 C 14,5 km/h (3 Bft) 100,00 %
06.05.2016 01:56 8,2 C 93 % 1020,4 hPa 0,0 l/m 9,4 km/h (2 Bft) O-NO 59 0 min 0,000 mm 0,0 UV-I 0 W/m 7,1 C 6,0 C 14,5 km/h (3 Bft) 96,15 %
06.05.2016 01:57 8,2 C 93 % 1020,5 hPa 0,0 l/m 11,4 km/h (2 Bft) O-NO 60 0 min 0,000 mm 0,0 UV-I 0 W/m 7,1 C 4,8 C 16,1 km/h (3 Bft) 100,00 %
06.05.2016 01:58 8,2 C 93 % 1020,5 hPa 0,0 l/m 11,0 km/h (2 Bft) O-NO 59 0 min 0,000 mm 0,0 UV-I 0 W/m 7,1 C 5,0 C 16,1 km/h (3 Bft) 100,00 %
06.05.2016 01:59 8,2 C 93 % 1020,4 hPa 0,0 l/m 10,7 km/h (2 Bft) NO 50 0 min 0,000 mm 0,0 UV-I 0 W/m 7,1 C 5,2 C 16,1 km/h (3 Bft) 100,00 %
06.05.2016 02:00 8,2 C 93 % 1020,5 hPa 0,0 l/m 10,6 km/h (2 Bft) O-NO 58 0 min 0,000 mm 0,0 UV-I 0 W/m 7,1 C 5,2 C 14,5 km/h (3 Bft) 100,00 %
06.05.2016 02:01 8,2 C 93 % 1020,4 hPa 0,0 l/m 10,6 km/h (2 Bft) NO 49 0 min 0,000 mm 0,0 UV-I 0 W/m 7,1 C 5,2 C 14,5 km/h (3 Bft) 100,00 %
06.05.2016 02:02 8,2 C 93 % 1020,4 hPa 0,0 l/m 11,1 km/h (2 Bft) O-NO 57 0 min 0,000 mm 0,0 UV-I 0 W/m 7,1 C 4,9 C 14,5 km/h (3 Bft) 95,65 %
06.05.2016 02:03 8,2 C 93 % 1020,4 hPa 0,0 l/m 9,5 km/h (2 Bft) NO 46 0 min 0,000 mm 0,0 UV-I 0 W/m 7,1 C 5,9 C 14,5 km/h (3 Bft) 100,00 %
06.05.2016 02:04 8,2 C 93 % 1020,4 hPa 0,0 l/m 10,1 km/h (2 Bft) O-NO 57 0 min 0,000 mm 0,0 UV-I 0 W/m 7,1 C 5,5 C 14,5 km/h (3 Bft) 100,00 %
06.05.2016 02:05 8,2 C 93 % 1020,4 hPa 0,0 l/m 9,4 km/h (2 Bft) O-NO 76 0 min 0,000 mm 0,0 UV-I 0 W/m 7,1 C 6,0 C 14,5 km/h (3 Bft) 100,00 %
06.05.2016 02:06 8,2 C 93 % 1020,4 hPa 0,0 l/m 8,2 km/h (2 Bft) NO 45 0 min 0,000 mm 0,0 UV-I 0 W/m 7,1 C 6,8 C 12,9 km/h (3 Bft) 100,00 %
06.05.2016 02:07 8,2 C 93 % 1020,4 hPa 0,0 l/m 9,3 km/h (2 Bft) O 82 0 min 0,000 mm 0,0 UV-I 0 W/m 7,1 C 6,1 C 11,3 km/h (2 Bft) 100,00 %
06.05.2016 02:08 8,2 C 93 % 1020,4 hPa 0,0 l/m 8,7 km/h (2 Bft) NO 47 0 min 0,000 mm 0,0 UV-I 0 W/m 7,1 C 6,5 C 12,9 km/h (3 Bft) 100,00 %
06.05.2016 02:09 8,1 C 93 % 1020,4 hPa 0,0 l/m 8,9 km/h (2 Bft) O-NO 61 0 min 0,000 mm 0,0 UV-I 0 W/m 7,0 C 6,2 C 16,1 km/h (3 Bft) 91,67 %
06.05.2016 02:10 8,1 C 93 % 1020,4 hPa 0,0 l/m 8,6 km/h (2 Bft) NO 40 0 min 0,000 mm 0,0 UV-I 0 W/m 7,0 C 6,4 C 12,9 km/h (3 Bft) 100,00 %
06.05.2016 02:11 8,1 C 93 % 1020,3 hPa 0,0 l/m 7,4 km/h (2 Bft) NO 50 0 min 0,000 mm 0,0 UV-I 0 W/m 7,0 C 7,3 C 12,9 km/h (3 Bft) 100,00 %
06.05.2016 02:12 8,1 C 93 % 1020,4 hPa 0,0 l/m 7,9 km/h (2 Bft) NO 51 0 min 0,000 mm 0,0 UV-I 0 W/m 7,0 C 6,9 C 12,9 km/h (3 Bft) 100,00 %
06.05.2016 02:13 8,1 C 93 % 1020,4 hPa 0,0 l/m 8,3 km/h (2 Bft) NO 47 0 min 0,000 mm 0,0 UV-I 0 W/m 7,0 C 6,6 C 16,1 km/h (3 Bft) 95,65 %
06.05.2016 02:14 8,1 C 93 % 1020,3 hPa 0,0 l/m 8,4 km/h (2 Bft) O-NO 63 0 min 0,000 mm 0,0 UV-I 0 W/m 7,0 C 6,6 C 12,9 km/h (3 Bft) 100,00 %
06.05.2016 02:15 8,1 C 93 % 1020,3 hPa 0,0 l/m 10,6 km/h (2 Bft) O-NO 57 0 min 0,000 mm 0,0 UV-I 0 W/m 7,0 C 5,1 C 14,5 km/h (3 Bft) 95,65 %
06.05.2016 02:16 8,1 C 93 % 1020,3 hPa 0,0 l/m 9,5 km/h (2 Bft) O-NO 57 0 min 0,000 mm 0,0 UV-I 0 W/m 7,0 C 5,8 C 14,5 km/h (3 Bft) 100,00 %
06.05.2016 02:17 8,1 C 93 % 1020,3 hPa 0,0 l/m 10,6 km/h (2 Bft) NO 38 0 min 0,000 mm 0,0 UV-I 0 W/m 7,0 C 5,1 C 14,5 km/h (3 Bft) 95,65 %
06.05.2016 02:18 8,1 C 93 % 1020,3 hPa 0,0 l/m 10,4 km/h (2 Bft) NO 51 0 min 0,000 mm 0,0 UV-I 0 W/m 7,0 C 5,2 C 14,5 km/h (3 Bft) 100,00 %
06.05.2016 02:19 8,1 C 93 % 1020,3 hPa 0,0 l/m 7,8 km/h (2 Bft) O-NO 67 0 min 0,000 mm 0,0 UV-I 0 W/m 7,0 C 7,0 C 14,5 km/h (3 Bft) 100,00 %
06.05.2016 02:20 8,1 C 93 % 1020,3 hPa 0,0 l/m 9,5 km/h (2 Bft) O-NO 59 0 min 0,000 mm 0,0 UV-I 0 W/m 7,0 C 5,8 C 14,5 km/h (3 Bft) 100,00 %
06.05.2016 02:21 8,1 C 93 % 1020,3 hPa 0,0 l/m 8,9 km/h (2 Bft) NO 51 0 min 0,000 mm 0,0 UV-I 0 W/m 7,0 C 6,2 C 12,9 km/h (3 Bft) 95,65 %
06.05.2016 02:22 8,1 C 93 % 1020,3 hPa 0,0 l/m 6,7 km/h (2 Bft) NO 49 0 min 0,000 mm 0,0 UV-I 0 W/m 7,0 C 7,9 C 9,7 km/h (2 Bft) 100,00 %
06.05.2016 02:23 8,1 C 93 % 1020,3 hPa 0,0 l/m 5,9 km/h (2 Bft) O-NO 59 0 min 0,000 mm 0,0 UV-I 0 W/m 7,0 C 8,1 C 9,7 km/h (2 Bft) 100,00 %
06.05.2016 02:24 8,0 C 93 % 1020,3 hPa 0,0 l/m 5,3 km/h (1 Bft) O-NO 57 0 min 0,000 mm 0,0 UV-I 0 W/m 6,9 C 8,0 C 8,0 km/h (2 Bft) 100,00 %
06.05.2016 02:25 8,0 C 93 % 1020,3 hPa 0,0 l/m 5,2 km/h (1 Bft) NO 55 0 min 0,000 mm 0,0 UV-I 0 W/m 6,9 C 8,0 C 8,0 km/h (2 Bft) 100,00 %
06.05.2016 02:26 8,0 C 93 % 1020,3 hPa 0,0 l/m 5,3 km/h (1 Bft) O-NO 66 0 min 0,000 mm 0,0 UV-I 0 W/m 6,9 C 8,0 C 6,4 km/h (2 Bft) 100,00 %
06.05.2016 02:27 8,0 C 93 % 1020,3 hPa 0,0 l/m 5,4 km/h (1 Bft) NO 43 0 min 0,000 mm 0,0 UV-I 0 W/m 6,9 C 8,0 C 8,0 km/h (2 Bft) 100,00 %
06.05.2016 02:28 7,9 C 93 % 1020,2 hPa 0,0 l/m 5,5 km/h (1 Bft) NO 53 0 min 0,000 mm 0,0 UV-I 0 W/m 6,8 C 7,9 C 8,0 km/h (2 Bft) 100,00 %
06.05.2016 02:29 7,9 C 93 % 1020,2 hPa 0,0 l/m 4,1 km/h (1 Bft) O-NO 57 0 min 0,000 mm 0,0 UV-I 0 W/m 6,8 C 7,9 C 8,0 km/h (2 Bft) 100,00 %
06.05.2016 02:30 7,9 C 93 % 1020,2 hPa 0,0 l/m 5,0 km/h (1 Bft) O-NO 74 0 min 0,000 mm 0,0 UV-I 0 W/m 6,8 C 7,9 C 6,4 km/h (2 Bft) 100,00 %
06.05.2016 02:31 7,8 C 93 % 1020,3 hPa 0,0 l/m 6,5 km/h (2 Bft) O-NO 67 0 min 0,000 mm 0,0 UV-I 0 W/m 6,7 C 7,7 C 8,0 km/h (2 Bft) 100,00 %
06.05.2016 02:32 7,8 C 93 % 1020,2 hPa 0,0 l/m 5,2 km/h (1 Bft) O-NO 74 0 min 0,000 mm 0,0 UV-I 0 W/m 6,7 C 7,8 C 8,0 km/h (2 Bft) 100,00 %
06.05.2016 02:33 7,7 C 93 % 1020,2 hPa 0,0 l/m 5,3 km/h (1 Bft) O-NO 57 0 min 0,000 mm 0,0 UV-I 0 W/m 6,6 C 7,7 C 8,0 km/h (2 Bft) 100,00 %
06.05.2016 02:34 7,7 C 93 % 1020,2 hPa 0,0 l/m 5,9 km/h (2 Bft) NO 51 0 min 0,000 mm 0,0 UV-I 0 W/m 6,6 C 7,7 C 8,0 km/h (2 Bft) 100,00 %
06.05.2016 02:35 7,7 C 93 % 1020,2 hPa 0,0 l/m 7,4 km/h (2 Bft) NO 43 0 min 0,000 mm 0,0 UV-I 0 W/m 6,6 C 6,9 C 12,9 km/h (3 Bft) 100,00 %
06.05.2016 02:36 7,7 C 94 % 1020,2 hPa 0,0 l/m 6,1 km/h (2 Bft) NO 56 0 min 0,000 mm 0,0 UV-I 0 W/m 6,8 C 7,7 C 8,0 km/h (2 Bft) 95,65 %
06.05.2016 02:37 7,6 C 94 % 1020,1 hPa 0,0 l/m 6,8 km/h (2 Bft) O-NO 59 0 min 0,000 mm 0,0 UV-I 0 W/m 6,7 C 7,3 C 8,0 km/h (2 Bft) 100,00 %
06.05.2016 02:38 7,7 C 94 % 1020,1 hPa 0,0 l/m 7,0 km/h (2 Bft) NO 50 0 min 0,000 mm 0,0 UV-I 0 W/m 6,8 C 7,2 C 9,7 km/h (2 Bft) 100,00 %
06.05.2016 02:39 7,7 C 94 % 1020,1 hPa 0,0 l/m 8,6 km/h (2 Bft) NO 47 0 min 0,000 mm 0,0 UV-I 0 W/m 6,8 C 6,0 C 12,9 km/h (3 Bft) 100,00 %
06.05.2016 02:40 7,7 C 94 % 1020,1 hPa 0,0 l/m 8,4 km/h (2 Bft) O-NO 61 0 min 0,000 mm 0,0 UV-I 0 W/m 6,8 C 6,1 C 9,7 km/h (2 Bft) 100,00 %
06.05.2016 02:41 7,7 C 94 % 1020,0 hPa 0,0 l/m 6,2 km/h (2 Bft) O-NO 61 0 min 0,000 mm 0,0 UV-I 0 W/m 6,8 C 7,7 C 9,7 km/h (2 Bft) 100,00 %
06.05.2016 02:42 7,7 C 94 % 1020,1 hPa 0,0 l/m 7,4 km/h (2 Bft) O-NO 68 0 min 0,000 mm 0,0 UV-I 0 W/m 6,8 C 6,9 C 9,7 km/h (2 Bft) 100,00 %
06.05.2016 02:43 7,7 C 94 % 1020,0 hPa 0,0 l/m 6,9 km/h (2 Bft) NO 47 0 min 0,000 mm 0,0 UV-I 0 W/m 6,8 C 7,3 C 9,7 km/h (2 Bft) 100,00 %
06.05.2016 02:44 7,7 C 94 % 1020,0 hPa 0,0 l/m 5,9 km/h (2 Bft) O-NO 57 0 min 0,000 mm 0,0 UV-I 0 W/m 6,8 C 7,7 C 8,0 km/h (2 Bft) 100,00 %
06.05.2016 02:45 7,7 C 94 % 1020,0 hPa 0,0 l/m 6,4 km/h (2 Bft) O-NO 66 0 min 0,000 mm 0,0 UV-I 0 W/m 6,8 C 7,7 C 8,0 km/h (2 Bft) 100,00 %
06.05.2016 02:46 7,6 C 94 % 1020,0 hPa 0,0 l/m 5,0 km/h (1 Bft) O-NO 59 0 min 0,000 mm 0,0 UV-I 0 W/m 6,7 C 7,6 C 6,4 km/h (2 Bft) 100,00 %
06.05.2016 02:47 7,6 C 94 % 1020,0 hPa 0,0 l/m 5,0 km/h (1 Bft) NO 53 0 min 0,000 mm 0,0 UV-I 0 W/m 6,7 C 7,6 C 8,0 km/h (2 Bft) 100,00 %
06.05.2016 02:48 7,6 C 94 % 1020,0 hPa 0,0 l/m 4,8 km/h (1 Bft) O-NO 60 0 min 0,000 mm 0,0 UV-I 0 W/m 6,7 C 7,6 C 8,0 km/h (2 Bft) 100,00 %
06.05.2016 02:49 7,5 C 94 % 1020,0 hPa 0,0 l/m 5,1 km/h (1 Bft) O-NO 61 0 min 0,000 mm 0,0 UV-I 0 W/m 6,6 C 7,5 C 8,0 km/h (2 Bft) 100,00 %
06.05.2016 02:50 7,5 C 94 % 1020,0 hPa 0,0 l/m 4,2 km/h (1 Bft) NO 54 0 min 0,000 mm 0,0 UV-I 0 W/m 6,6 C 7,5 C 6,4 km/h (2 Bft) 100,00 %
06.05.2016 02:51 7,5 C 94 % 1020,0 hPa 0,0 l/m 4,0 km/h (1 Bft) O-NO 59 0 min 0,000 mm 0,0 UV-I 0 W/m 6,6 C 7,5 C 6,4 km/h (2 Bft) 95,65 %
06.05.2016 02:52 7,5 C 94 % 1020,0 hPa 0,0 l/m 6,2 km/h (2 Bft) NO 51 0 min 0,000 mm 0,0 UV-I 0 W/m 6,6 C 7,5 C 8,0 km/h (2 Bft) 100,00 %
06.05.2016 02:53 7,5 C 94 % 1020,0 hPa 0,0 l/m 4,6 km/h (1 Bft) NO 50 0 min 0,000 mm 0,0 UV-I 0 W/m 6,6 C 7,5 C 4,8 km/h (1 Bft) 100,00 %
06.05.2016 02:54 7,4 C 94 % 1020,0 hPa 0,0 l/m 4,7 km/h (1 Bft) O-NO 61 0 min 0,000 mm 0,0 UV-I 0 W/m 6,5 C 7,4 C 6,4 km/h (2 Bft) 95,83 %
06.05.2016 02:55 7,4 C 94 % 1020,0 hPa 0,0 l/m 4,5 km/h (1 Bft) NO 53 0 min 0,000 mm 0,0 UV-I 0 W/m 6,5 C 7,4 C 6,4 km/h (2 Bft) 96,15 %
06.05.2016 02:56 7,4 C 94 % 1020,0 hPa 0,0 l/m 4,6 km/h (1 Bft) NO 47 0 min 0,000 mm 0,0 UV-I 0 W/m 6,5 C 7,4 C 6,4 km/h (2 Bft) 95,83 %
06.05.2016 02:57 7,4 C 94 % 1020,0 hPa 0,0 l/m 5,0 km/h (1 Bft) NO 46 0 min 0,000 mm 0,0 UV-I 0 W/m 6,5 C 7,4 C 6,4 km/h (2 Bft) 100,00 %
06.05.2016 02:58 7,3 C 94 % 1020,0 hPa 0,0 l/m 5,6 km/h (1 Bft) NO 50 0 min 0,000 mm 0,0 UV-I 0 W/m 6,4 C 7,3 C 6,4 km/h (2 Bft) 91,67 %
06.05.2016 02:59 7,3 C 94 % 1020,0 hPa 0,0 l/m 5,8 km/h (2 Bft) NO 39 0 min 0,000 mm 0,0 UV-I 0 W/m 6,4 C 7,3 C 8,0 km/h (2 Bft) 95,65 %
06.05.2016 03:00 7,3 C 94 % 1020,0 hPa 0,0 l/m 6,0 km/h (2 Bft) O-NO 57 0 min 0,000 mm 0,0 UV-I 0 W/m 6,4 C 7,3 C 8,0 km/h (2 Bft) 95,83 %
06.05.2016 03:01 7,3 C 94 % 1020,0 hPa 0,0 l/m 5,0 km/h (1 Bft) O-NO 60 0 min 0,000 mm 0,0 UV-I 0 W/m 6,4 C 7,3 C 6,4 km/h (2 Bft) 95,65 %
06.05.2016 03:02 7,3 C 95 % 1019,9 hPa 0,0 l/m 6,7 km/h (2 Bft) O-NO 61 0 min 0,000 mm 0,0 UV-I 0 W/m 6,6 C 7,1 C 9,7 km/h (2 Bft) 100,00 %
06.05.2016 03:03 7,3 C 94 % 1019,9 hPa 0,0 l/m 5,7 km/h (1 Bft) NO 42 0 min 0,000 mm 0,0 UV-I 0 W/m 6,4 C 7,3 C 6,4 km/h (2 Bft) 95,65 %
06.05.2016 03:04 7,3 C 94 % 1020,0 hPa 0,0 l/m 5,1 km/h (1 Bft) O-NO 61 0 min 0,000 mm 0,0 UV-I 0 W/m 6,4 C 7,3 C 6,4 km/h (2 Bft) 100,00 %
06.05.2016 03:05 7,3 C 94 % 1019,9 hPa 0,0 l/m 6,6 km/h (2 Bft) NO 56 0 min 0,000 mm 0,0 UV-I 0 W/m 6,4 C 7,2 C 9,7 km/h (2 Bft) 86,96 %
06.05.2016 03:06 7,3 C 94 % 1019,9 hPa 0,0 l/m 5,4 km/h (1 Bft) O-NO 73 0 min 0,000 mm 0,0 UV-I 0 W/m 6,4 C 7,3 C 8,0 km/h (2 Bft) 100,00 %
06.05.2016 03:07 7,3 C 95 % 1019,9 hPa 0,0 l/m 5,5 km/h (1 Bft) NO 49 0 min 0,000 mm 0,0 UV-I 0 W/m 6,6 C 7,3 C 8,0 km/h (2 Bft) 92,31 %
06.05.2016 03:08 7,3 C 95 % 1019,9 hPa 0,0 l/m 5,8 km/h (2 Bft) NO 38 0 min 0,000 mm 0,0 UV-I 0 W/m 6,6 C 7,3 C 8,0 km/h (2 Bft) 100,00 %
06.05.2016 03:09 7,3 C 95 % 1019,9 hPa 0,0 l/m 4,5 km/h (1 Bft) O-NO 59 0 min 0,000 mm 0,0 UV-I 0 W/m 6,6 C 7,3 C 6,4 km/h (2 Bft) 95,65 %
06.05.2016 03:10 7,3 C 95 % 1019,9 hPa 0,0 l/m 5,5 km/h (1 Bft) NO 48 0 min 0,000 mm 0,0 UV-I 0 W/m 6,6 C 7,3 C 8,0 km/h (2 Bft) 95,83 %
06.05.2016 03:11 7,3 C 95 % 1019,9 hPa 0,0 l/m 5,9 km/h (2 Bft) NO 46 0 min 0,000 mm 0,0 UV-I 0 W/m 6,6 C 7,3 C 8,0 km/h (2 Bft) 100,00 %
06.05.2016 03:12 7,3 C 95 % 1019,9 hPa 0,0 l/m 3,8 km/h (1 Bft) NO 54 0 min 0,000 mm 0,0 UV-I 0 W/m 6,6 C 7,3 C 6,4 km/h (2 Bft) 95,83 %
06.05.2016 03:13 7,3 C 94 % 1019,9 hPa 0,0 l/m 3,5 km/h (1 Bft) O-NO 76 0 min 0,000 mm 0,0 UV-I 0 W/m 6,4 C 7,3 C 6,4 km/h (2 Bft) 100,00 %
06.05.2016 03:14 7,3 C 94 % 1019,9 hPa 0,0 l/m 4,8 km/h (1 Bft) O-NO 75 0 min 0,000 mm 0,0 UV-I 0 W/m 6,4 C 7,3 C 6,4 km/h (2 Bft) 95,65 %
06.05.2016 03:15 7,2 C 94 % 1019,8 hPa 0,0 l/m 4,6 km/h (1 Bft) O-NO 58 0 min 0,000 mm 0,0 UV-I 0 W/m 6,3 C 7,2 C 6,4 km/h (2 Bft) 100,00 %
06.05.2016 03:16 7,1 C 94 % 1019,8 hPa 0,0 l/m 5,2 km/h (1 Bft) O-NO 67 0 min 0,000 mm 0,0 UV-I 0 W/m 6,2 C 7,1 C 6,4 km/h (2 Bft) 95,65 %
06.05.2016 03:17 7,1 C 94 % 1019,8 hPa 0,0 l/m 4,8 km/h (1 Bft) O-NO 65 0 min 0,000 mm 0,0 UV-I 0 W/m 6,2 C 7,1 C 6,4 km/h (2 Bft) 95,83 %
06.05.2016 03:18 7,1 C 94 % 1019,9 hPa 0,0 l/m 4,1 km/h (1 Bft) O-NO 64 0 min 0,000 mm 0,0 UV-I 0 W/m 6,2 C 7,1 C 6,4 km/h (2 Bft) 95,65 %
06.05.2016 03:19 7,1 C 95 % 1019,9 hPa 0,0 l/m 3,5 km/h (1 Bft) O-NO 58 0 min 0,000 mm 0,0 UV-I 0 W/m 6,4 C 7,1 C 4,8 km/h (1 Bft) 95,83 %
06.05.2016 03:20 7,1 C 95 % 1019,9 hPa 0,0 l/m 3,6 km/h (1 Bft) O-NO 65 0 min 0,000 mm 0,0 UV-I 0 W/m 6,4 C 7,1 C 4,8 km/h (1 Bft) 100,00 %
06.05.2016 03:21 7,1 C 95 % 1019,9 hPa 0,0 l/m 3,6 km/h (1 Bft) O-NO 59 0 min 0,000 mm 0,0 UV-I 0 W/m 6,4 C 7,1 C 4,8 km/h (1 Bft) 95,83 %
06.05.2016 03:22 7,0 C 95 % 1019,8 hPa 0,0 l/m 2,9 km/h (1 Bft) O-NO 59 0 min 0,000 mm 0,0 UV-I 0 W/m 6,3 C 7,0 C 4,8 km/h (1 Bft) 100,00 %
06.05.2016 03:23 6,9 C 95 % 1019,9 hPa 0,0 l/m 3,0 km/h (1 Bft) O-NO 59 0 min 0,000 mm 0,0 UV-I 0 W/m 6,2 C 6,9 C 4,8 km/h (1 Bft) 95,83 %
06.05.2016 03:24 6,9 C 95 % 1019,9 hPa 0,0 l/m 3,8 km/h (1 Bft) O-NO 71 0 min 0,000 mm 0,0 UV-I 0 W/m 6,2 C 6,9 C 4,8 km/h (1 Bft) 100,00 %
06.05.2016 03:25 6,8 C 95 % 1019,9 hPa 0,0 l/m 4,4 km/h (1 Bft) O-NO 71 0 min 0,000 mm 0,0 UV-I 0 W/m 6,1 C 6,8 C 4,8 km/h (1 Bft) 95,83 %
06.05.2016 03:26 6,8 C 95 % 1019,9 hPa 0,0 l/m 4,3 km/h (1 Bft) O-NO 71 0 min 0,000 mm 0,0 UV-I 0 W/m 6,1 C 6,8 C 4,8 km/h (1 Bft) 95,65 %
06.05.2016 03:27 6,8 C 95 % 1019,9 hPa 0,0 l/m 3,7 km/h (1 Bft) O-NO 71 0 min 0,000 mm 0,0 UV-I 0 W/m 6,1 C 6,8 C 4,8 km/h (1 Bft) 100,00 %
06.05.2016 03:28 6,8 C 95 % 1019,8 hPa 0,0 l/m 3,4 km/h (1 Bft) O-NO 71 0 min 0,000 mm 0,0 UV-I 0 W/m 6,1 C 6,8 C 4,8 km/h (1 Bft) 95,65 %
06.05.2016 03:29 6,8 C 95 % 1019,8 hPa 0,0 l/m 3,3 km/h (1 Bft) O-NO 71 0 min 0,000 mm 0,0 UV-I 0 W/m 6,1 C 6,8 C 6,4 km/h (2 Bft) 100,00 %
06.05.2016 03:30 6,8 C 95 % 1019,8 hPa 0,0 l/m 3,4 km/h (1 Bft) O-NO 71 0 min 0,000 mm 0,0 UV-I 0 W/m 6,1 C 6,8 C 4,8 km/h (1 Bft) 100,00 %
06.05.2016 03:31 6,8 C 95 % 1019,8 hPa 0,0 l/m 3,4 km/h (1 Bft) O-NO 67 0 min 0,000 mm 0,0 UV-I 0 W/m 6,1 C 6,8 C 4,8 km/h (1 Bft) 95,65 %
06.05.2016 03:32 6,8 C 95 % 1019,8 hPa 0,0 l/m 3,2 km/h (1 Bft) O-NO 67 0 min 0,000 mm 0,0 UV-I 0 W/m 6,1 C 6,8 C 4,8 km/h (1 Bft) 100,00 %
06.05.2016 03:33 6,8 C 95 % 1019,8 hPa 0,0 l/m 4,4 km/h (1 Bft) O-NO 57 0 min 0,000 mm 0,0 UV-I 0 W/m 6,1 C 6,8 C 6,4 km/h (2 Bft) 95,65 %
06.05.2016 03:34 6,8 C 95 % 1019,8 hPa 0,0 l/m 4,6 km/h (1 Bft) NO 49 0 min 0,000 mm 0,0 UV-I 0 W/m 6,1 C 6,8 C 6,4 km/h (2 Bft) 95,83 %
06.05.2016 03:35 6,8 C 95 % 1019,8 hPa 0,0 l/m 4,5 km/h (1 Bft) NO 49 0 min 0,000 mm 0,0 UV-I 0 W/m 6,1 C 6,8 C 6,4 km/h (2 Bft) 95,65 %
06.05.2016 03:36 6,8 C 95 % 1019,7 hPa 0,0 l/m 4,4 km/h (1 Bft) O-NO 63 0 min 0,000 mm 0,0 UV-I 0 W/m 6,1 C 6,8 C 6,4 km/h (2 Bft) 100,00 %
06.05.2016 03:37 6,8 C 95 % 1019,7 hPa 0,0 l/m 4,2 km/h (1 Bft) O-NO 57 0 min 0,000 mm 0,0 UV-I 0 W/m 6,1 C 6,8 C 6,4 km/h (2 Bft) 100,00 %
06.05.2016 03:38 6,8 C 95 % 1019,7 hPa 0,0 l/m 3,3 km/h (1 Bft) O-NO 57 0 min 0,000 mm 0,0 UV-I 0 W/m 6,1 C 6,8 C 6,4 km/h (2 Bft) 100,00 %
06.05.2016 03:39 6,8 C 95 % 1019,7 hPa 0,0 l/m 5,1 km/h (1 Bft) NO 50 0 min 0,000 mm 0,0 UV-I 0 W/m 6,1 C 6,8 C 6,4 km/h (2 Bft) 100,00 %
06.05.2016 03:40 6,7 C 95 % 1019,7 hPa 0,0 l/m 5,3 km/h (1 Bft) NO 49 0 min 0,000 mm 0,0 UV-I 0 W/m 6,0 C 6,7 C 6,4 km/h (2 Bft) 100,00 %
06.05.2016 03:41 6,7 C 95 % 1019,7 hPa 0,0 l/m 5,0 km/h (1 Bft) NO 48 0 min 0,000 mm 0,0 UV-I 0 W/m 6,0 C 6,7 C 6,4 km/h (2 Bft) 95,65 %
06.05.2016 03:42 6,7 C 95 % 1019,7 hPa 0,0 l/m 6,4 km/h (2 Bft) NO 47 0 min 0,000 mm 0,0 UV-I 0 W/m 6,0 C 6,7 C 8,0 km/h (2 Bft) 100,00 %
06.05.2016 03:43 6,6 C 95 % 1019,7 hPa 0,0 l/m 5,4 km/h (1 Bft) NO 44 0 min 0,000 mm 0,0 UV-I 0 W/m 5,9 C 6,6 C 6,4 km/h (2 Bft) 100,00 %
06.05.2016 03:44 6,6 C 95 % 1019,7 hPa 0,0 l/m 5,7 km/h (1 Bft) NO 38 0 min 0,000 mm 0,0 UV-I 0 W/m 5,9 C 6,6 C 8,0 km/h (2 Bft) 100,00 %
06.05.2016 03:45 6,6 C 95 % 1019,7 hPa 0,0 l/m 6,2 km/h (2 Bft) N-NO 33 0 min 0,000 mm 0,0 UV-I 0 W/m 5,9 C 6,6 C 8,0 km/h (2 Bft) 100,00 %
06.05.2016 03:46 6,5 C 95 % 1019,7 hPa 0,0 l/m 7,6 km/h (2 Bft) NO 44 0 min 0,000 mm 0,0 UV-I 0 W/m 5,8 C 5,5 C 12,9 km/h (3 Bft) 100,00 %
06.05.2016 03:47 6,5 C 95 % 1019,6 hPa 0,0 l/m 7,4 km/h (2 Bft) NO 46 0 min 0,000 mm 0,0 UV-I 0 W/m 5,8 C 5,7 C 9,7 km/h (2 Bft) 100,00 %
06.05.2016 03:48 6,5 C 95 % 1019,6 hPa 0,0 l/m 8,8 km/h (2 Bft) NO 40 0 min 0,000 mm 0,0 UV-I 0 W/m 5,8 C 4,6 C 11,3 km/h (2 Bft) 100,00 %
06.05.2016 03:49 6,5 C 95 % 1019,6 hPa 0,0 l/m 8,5 km/h (2 Bft) NO 46 0 min 0,000 mm 0,0 UV-I 0 W/m 5,8 C 4,8 C 9,7 km/h (2 Bft) 100,00 %
06.05.2016 03:50 6,6 C 95 % 1019,6 hPa 0,0 l/m 8,2 km/h (2 Bft) NO 36 0 min 0,000 mm 0,0 UV-I 0 W/m 5,9 C 5,1 C 12,9 km/h (3 Bft) 100,00 %
06.05.2016 03:51 6,6 C 96 % 1019,6 hPa 0,0 l/m 8,6 km/h (2 Bft) NO 38 0 min 0,000 mm 0,0 UV-I 0 W/m 6,0 C 4,8 C 12,9 km/h (3 Bft) 100,00 %
06.05.2016 03:52 6,6 C 96 % 1019,6 hPa 0,0 l/m 7,8 km/h (2 Bft) NO 34 0 min 0,000 mm 0,0 UV-I 0 W/m 6,0 C 5,4 C 11,3 km/h (2 Bft) 95,65 %
06.05.2016 03:53 6,6 C 96 % 1019,6 hPa 0,0 l/m 7,3 km/h (2 Bft) N-NO 16 0 min 0,000 mm 0,0 UV-I 0 W/m 6,0 C 5,8 C 9,7 km/h (2 Bft) 100,00 %
06.05.2016 03:54 6,7 C 96 % 1019,6 hPa 0,0 l/m 7,6 km/h (2 Bft) N-NO 20 0 min 0,000 mm 0,0 UV-I 0 W/m 6,1 C 5,7 C 9,7 km/h (2 Bft) 100,00 %
06.05.2016 03:55 6,7 C 96 % 1019,6 hPa 0,0 l/m 7,1 km/h (2 Bft) NO 34 0 min 0,000 mm 0,0 UV-I 0 W/m 6,1 C 6,1 C 9,7 km/h (2 Bft) 100,00 %
06.05.2016 03:56 6,7 C 96 % 1019,5 hPa 0,0 l/m 8,1 km/h (2 Bft) NO 51 0 min 0,000 mm 0,0 UV-I 0 W/m 6,1 C 5,3 C 11,3 km/h (2 Bft) 100,00 %
06.05.2016 03:57 6,7 C 96 % 1019,5 hPa 0,0 l/m 6,1 km/h (2 Bft) N-NO 23 0 min 0,000 mm 0,0 UV-I 0 W/m 6,1 C 6,7 C 8,0 km/h (2 Bft) 100,00 %
06.05.2016 03:58 6,7 C 96 % 1019,6 hPa 0,0 l/m 7,8 km/h (2 Bft) N-NO 32 0 min 0,000 mm 0,0 UV-I 0 W/m 6,1 C 5,5 C 11,3 km/h (2 Bft) 95,65 %
06.05.2016 03:59 6,7 C 96 % 1019,5 hPa 0,0 l/m 9,2 km/h (2 Bft) NO 44 0 min 0,000 mm 0,0 UV-I 0 W/m 6,1 C 4,5 C 11,3 km/h (2 Bft) 100,00 %
06.05.2016 04:00 6,7 C 96 % 1019,5 hPa 0,0 l/m 5,2 km/h (1 Bft) N-NO 32 0 min 0,000 mm 0,0 UV-I 0 W/m 6,1 C 6,7 C 8,0 km/h (2 Bft) 100,00 %
06.05.2016 04:01 6,7 C 96 % 1019,5 hPa 0,0 l/m 6,7 km/h (2 Bft) O-NO 62 0 min 0,000 mm 0,0 UV-I 0 W/m 6,1 C 6,5 C 8,0 km/h (2 Bft) 100,00 %
06.05.2016 04:02 6,7 C 96 % 1019,5 hPa 0,0 l/m 5,1 km/h (1 Bft) O-NO 65 0 min 0,000 mm 0,0 UV-I 0 W/m 6,1 C 6,7 C 8,0 km/h (2 Bft) 100,00 %
06.05.2016 04:03 6,8 C 96 % 1019,5 hPa 0,0 l/m 4,5 km/h (1 Bft) O-NO 63 0 min 0,000 mm 0,0 UV-I 0 W/m 6,2 C 6,8 C 6,4 km/h (2 Bft) 100,00 %
06.05.2016 04:04 6,7 C 96 % 1019,4 hPa 0,0 l/m 4,1 km/h (1 Bft) NO 53 0 min 0,000 mm 0,0 UV-I 0 W/m 6,1 C 6,7 C 4,8 km/h (1 Bft) 96,15 %
06.05.2016 04:05 6,7 C 96 % 1019,5 hPa 0,0 l/m 3,1 km/h (1 Bft) NO 53 0 min 0,000 mm 0,0 UV-I 0 W/m 6,1 C 6,7 C 6,4 km/h (2 Bft) 100,00 %
06.05.2016 04:06 6,7 C 95 % 1019,4 hPa 0,0 l/m 3,0 km/h (1 Bft) O-NO 65 0 min 0,000 mm 0,0 UV-I 0 W/m 6,0 C 6,7 C 4,8 km/h (1 Bft) 100,00 %
06.05.2016 04:07 6,7 C 95 % 1019,4 hPa 0,0 l/m 4,6 km/h (1 Bft) O-NO 59 0 min 0,000 mm 0,0 UV-I 0 W/m 6,0 C 6,7 C 6,4 km/h (2 Bft) 100,00 %
06.05.2016 04:08 6,7 C 96 % 1019,4 hPa 0,0 l/m 3,8 km/h (1 Bft) O-NO 58 0 min 0,000 mm 0,0 UV-I 0 W/m 6,1 C 6,7 C 6,4 km/h (2 Bft) 100,00 %
06.05.2016 04:09 6,7 C 96 % 1019,4 hPa 0,0 l/m 3,6 km/h (1 Bft) O-NO 58 0 min 0,000 mm 0,0 UV-I 0 W/m 6,1 C 6,7 C 4,8 km/h (1 Bft) 91,67 %
06.05.2016 04:10 6,7 C 96 % 1019,4 hPa 0,0 l/m 2,7 km/h (1 Bft) O-NO 58 0 min 0,000 mm 0,0 UV-I 0 W/m 6,1 C 6,7 C 4,8 km/h (1 Bft) 100,00 %
06.05.2016 04:11 6,7 C 96 % 1019,4 hPa 0,0 l/m 2,5 km/h (1 Bft) O-NO 58 0 min 0,000 mm 0,0 UV-I 0 W/m 6,1 C 6,7 C 4,8 km/h (1 Bft) 96,30 %
06.05.2016 04:12 6,6 C 96 % 1019,4 hPa 0,0 l/m 3,4 km/h (1 Bft) O-NO 58 0 min 0,000 mm 0,0 UV-I 0 W/m 6,0 C 6,6 C 4,8 km/h (1 Bft) 95,65 %
06.05.2016 04:13 6,6 C 95 % 1019,3 hPa 0,0 l/m 3,8 km/h (1 Bft) O-NO 57 0 min 0,000 mm 0,0 UV-I 0 W/m 5,9 C 6,6 C 4,8 km/h (1 Bft) 100,00 %
06.05.2016 04:14 6,6 C 95 % 1019,3 hPa 0,0 l/m 3,7 km/h (1 Bft) NO 56 0 min 0,000 mm 0,0 UV-I 0 W/m 5,9 C 6,6 C 4,8 km/h (1 Bft) 100,00 %
06.05.2016 04:15 6,6 C 95 % 1019,3 hPa 0,0 l/m 5,0 km/h (1 Bft) O-NO 61 0 min 0,000 mm 0,0 UV-I 0 W/m 5,9 C 6,6 C 8,0 km/h (2 Bft) 100,00 %
06.05.2016 04:16 6,5 C 95 % 1019,4 hPa 0,0 l/m 3,6 km/h (1 Bft) O-NO 61 0 min 0,000 mm 0,0 UV-I 0 W/m 5,8 C 6,5 C 6,4 km/h (2 Bft) 100,00 %
06.05.2016 04:17 6,5 C 96 % 1019,3 hPa 0,0 l/m 4,8 km/h (1 Bft) O-NO 60 0 min 0,000 mm 0,0 UV-I 0 W/m 5,9 C 6,5 C 6,4 km/h (2 Bft) 100,00 %
06.05.2016 04:18 6,5 C 96 % 1019,3 hPa 0,0 l/m 5,8 km/h (2 Bft) O-NO 64 0 min 0,000 mm 0,0 UV-I 0 W/m 5,9 C 6,5 C 8,0 km/h (2 Bft) 100,00 %
06.05.2016 04:19 6,6 C 96 % 1019,3 hPa 0,0 l/m 6,2 km/h (2 Bft) NO 50 0 min 0,000 mm 0,0 UV-I 0 W/m 6,0 C 6,6 C 8,0 km/h (2 Bft) 100,00 %
06.05.2016 04:20 6,6 C 96 % 1019,3 hPa 0,0 l/m 6,2 km/h (2 Bft) O-NO 67 0 min 0,000 mm 0,0 UV-I 0 W/m 6,0 C 6,6 C 9,7 km/h (2 Bft) 100,00 %
06.05.2016 04:21 6,6 C 96 % 1019,3 hPa 0,0 l/m 6,4 km/h (2 Bft) NO 53 0 min 0,000 mm 0,0 UV-I 0 W/m 6,0 C 6,6 C 9,7 km/h (2 Bft) 100,00 %
06.05.2016 04:22 6,6 C 96 % 1019,3 hPa 0,0 l/m 6,4 km/h (2 Bft) NO 46 0 min 0,000 mm 0,0 UV-I 0 W/m 6,0 C 6,6 C 8,0 km/h (2 Bft) 100,00 %
06.05.2016 04:23 6,6 C 96 % 1019,3 hPa 0,0 l/m 6,8 km/h (2 Bft) NO 53 0 min 0,000 mm 0,0 UV-I 0 W/m 6,0 C 6,3 C 8,0 km/h (2 Bft) 95,65 %
06.05.2016 04:24 6,6 C 96 % 1019,3 hPa 0,0 l/m 5,6 km/h (1 Bft) O-NO 63 0 min 0,000 mm 0,0 UV-I 0 W/m 6,0 C 6,6 C 8,0 km/h (2 Bft) 100,00 %
06.05.2016 04:25 6,7 C 96 % 1019,3 hPa 0,0 l/m 5,5 km/h (1 Bft) O-NO 69 0 min 0,000 mm 0,0 UV-I 0 W/m 6,1 C 6,7 C 8,0 km/h (2 Bft) 100,00 %
06.05.2016 04:26 6,7 C 96 % 1019,2 hPa 0,0 l/m 5,8 km/h (2 Bft) O-NO 75 0 min 0,000 mm 0,0 UV-I 0 W/m 6,1 C 6,7 C 8,0 km/h (2 Bft) 100,00 %
06.05.2016 04:27 6,7 C 96 % 1019,2 hPa 0,0 l/m 5,1 km/h (1 Bft) NO 44 0 min 0,000 mm 0,0 UV-I 0 W/m 6,1 C 6,7 C 8,0 km/h (2 Bft) 100,00 %
06.05.2016 04:28 6,7 C 96 % 1019,2 hPa 0,0 l/m 7,7 km/h (2 Bft) NO 52 0 min 0,000 mm 0,0 UV-I 0 W/m 6,1 C 5,6 C 9,7 km/h (2 Bft) 100,00 %
06.05.2016 04:29 6,7 C 96 % 1019,2 hPa 0,0 l/m 6,4 km/h (2 Bft) O-NO 63 0 min 0,000 mm 0,0 UV-I 0 W/m 6,1 C 6,7 C 9,7 km/h (2 Bft) 95,65 %
06.05.2016 04:30 6,7 C 96 % 1019,2 hPa 0,0 l/m 5,8 km/h (2 Bft) O-NO 57 0 min 0,000 mm 0,0 UV-I 0 W/m 6,1 C 6,7 C 8,0 km/h (2 Bft) 95,83 %
06.05.2016 04:31 6,7 C 96 % 1019,2 hPa 0,0 l/m 6,0 km/h (2 Bft) NO 52 0 min 0,000 mm 0,0 UV-I 0 W/m 6,1 C 6,7 C 9,7 km/h (2 Bft) 100,00 %
06.05.2016 04:32 6,7 C 96 % 1019,1 hPa 0,0 l/m 6,1 km/h (2 Bft) O-NO 57 0 min 0,000 mm 0,0 UV-I 0 W/m 6,1 C 6,7 C 9,7 km/h (2 Bft) 95,65 %
06.05.2016 04:33 6,7 C 96 % 1019,1 hPa 0,0 l/m 7,4 km/h (2 Bft) O-NO 57 0 min 0,000 mm 0,0 UV-I 0 W/m 6,1 C 5,9 C 9,7 km/h (2 Bft) 100,00 %
06.05.2016 04:34 6,7 C 96 % 1019,2 hPa 0,0 l/m 7,9 km/h (2 Bft) O-NO 57 0 min 0,000 mm 0,0 UV-I 0 W/m 6,1 C 5,5 C 11,3 km/h (2 Bft) 100,00 %
06.05.2016 04:35 6,7 C 96 % 1019,2 hPa 0,0 l/m 7,2 km/h (2 Bft) O-NO 71 0 min 0,000 mm 0,0 UV-I 0 W/m 6,1 C 6,0 C 9,7 km/h (2 Bft) 100,00 %
06.05.2016 04:36 6,6 C 96 % 1019,1 hPa 0,0 l/m 7,4 km/h (2 Bft) NO 54 0 min 0,000 mm 0,0 UV-I 0 W/m 6,0 C 5,8 C 9,7 km/h (2 Bft) 100,00 %
06.05.2016 04:37 6,6 C 96 % 1019,1 hPa 0,0 l/m 6,0 km/h (2 Bft) O-NO 61 0 min 0,000 mm 0,0 UV-I 0 W/m 6,0 C 6,6 C 8,0 km/h (2 Bft) 100,00 %
06.05.2016 04:38 6,6 C 96 % 1019,1 hPa 0,0 l/m 5,4 km/h (1 Bft) O-NO 65 0 min 0,000 mm 0,0 UV-I 0 W/m 6,0 C 6,6 C 6,4 km/h (2 Bft) 96,55 %
06.05.2016 04:39 6,6 C 96 % 1019,1 hPa 0,0 l/m 6,4 km/h (2 Bft) O-NO 74 0 min 0,000 mm 0,0 UV-I 0 W/m 6,0 C 6,6 C 8,0 km/h (2 Bft) 100,00 %
06.05.2016 04:40 6,5 C 96 % 1019,1 hPa 0,0 l/m 7,1 km/h (2 Bft) O-NO 72 0 min 0,000 mm 0,0 UV-I 0 W/m 5,9 C 5,9 C 11,3 km/h (2 Bft) 100,00 %
06.05.2016 04:41 6,4 C 95 % 1019,2 hPa 0,0 l/m 5,3 km/h (1 Bft) O 97 0 min 0,000 mm 0,0 UV-I 0 W/m 5,7 C 6,4 C 8,0 km/h (2 Bft) 100,00 %
06.05.2016 04:42 6,4 C 95 % 1019,2 hPa 0,0 l/m 4,6 km/h (1 Bft) O 101 0 min 0,000 mm 0,0 UV-I 0 W/m 5,7 C 6,4 C 6,4 km/h (2 Bft) 91,30 %
06.05.2016 04:43 6,3 C 96 % 1019,2 hPa 0,0 l/m 3,7 km/h (1 Bft) O 101 0 min 0,000 mm 0,0 UV-I 0 W/m 5,7 C 6,3 C 4,8 km/h (1 Bft) 100,00 %
06.05.2016 04:44 6,3 C 95 % 1019,1 hPa 0,0 l/m 2,9 km/h (1 Bft) O-NO 76 0 min 0,000 mm 0,0 UV-I 0 W/m 5,6 C 6,3 C 4,8 km/h (1 Bft) 100,00 %
06.05.2016 04:45 6,3 C 96 % 1019,1 hPa 0,0 l/m 2,5 km/h (1 Bft) O-NO 63 0 min 0,000 mm 0,0 UV-I 0 W/m 5,7 C 6,3 C 4,8 km/h (1 Bft) 100,00 %
06.05.2016 04:46 6,3 C 96 % 1019,1 hPa 0,0 l/m 5,4 km/h (1 Bft) O 81 0 min 0,000 mm 0,0 UV-I 0 W/m 5,7 C 6,3 C 8,0 km/h (2 Bft) 95,65 %
06.05.2016 04:47 6,3 C 96 % 1019,1 hPa 0,0 l/m 6,0 km/h (2 Bft) O-NO 67 0 min 0,000 mm 0,0 UV-I 0 W/m 5,7 C 6,3 C 8,0 km/h (2 Bft) 100,00 %
06.05.2016 04:48 6,3 C 96 % 1019,1 hPa 0,0 l/m 7,5 km/h (2 Bft) O-NO 76 0 min 0,000 mm 0,0 UV-I 0 W/m 5,7 C 5,4 C 11,3 km/h (2 Bft) 100,00 %
06.05.2016 04:49 6,3 C 96 % 1019,1 hPa 0,0 l/m 6,1 km/h (2 Bft) O 80 0 min 0,000 mm 0,0 UV-I 0 W/m 5,7 C 6,3 C 8,0 km/h (2 Bft) 100,00 %
06.05.2016 04:50 6,3 C 96 % 1019,1 hPa 0,0 l/m 4,3 km/h (1 Bft) O 90 0 min 0,000 mm 0,0 UV-I 0 W/m 5,7 C 6,3 C 9,7 km/h (2 Bft) 100,00 %
06.05.2016 04:51 6,3 C 96 % 1019,1 hPa 0,0 l/m 5,6 km/h (1 Bft) O-NO 77 0 min 0,000 mm 0,0 UV-I 0 W/m 5,7 C 6,3 C 6,4 km/h (2 Bft) 96,15 %
06.05.2016 04:52 6,3 C 96 % 1019,1 hPa 0,0 l/m 3,4 km/h (1 Bft) O-NO 77 0 min 0,000 mm 0,0 UV-I 0 W/m 5,7 C 6,3 C 4,8 km/h (1 Bft) 100,00 %
06.05.2016 04:53 6,3 C 96 % 1019,1 hPa 0,0 l/m 3,6 km/h (1 Bft) O-SO 102 0 min 0,000 mm 0,0 UV-I 0 W/m 5,7 C 6,3 C 4,8 km/h (1 Bft) 100,00 %
06.05.2016 04:54 6,4 C 96 % 1019,1 hPa 0,0 l/m 2,9 km/h (1 Bft) O-SO 102 0 min 0,000 mm 0,0 UV-I 0 W/m 5,8 C 6,4 C 4,8 km/h (1 Bft) 95,83 %
06.05.2016 04:55 6,4 C 96 % 1019,1 hPa 0,0 l/m 1,9 km/h (1 Bft) O-SO 102 0 min 0,000 mm 0,0 UV-I 0 W/m 5,8 C 6,4 C 3,2 km/h (1 Bft) 100,00 %
06.05.2016 04:56 6,4 C 96 % 1019,1 hPa 0,0 l/m 1,5 km/h (1 Bft) O-SO 103 0 min 0,000 mm 0,0 UV-I 0 W/m 5,8 C 6,4 C 3,2 km/h (1 Bft) 100,00 %
06.05.2016 04:57 6,3 C 96 % 1019,0 hPa 0,0 l/m 3,1 km/h (1 Bft) O-SO 102 0 min 0,000 mm 0,0 UV-I 0 W/m 5,7 C 6,3 C 4,8 km/h (1 Bft) 95,65 %
06.05.2016 04:58 6,3 C 96 % 1019,0 hPa 0,0 l/m 3,6 km/h (1 Bft) O-SO 102 0 min 0,000 mm 0,0 UV-I 0 W/m 5,7 C 6,3 C 4,8 km/h (1 Bft) 100,00 %
06.05.2016 04:59 6,3 C 96 % 1019,0 hPa 0,0 l/m 3,6 km/h (1 Bft) O 99 0 min 0,000 mm 0,0 UV-I 0 W/m 5,7 C 6,3 C 4,8 km/h (1 Bft) 100,00 %
06.05.2016 05:00 6,2 C 96 % 1019,0 hPa 0,0 l/m 3,2 km/h (1 Bft) O-NO 76 0 min 0,000 mm 0,0 UV-I 0 W/m 5,6 C 6,2 C 4,8 km/h (1 Bft) 100,00 %
06.05.2016 05:01 6,2 C 96 % 1019,0 hPa 0,0 l/m 3,5 km/h (1 Bft) O-NO 74 0 min 0,000 mm 0,0 UV-I 0 W/m 5,6 C 6,2 C 4,8 km/h (1 Bft) 91,30 %
06.05.2016 05:02 6,3 C 96 % 1019,0 hPa 0,0 l/m 3,0 km/h (1 Bft) O-NO 74 0 min 0,000 mm 0,0 UV-I 0 W/m 5,7 C 6,3 C 4,8 km/h (1 Bft) 100,00 %
06.05.2016 05:03 6,3 C 96 % 1019,0 hPa 0,0 l/m 4,3 km/h (1 Bft) O-NO 67 0 min 0,000 mm 0,0 UV-I 0 W/m 5,7 C 6,3 C 6,4 km/h (2 Bft) 95,65 %
06.05.2016 05:04 6,3 C 96 % 1018,9 hPa 0,0 l/m 4,4 km/h (1 Bft) O-NO 59 0 min 0,000 mm 0,0 UV-I 0 W/m 5,7 C 6,3 C 6,4 km/h (2 Bft) 100,00 %
06.05.2016 05:05 6,3 C 96 % 1018,9 hPa 0,0 l/m 4,5 km/h (1 Bft) O-NO 78 0 min 0,000 mm 0,0 UV-I 0 W/m 5,7 C 6,3 C 6,4 km/h (2 Bft) 100,00 %
06.05.2016 05:06 6,2 C 96 % 1018,9 hPa 0,0 l/m 6,3 km/h (2 Bft) O-NO 65 0 min 0,000 mm 0,0 UV-I 0 W/m 5,6 C 6,2 C 9,7 km/h (2 Bft) 96,30 %
06.05.2016 05:07 6,2 C 96 % 1018,9 hPa 0,0 l/m 5,0 km/h (1 Bft) O-NO 73 0 min 0,000 mm 0,0 UV-I 0 W/m 5,6 C 6,2 C 6,4 km/h (2 Bft) 91,67 %
06.05.2016 05:08 6,2 C 96 % 1018,9 hPa 0,0 l/m 5,2 km/h (1 Bft) O-NO 69 0 min 0,000 mm 0,0 UV-I 0 W/m 5,6 C 6,2 C 8,0 km/h (2 Bft) 100,00 %
06.05.2016 05:09 6,2 C 96 % 1018,9 hPa 0,0 l/m 6,4 km/h (2 Bft) O-NO 61 0 min 0,000 mm 0,0 UV-I 0 W/m 5,6 C 6,2 C 8,0 km/h (2 Bft) 95,83 %
06.05.2016 05:10 6,2 C 96 % 1018,9 hPa 0,0 l/m 6,9 km/h (2 Bft) O 81 0 min 0,000 mm 0,0 UV-I 0 W/m 5,6 C 5,8 C 12,9 km/h (3 Bft) 100,00 %
06.05.2016 05:11 6,2 C 96 % 1018,9 hPa 0,0 l/m 6,2 km/h (2 Bft) NO 49 0 min 0,000 mm 0,0 UV-I 0 W/m 5,6 C 6,2 C 8,0 km/h (2 Bft) 95,83 %
06.05.2016 05:12 6,2 C 96 % 1018,9 hPa 0,0 l/m 6,7 km/h (2 Bft) NO 56 0 min 0,000 mm 0,0 UV-I 0 W/m 5,6 C 6,0 C 8,0 km/h (2 Bft) 100,00 %
06.05.2016 05:13 6,2 C 96 % 1018,9 hPa 0,0 l/m 7,8 km/h (2 Bft) O-NO 78 0 min 0,000 mm 0,0 UV-I 0 W/m 5,6 C 5,0 C 11,3 km/h (2 Bft) 95,83 %
06.05.2016 05:14 6,2 C 96 % 1018,9 hPa 0,0 l/m 7,2 km/h (2 Bft) O-NO 65 0 min 0,000 mm 0,0 UV-I 0 W/m 5,6 C 5,5 C 9,7 km/h (2 Bft) 95,65 %
06.05.2016 05:15 6,2 C 96 % 1018,9 hPa 0,0 l/m 6,2 km/h (2 Bft) O 82 0 min 0,000 mm 0,0 UV-I 0 W/m 5,6 C 6,2 C 9,7 km/h (2 Bft) 100,00 %
06.05.2016 05:16 6,2 C 96 % 1018,9 hPa 0,0 l/m 7,5 km/h (2 Bft) O-SO 113 0 min 0,000 mm 0,0 UV-I 0 W/m 5,6 C 5,3 C 11,3 km/h (2 Bft) 95,65 %
06.05.2016 05:17 6,2 C 96 % 1018,9 hPa 0,0 l/m 6,9 km/h (2 Bft) O 83 0 min 0,000 mm 0,0 UV-I 0 W/m 5,6 C 5,8 C 9,7 km/h (2 Bft) 100,00 %
06.05.2016 05:18 6,3 C 96 % 1018,9 hPa 0,0 l/m 7,0 km/h (2 Bft) O-NO 71 0 min 0,000 mm 0,0 UV-I 0 W/m 5,7 C 5,8 C 11,3 km/h (2 Bft) 91,30 %
06.05.2016 05:19 6,3 C 96 % 1018,9 hPa 0,0 l/m 8,6 km/h (2 Bft) O 83 0 min 0,000 mm 0,0 UV-I 0 W/m 5,7 C 4,5 C 12,9 km/h (3 Bft) 100,00 %
06.05.2016 05:20 6,3 C 96 % 1018,9 hPa 0,0 l/m 8,2 km/h (2 Bft) O-NO 74 0 min 0,000 mm 0,0 UV-I 0 W/m 5,7 C 4,8 C 12,9 km/h (3 Bft) 96,15 %
06.05.2016 05:21 6,3 C 96 % 1018,8 hPa 0,0 l/m 7,7 km/h (2 Bft) O-NO 74 0 min 0,000 mm 0,0 UV-I 0 W/m 5,7 C 5,2 C 12,9 km/h (3 Bft) 95,83 %
06.05.2016 05:22 6,3 C 96 % 1018,9 hPa 0,0 l/m 7,6 km/h (2 Bft) O-NO 59 0 min 0,000 mm 0,0 UV-I 0 W/m 5,7 C 5,3 C 11,3 km/h (2 Bft) 95,65 %
06.05.2016 05:23 6,3 C 96 % 1018,8 hPa 0,0 l/m 7,2 km/h (2 Bft) O-NO 62 0 min 0,000 mm 0,0 UV-I 0 W/m 5,7 C 5,6 C 11,3 km/h (2 Bft) 96,30 %
06.05.2016 05:24 6,3 C 96 % 1018,8 hPa 0,0 l/m 6,9 km/h (2 Bft) O-NO 76 0 min 0,000 mm 0,0 UV-I 0 W/m 5,7 C 5,9 C 9,7 km/h (2 Bft) 95,65 %
06.05.2016 05:25 6,3 C 96 % 1018,8 hPa 0,0 l/m 7,2 km/h (2 Bft) O-NO 61 0 min 0,000 mm 0,0 UV-I 0 W/m 5,7 C 5,6 C 9,7 km/h (2 Bft) 95,83 %
06.05.2016 05:26 6,4 C 96 % 1018,8 hPa 0,0 l/m 5,9 km/h (2 Bft) O-NO 69 0 min 0,000 mm 0,0 UV-I 0 W/m 5,8 C 6,4 C 8,0 km/h (2 Bft) 95,65 %
06.05.2016 05:27 6,4 C 96 % 1018,8 hPa 0,0 l/m 6,3 km/h (2 Bft) O-NO 76 0 min 0,000 mm 0,0 UV-I 0 W/m 5,8 C 6,4 C 8,0 km/h (2 Bft) 91,67 %
06.05.2016 05:28 6,4 C 96 % 1018,8 hPa 0,0 l/m 7,0 km/h (2 Bft) O-NO 74 0 min 0,000 mm 0,0 UV-I 0 W/m 5,8 C 5,9 C 8,0 km/h (2 Bft) 100,00 %
06.05.2016 05:29 6,4 C 96 % 1018,8 hPa 0,0 l/m 6,9 km/h (2 Bft) O-NO 76 0 min 0,000 mm 0,0 UV-I 0 W/m 5,8 C 6,0 C 8,0 km/h (2 Bft) 91,30 %
06.05.2016 05:30 6,3 C 96 % 1018,8 hPa 0,0 l/m 5,5 km/h (1 Bft) O-NO 78 0 min 0,000 mm 0,0 UV-I 0 W/m 5,7 C 6,3 C 6,4 km/h (2 Bft) 100,00 %
06.05.2016 05:31 6,3 C 96 % 1018,8 hPa 0,0 l/m 6,4 km/h (2 Bft) O 82 0 min 0,000 mm 0,0 UV-I 0 W/m 5,7 C 6,3 C 11,3 km/h (2 Bft) 95,65 %
06.05.2016 05:32 6,3 C 96 % 1018,8 hPa 0,0 l/m 6,2 km/h (2 Bft) O 94 0 min 0,000 mm 0,0 UV-I 0 W/m 5,7 C 6,3 C 6,4 km/h (2 Bft) 95,83 %
06.05.2016 05:33 6,3 C 96 % 1018,8 hPa 0,0 l/m 5,1 km/h (1 Bft) O-NO 57 0 min 0,000 mm 0,0 UV-I 0 W/m 5,7 C 6,3 C 8,0 km/h (2 Bft) 100,00 %
06.05.2016 05:34 6,4 C 96 % 1018,8 hPa 0,0 l/m 5,9 km/h (2 Bft) O 81 0 min 0,000 mm 0,0 UV-I 0 W/m 5,8 C 6,4 C 8,0 km/h (2 Bft) 95,83 %
06.05.2016 05:35 6,4 C 96 % 1018,8 hPa 0,0 l/m 5,1 km/h (1 Bft) O-NO 67 0 min 0,000 mm 0,0 UV-I 0 W/m 5,8 C 6,4 C 6,4 km/h (2 Bft) 100,00 %
06.05.2016 05:36 6,4 C 96 % 1018,8 hPa 0,0 l/m 6,0 km/h (2 Bft) O 85 0 min 0,000 mm 0,0 UV-I 5 W/m 5,8 C 6,4 C 11,3 km/h (2 Bft) 95,83 %
06.05.2016 05:37 6,4 C 96 % 1018,7 hPa 0,0 l/m 5,1 km/h (1 Bft) O-NO 71 0 min 0,000 mm 0,0 UV-I 5 W/m 5,8 C 6,4 C 6,4 km/h (2 Bft) 100,00 %
06.05.2016 05:38 6,4 C 96 % 1018,8 hPa 0,0 l/m 4,4 km/h (1 Bft) O 86 0 min 0,000 mm 0,0 UV-I 5 W/m 5,8 C 6,4 C 8,0 km/h (2 Bft) 95,83 %
06.05.2016 05:39 6,5 C 96 % 1018,8 hPa 0,0 l/m 3,7 km/h (1 Bft) SO 125 0 min 0,000 mm 0,0 UV-I 5 W/m 5,9 C 6,5 C 6,4 km/h (2 Bft) 91,30 %
06.05.2016 05:40 6,5 C 96 % 1018,8 hPa 0,0 l/m 3,3 km/h (1 Bft) SO 125 0 min 0,000 mm 0,0 UV-I 5 W/m 5,9 C 6,5 C 4,8 km/h (1 Bft) 100,00 %
06.05.2016 05:41 6,5 C 96 % 1018,8 hPa 0,0 l/m 2,9 km/h (1 Bft) SO 125 0 min 0,000 mm 0,0 UV-I 5 W/m 5,9 C 6,5 C 4,8 km/h (1 Bft) 100,00 %
06.05.2016 05:42 6,4 C 96 % 1018,8 hPa 0,0 l/m 5,4 km/h (1 Bft) O 84 0 min 0,000 mm 0,0 UV-I 7 W/m 5,8 C 6,4 C 8,0 km/h (2 Bft) 100,00 %
06.05.2016 05:43 6,4 C 96 % 1018,8 hPa 0,0 l/m 5,2 km/h (1 Bft) O-SO 104 0 min 0,000 mm 0,0 UV-I 7 W/m 5,8 C 6,4 C 6,4 km/h (2 Bft) 100,00 %
06.05.2016 05:44 6,4 C 96 % 1018,8 hPa 0,0 l/m 6,7 km/h (2 Bft) O 86 0 min 0,000 mm 0,0 UV-I 7 W/m 5,8 C 6,2 C 11,3 km/h (2 Bft) 100,00 %
06.05.2016 05:45 6,4 C 96 % 1018,8 hPa 0,0 l/m 4,6 km/h (1 Bft) O 86 0 min 0,000 mm 0,0 UV-I 7 W/m 5,8 C 6,4 C 6,4 km/h (2 Bft) 100,00 %
06.05.2016 05:46 6,4 C 96 % 1018,8 hPa 0,0 l/m 6,2 km/h (2 Bft) O 82 0 min 0,000 mm 0,0 UV-I 8 W/m 5,8 C 6,4 C 8,0 km/h (2 Bft) 100,00 %
06.05.2016 05:47 6,5 C 96 % 1018,8 hPa 0,0 l/m 7,1 km/h (2 Bft) O 86 0 min 0,000 mm 0,0 UV-I 9 W/m 5,9 C 5,9 C 11,3 km/h (2 Bft) 100,00 %
06.05.2016 05:48 6,5 C 96 % 1018,8 hPa 0,0 l/m 7,4 km/h (2 Bft) O-NO 66 1 min 0,000 mm 0,0 UV-I 9 W/m 5,9 C 5,7 C 11,3 km/h (2 Bft) 100,00 %
06.05.2016 05:49 6,6 C 96 % 1018,8 hPa 0,0 l/m 5,8 km/h (2 Bft) O-NO 74 1 min 0,000 mm 0,0 UV-I 10 W/m 6,0 C 6,6 C 8,0 km/h (2 Bft) 100,00 %
06.05.2016 05:50 6,6 C 96 % 1018,8 hPa 0,0 l/m 3,5 km/h (1 Bft) O-NO 74 0 min 0,000 mm 0,0 UV-I 11 W/m 6,0 C 6,6 C 6,4 km/h (2 Bft) 95,65 %
06.05.2016 05:51 6,6 C 96 % 1018,8 hPa 0,0 l/m 4,5 km/h (1 Bft) O 93 0 min 0,000 mm 0,0 UV-I 11 W/m 6,0 C 6,6 C 6,4 km/h (2 Bft) 100,00 %
06.05.2016 05:52 6,6 C 96 % 1018,8 hPa 0,0 l/m 5,4 km/h (1 Bft) O-NO 74 0 min 0,000 mm 0,0 UV-I 11 W/m 6,0 C 6,6 C 11,3 km/h (2 Bft) 100,00 %
06.05.2016 05:53 6,6 C 96 % 1018,8 hPa 0,0 l/m 6,3 km/h (2 Bft) O 82 0 min 0,000 mm 0,0 UV-I 11 W/m 6,0 C 6,6 C 9,7 km/h (2 Bft) 100,00 %
06.05.2016 05:54 6,6 C 96 % 1018,8 hPa 0,0 l/m 5,5 km/h (1 Bft) O 82 0 min 0,000 mm 0,0 UV-I 12 W/m 6,0 C 6,6 C 11,3 km/h (2 Bft) 100,00 %
06.05.2016 05:55 6,5 C 96 % 1018,8 hPa 0,0 l/m 3,9 km/h (1 Bft) O 82 0 min 0,000 mm 0,0 UV-I 12 W/m 5,9 C 6,5 C 4,8 km/h (1 Bft) 100,00 %
06.05.2016 05:56 6,4 C 96 % 1018,8 hPa 0,0 l/m 4,3 km/h (1 Bft) O 83 0 min 0,000 mm 0,0 UV-I 12 W/m 5,8 C 6,4 C 4,8 km/h (1 Bft) 95,65 %
06.05.2016 05:57 6,4 C 96 % 1018,8 hPa 0,0 l/m 4,6 km/h (1 Bft) O-NO 76 0 min 0,000 mm 0,0 UV-I 13 W/m 5,8 C 6,4 C 6,4 km/h (2 Bft) 100,00 %
06.05.2016 05:58 6,4 C 96 % 1018,8 hPa 0,0 l/m 4,8 km/h (1 Bft) O-NO 71 0 min 0,000 mm 0,0 UV-I 14 W/m 5,8 C 6,4 C 6,4 km/h (2 Bft) 100,00 %
06.05.2016 05:59 6,4 C 96 % 1018,8 hPa 0,0 l/m 5,2 km/h (1 Bft) O-NO 74 0 min 0,000 mm 0,0 UV-I 14 W/m 5,8 C 6,4 C 6,4 km/h (2 Bft) 100,00 %
06.05.2016 06:00 6,4 C 96 % 1018,7 hPa 0,0 l/m 4,8 km/h (1 Bft) O 96 0 min 0,000 mm 0,0 UV-I 14 W/m 5,8 C 6,4 C 8,0 km/h (2 Bft) 100,00 %
06.05.2016 06:01 6,4 C 96 % 1018,7 hPa 0,0 l/m 4,3 km/h (1 Bft) O-NO 74 0 min 0,000 mm 0,0 UV-I 15 W/m 5,8 C 6,4 C 6,4 km/h (2 Bft) 100,00 %
06.05.2016 06:02 6,5 C 96 % 1018,7 hPa 0,0 l/m 5,6 km/h (1 Bft) O-NO 66 0 min 0,000 mm 0,0 UV-I 16 W/m 5,9 C 6,5 C 8,0 km/h (2 Bft) 95,65 %
06.05.2016 06:03 6,5 C 96 % 1018,7 hPa 0,0 l/m 5,7 km/h (1 Bft) O-NO 68 0 min 0,000 mm 0,0 UV-I 16 W/m 5,9 C 6,5 C 8,0 km/h (2 Bft) 100,00 %
06.05.2016 06:04 6,5 C 96 % 1018,7 hPa 0,0 l/m 4,7 km/h (1 Bft) O 80 0 min 0,000 mm 0,0 UV-I 16 W/m 5,9 C 6,5 C 6,4 km/h (2 Bft) 100,00 %
06.05.2016 06:05 6,5 C 96 % 1018,7 hPa 0,0 l/m 2,7 km/h (1 Bft) O-NO 73 0 min 0,000 mm 0,0 UV-I 18 W/m 5,9 C 6,5 C 4,8 km/h (1 Bft) 100,00 %
06.05.2016 06:06 6,5 C 96 % 1018,8 hPa 0,0 l/m 1,9 km/h (1 Bft) O-SO 102 0 min 0,000 mm 0,0 UV-I 18 W/m 5,9 C 6,5 C 4,8 km/h (1 Bft) 100,00 %
06.05.2016 06:07 6,4 C 96 % 1018,7 hPa 0,0 l/m 1,8 km/h (1 Bft) O-SO 119 0 min 0,000 mm 0,0 UV-I 18 W/m 5,8 C 6,4 C 3,2 km/h (1 Bft) 100,00 %
06.05.2016 06:08 6,4 C 96 % 1018,7 hPa 0,0 l/m 3,4 km/h (1 Bft) O-SO 121 0 min 0,000 mm 0,0 UV-I 18 W/m 5,8 C 6,4 C 4,8 km/h (1 Bft) 100,00 %
06.05.2016 06:09 6,4 C 96 % 1018,7 hPa 0,0 l/m 2,3 km/h (1 Bft) O-SO 121 0 min 0,000 mm 0,0 UV-I 19 W/m 5,8 C 6,4 C 3,2 km/h (1 Bft) 100,00 %
06.05.2016 06:10 6,3 C 96 % 1018,7 hPa 0,0 l/m 2,8 km/h (1 Bft) O-SO 119 0 min 0,000 mm 0,0 UV-I 19 W/m 5,7 C 6,3 C 4,8 km/h (1 Bft) 100,00 %
06.05.2016 06:11 6,3 C 96 % 1018,8 hPa 0,0 l/m 2,5 km/h (1 Bft) O-SO 119 0 min 0,000 mm 0,0 UV-I 19 W/m 5,7 C 6,3 C 3,2 km/h (1 Bft) 100,00 %
06.05.2016 06:12 6,2 C 96 % 1018,8 hPa 0,0 l/m 2,7 km/h (1 Bft) O-SO 117 0 min 0,000 mm 0,0 UV-I 21 W/m 5,6 C 6,2 C 4,8 km/h (1 Bft) 100,00 %
06.05.2016 06:13 6,2 C 96 % 1018,7 hPa 0,0 l/m 1,7 km/h (1 Bft) O-SO 117 0 min 0,000 mm 0,0 UV-I 21 W/m 5,6 C 6,2 C 3,2 km/h (1 Bft) 95,65 %
06.05.2016 06:14 6,2 C 96 % 1018,8 hPa 0,0 l/m 1,9 km/h (1 Bft) O-SO 117 0 min 0,000 mm 0,0 UV-I 21 W/m 5,6 C 6,2 C 3,2 km/h (1 Bft) 100,00 %
06.05.2016 06:15 6,1 C 96 % 1018,8 hPa 0,0 l/m 1,1 km/h (1 Bft) O-SO 117 0 min 0,000 mm 0,0 UV-I 22 W/m 5,5 C 6,1 C 1,6 km/h (1 Bft) 100,00 %
06.05.2016 06:16 6,1 C 96 % 1018,8 hPa 0,0 l/m 0,2 km/h (0 Bft) O-SO 117 0 min 0,000 mm 0,0 UV-I 23 W/m 5,5 C 6,1 C 1,6 km/h (1 Bft) 100,00 %
06.05.2016 06:17 6,1 C 96 % 1018,8 hPa 0,0 l/m 0,0 km/h (0 Bft) O-SO 117 0 min 0,000 mm 0,0 UV-I 23 W/m 5,5 C 6,1 C 0,0 km/h (0 Bft) 100,00 %
06.05.2016 06:18 6,1 C 96 % 1018,8 hPa 0,0 l/m 0,1 km/h (0 Bft) O-SO 117 0 min 0,000 mm 0,0 UV-I 23 W/m 5,5 C 6,1 C 1,6 km/h (1 Bft) 100,00 %
06.05.2016 06:19 6,1 C 96 % 1018,8 hPa 0,0 l/m 1,1 km/h (1 Bft) O-SO 117 0 min 0,000 mm 0,0 UV-I 24 W/m 5,5 C 6,1 C 1,6 km/h (1 Bft) 100,00 %
06.05.2016 06:20 6,0 C 96 % 1018,8 hPa 0,0 l/m 1,5 km/h (1 Bft) O-SO 117 0 min 0,000 mm 0,0 UV-I 25 W/m 5,4 C 6,0 C 3,2 km/h (1 Bft) 100,00 %
06.05.2016 06:21 6,0 C 96 % 1018,8 hPa 0,0 l/m 1,4 km/h (1 Bft) O-SO 117 0 min 0,000 mm 0,0 UV-I 25 W/m 5,4 C 6,0 C 3,2 km/h (1 Bft) 100,00 %
06.05.2016 06:22 6,0 C 96 % 1018,8 hPa 0,0 l/m 0,6 km/h (0 Bft) O-SO 117 0 min 0,000 mm 0,0 UV-I 25 W/m 5,4 C 6,0 C 1,6 km/h (1 Bft) 100,00 %
06.05.2016 06:23 6,0 C 96 % 1018,8 hPa 0,0 l/m 1,1 km/h (1 Bft) O-SO 117 0 min 0,000 mm 0,0 UV-I 25 W/m 5,4 C 6,0 C 1,6 km/h (1 Bft) 95,65 %
06.05.2016 06:24 6,0 C 96 % 1018,8 hPa 0,0 l/m 2,6 km/h (1 Bft) O-SO 117 0 min 0,000 mm 0,0 UV-I 25 W/m 5,4 C 6,0 C 3,2 km/h (1 Bft) 95,83 %
06.05.2016 06:25 6,1 C 96 % 1018,7 hPa 0,0 l/m 0,9 km/h (0 Bft) O-SO 117 0 min 0,000 mm 0,0 UV-I 26 W/m 5,5 C 6,1 C 1,6 km/h (1 Bft) 100,00 %
06.05.2016 06:26 6,1 C 96 % 1018,7 hPa 0,0 l/m 1,5 km/h (1 Bft) O-SO 117 0 min 0,000 mm 0,0 UV-I 26 W/m 5,5 C 6,1 C 1,6 km/h (1 Bft) 100,00 %
06.05.2016 06:27 6,1 C 96 % 1018,8 hPa 0,0 l/m 2,1 km/h (1 Bft) O-SO 117 0 min 0,000 mm 0,0 UV-I 26 W/m 5,5 C 6,1 C 3,2 km/h (1 Bft) 100,00 %
06.05.2016 06:28 6,1 C 96 % 1018,8 hPa 0,0 l/m 3,4 km/h (1 Bft) O-SO 117 0 min 0,000 mm 0,0 UV-I 26 W/m 5,5 C 6,1 C 4,8 km/h (1 Bft) 100,00 %
06.05.2016 06:29 6,2 C 96 % 1018,8 hPa 0,0 l/m 1,9 km/h (1 Bft) O-SO 117 0 min 0,000 mm 0,0 UV-I 26 W/m 5,6 C 6,2 C 3,2 km/h (1 Bft) 95,83 %
06.05.2016 06:30 6,2 C 96 % 1018,8 hPa 0,0 l/m 3,9 km/h (1 Bft) O-NO 58 0 min 0,000 mm 0,0 UV-I 27 W/m 5,6 C 6,2 C 6,4 km/h (2 Bft) 96,15 %
06.05.2016 06:31 6,3 C 97 % 1018,7 hPa 0,0 l/m 3,7 km/h (1 Bft) O-NO 63 0 min 0,000 mm 0,0 UV-I 28 W/m 5,9 C 6,3 C 6,4 km/h (2 Bft) 100,00 %
06.05.2016 06:32 6,3 C 97 % 1018,7 hPa 0,0 l/m 3,3 km/h (1 Bft) O-NO 63 0 min 0,000 mm 0,0 UV-I 28 W/m 5,9 C 6,3 C 4,8 km/h (1 Bft) 100,00 %
06.05.2016 06:33 6,4 C 97 % 1018,8 hPa 0,0 l/m 4,6 km/h (1 Bft) O-NO 63 0 min 0,000 mm 0,0 UV-I 28 W/m 6,0 C 6,4 C 6,4 km/h (2 Bft) 100,00 %
06.05.2016 06:34 6,4 C 97 % 1018,8 hPa 0,0 l/m 4,3 km/h (1 Bft) O-NO 65 0 min 0,000 mm 0,0 UV-I 28 W/m 6,0 C 6,4 C 8,0 km/h (2 Bft) 100,00 %
06.05.2016 06:35 6,5 C 97 % 1018,8 hPa 0,0 l/m 4,6 km/h (1 Bft) O-NO 74 0 min 0,000 mm 0,0 UV-I 28 W/m 6,1 C 6,5 C 6,4 km/h (2 Bft) 100,00 %
06.05.2016 06:36 6,5 C 96 % 1018,7 hPa 0,0 l/m 3,9 km/h (1 Bft) O-NO 74 0 min 0,000 mm 0,0 UV-I 30 W/m 5,9 C 6,5 C 6,4 km/h (2 Bft) 100,00 %
06.05.2016 06:37 6,5 C 96 % 1018,7 hPa 0,0 l/m 3,1 km/h (1 Bft) O-NO 77 0 min 0,000 mm 0,0 UV-I 30 W/m 5,9 C 6,5 C 4,8 km/h (1 Bft) 95,83 %
06.05.2016 06:38 6,5 C 96 % 1018,8 hPa 0,0 l/m 3,2 km/h (1 Bft) O 84 0 min 0,000 mm 0,0 UV-I 30 W/m 5,9 C 6,5 C 4,8 km/h (1 Bft) 95,65 %
06.05.2016 06:39 6,5 C 96 % 1018,8 hPa 0,0 l/m 4,0 km/h (1 Bft) O 84 0 min 0,000 mm 0,0 UV-I 30 W/m 5,9 C 6,5 C 4,8 km/h (1 Bft) 100,00 %
06.05.2016 06:40 6,5 C 96 % 1018,8 hPa 0,0 l/m 5,8 km/h (2 Bft) O-SO 103 0 min 0,000 mm 0,0 UV-I 32 W/m 5,9 C 6,5 C 6,4 km/h (2 Bft) 100,00 %
06.05.2016 06:41 6,6 C 96 % 1018,8 hPa 0,0 l/m 3,2 km/h (1 Bft) O-SO 103 0 min 0,000 mm 0,0 UV-I 32 W/m 6,0 C 6,6 C 4,8 km/h (1 Bft) 100,00 %
06.05.2016 06:42 6,6 C 96 % 1018,8 hPa 0,0 l/m 1,8 km/h (1 Bft) O-SO 103 0 min 0,000 mm 0,0 UV-I 32 W/m 6,0 C 6,6 C 3,2 km/h (1 Bft) 100,00 %
06.05.2016 06:43 6,6 C 96 % 1018,8 hPa 0,0 l/m 1,0 km/h (0 Bft) S-SO 151 0 min 0,000 mm 0,0 UV-I 32 W/m 6,0 C 6,6 C 6,4 km/h (2 Bft) 100,00 %
06.05.2016 06:44 6,7 C 96 % 1018,8 hPa 0,0 l/m 3,5 km/h (1 Bft) SO 133 0 min 0,000 mm 0,0 UV-I 32 W/m 6,1 C 6,7 C 4,8 km/h (1 Bft) 100,00 %
06.05.2016 06:45 6,7 C 96 % 1018,7 hPa 0,0 l/m 0,5 km/h (0 Bft) SO 133 0 min 0,000 mm 0,0 UV-I 33 W/m 6,1 C 6,7 C 1,6 km/h (1 Bft) 100,00 %
06.05.2016 06:46 6,7 C 96 % 1018,8 hPa 0,0 l/m 0,1 km/h (0 Bft) SO 133 0 min 0,000 mm 0,0 UV-I 33 W/m 6,1 C 6,7 C 1,6 km/h (1 Bft) 96,15 %
06.05.2016 06:47 6,7 C 96 % 1018,8 hPa 0,0 l/m 1,6 km/h (1 Bft) SO 133 0 min 0,000 mm 0,0 UV-I 37 W/m 6,1 C 6,7 C 3,2 km/h (1 Bft) 91,67 %
06.05.2016 06:48 6,7 C 96 % 1018,8 hPa 0,0 l/m 2,8 km/h (1 Bft) SO 133 0 min 0,000 mm 0,0 UV-I 62 W/m 6,1 C 6,7 C 3,2 km/h (1 Bft) 95,83 %
06.05.2016 06:49 6,7 C 96 % 1018,8 hPa 0,0 l/m 2,3 km/h (1 Bft) SO 133 0 min 0,000 mm 0,0 UV-I 88 W/m 6,1 C 6,7 C 3,2 km/h (1 Bft) 100,00 %
06.05.2016 06:50 6,7 C 96 % 1018,8 hPa 0,0 l/m 3,1 km/h (1 Bft) O 101 0 min 0,000 mm 0,0 UV-I 97 W/m 6,1 C 6,7 C 4,8 km/h (1 Bft) 100,00 %
06.05.2016 06:51 6,8 C 96 % 1018,7 hPa 0,0 l/m 2,8 km/h (1 Bft) O 82 0 min 0,000 mm 0,0 UV-I 100 W/m 6,2 C 6,8 C 4,8 km/h (1 Bft) 100,00 %
06.05.2016 06:52 6,8 C 96 % 1018,7 hPa 0,0 l/m 2,5 km/h (1 Bft) O 82 0 min 0,000 mm 0,0 UV-I 102 W/m 6,2 C 6,8 C 4,8 km/h (1 Bft) 100,00 %
06.05.2016 06:53 6,8 C 96 % 1018,7 hPa 0,0 l/m 3,3 km/h (1 Bft) O 82 0 min 0,000 mm 0,0 UV-I 105 W/m 6,2 C 6,8 C 4,8 km/h (1 Bft) 100,00 %
06.05.2016 06:54 6,9 C 96 % 1018,7 hPa 0,0 l/m 4,2 km/h (1 Bft) O-NO 77 1 min 0,000 mm 0,0 UV-I 108 W/m 6,3 C 6,9 C 4,8 km/h (1 Bft) 100,00 %
06.05.2016 06:55 6,9 C 96 % 1018,7 hPa 0,0 l/m 4,1 km/h (1 Bft) O-NO 77 1 min 0,000 mm 0,0 UV-I 111 W/m 6,3 C 6,9 C 4,8 km/h (1 Bft) 100,00 %
06.05.2016 06:56 7,0 C 96 % 1018,8 hPa 0,0 l/m 3,8 km/h (1 Bft) O-NO 76 1 min 0,000 mm 0,0 UV-I 114 W/m 6,4 C 7,0 C 4,8 km/h (1 Bft) 100,00 %
06.05.2016 06:57 7,1 C 96 % 1018,8 hPa 0,0 l/m 3,5 km/h (1 Bft) O-NO 74 1 min 0,000 mm 0,0 UV-I 116 W/m 6,5 C 7,1 C 4,8 km/h (1 Bft) 100,00 %
06.05.2016 06:58 7,1 C 96 % 1018,8 hPa 0,0 l/m 3,0 km/h (1 Bft) O-NO 74 1 min 0,000 mm 0,0 UV-I 120 W/m 6,5 C 7,1 C 4,8 km/h (1 Bft) 100,00 %
06.05.2016 06:59 7,1 C 96 % 1018,8 hPa 0,0 l/m 3,4 km/h (1 Bft) O-NO 74 1 min 0,000 mm 0,0 UV-I 121 W/m 6,5 C 7,1 C 4,8 km/h (1 Bft) 91,30 %
06.05.2016 07:00 7,2 C 96 % 1018,8 hPa 0,0 l/m 2,1 km/h (1 Bft) O 86 1 min 0,000 mm 0,0 UV-I 122 W/m 6,6 C 7,2 C 3,2 km/h (1 Bft) 95,83 %
06.05.2016 07:01 7,3 C 96 % 1018,8 hPa 0,0 l/m 3,4 km/h (1 Bft) O 86 1 min 0,025 mm 0,0 UV-I 124 W/m 6,7 C 7,3 C 6,4 km/h (2 Bft) 95,65 %
06.05.2016 07:02 7,3 C 95 % 1018,8 hPa 0,0 l/m 3,5 km/h (1 Bft) O 86 1 min 0,000 mm 0,0 UV-I 125 W/m 6,6 C 7,3 C 4,8 km/h (1 Bft) 100,00 %
06.05.2016 07:03 7,3 C 95 % 1018,9 hPa 0,0 l/m 0,7 km/h (0 Bft) O 86 1 min 0,000 mm 0,0 UV-I 125 W/m 6,6 C 7,3 C 1,6 km/h (1 Bft) 100,00 %
06.05.2016 07:04 7,4 C 95 % 1018,9 hPa 0,0 l/m 1,1 km/h (1 Bft) O 86 1 min 0,000 mm 0,0 UV-I 127 W/m 6,7 C 7,4 C 1,6 km/h (1 Bft) 100,00 %
06.05.2016 07:05 7,4 C 95 % 1018,9 hPa 0,0 l/m 0,8 km/h (0 Bft) O 86 1 min 0,000 mm 0,0 UV-I 127 W/m 6,7 C 7,4 C 1,6 km/h (1 Bft) 100,00 %
06.05.2016 07:06 7,4 C 95 % 1018,9 hPa 0,0 l/m 1,5 km/h (1 Bft) O 86 1 min 0,000 mm 0,0 UV-I 126 W/m 6,7 C 7,4 C 3,2 km/h (1 Bft) 100,00 %
06.05.2016 07:07 7,5 C 95 % 1018,9 hPa 0,0 l/m 2,4 km/h (1 Bft) O 94 0 min 0,000 mm 0,0 UV-I 125 W/m 6,8 C 7,5 C 3,2 km/h (1 Bft) 95,83 %
06.05.2016 07:08 7,5 C 95 % 1018,9 hPa 0,0 l/m 2,8 km/h (1 Bft) S-SO 150 0 min 0,000 mm 0,0 UV-I 125 W/m 6,8 C 7,5 C 3,2 km/h (1 Bft) 100,00 %
06.05.2016 07:09 7,6 C 94 % 1018,9 hPa 0,0 l/m 3,0 km/h (1 Bft) S-SO 152 0 min 0,000 mm 0,0 UV-I 127 W/m 6,7 C 7,6 C 4,8 km/h (1 Bft) 100,00 %
06.05.2016 07:10 7,5 C 94 % 1018,9 hPa 0,0 l/m 2,4 km/h (1 Bft) S-SO 158 0 min 0,000 mm 0,0 UV-I 127 W/m 6,6 C 7,5 C 3,2 km/h (1 Bft) 100,00 %
06.05.2016 07:11 7,5 C 94 % 1018,8 hPa 0,0 l/m 1,1 km/h (1 Bft) S-SO 158 0 min 0,000 mm 0,0 UV-I 131 W/m 6,6 C 7,5 C 3,2 km/h (1 Bft) 100,00 %
06.05.2016 07:12 7,5 C 94 % 1018,9 hPa 0,0 l/m 1,3 km/h (1 Bft) S-SO 158 0 min 0,000 mm 0,0 UV-I 133 W/m 6,6 C 7,5 C 1,6 km/h (1 Bft) 100,00 %
06.05.2016 07:13 7,5 C 94 % 1018,8 hPa 0,0 l/m 0,7 km/h (0 Bft) S-SO 158 1 min 0,000 mm 0,0 UV-I 136 W/m 6,6 C 7,5 C 1,6 km/h (1 Bft) 100,00 %
06.05.2016 07:14 7,6 C 94 % 1018,8 hPa 0,0 l/m 0,3 km/h (0 Bft) S-SO 158 1 min 0,000 mm 0,0 UV-I 140 W/m 6,7 C 7,6 C 1,6 km/h (1 Bft) 95,65 %
06.05.2016 07:15 7,6 C 95 % 1018,8 hPa 0,0 l/m 0,3 km/h (0 Bft) S-SO 158 1 min 0,000 mm 0,0 UV-I 145 W/m 6,9 C 7,6 C 1,6 km/h (1 Bft) 100,00 %
06.05.2016 07:16 7,6 C 95 % 1018,8 hPa 0,0 l/m 1,7 km/h (1 Bft) S-SO 158 1 min 0,000 mm 0,0 UV-I 150 W/m 6,9 C 7,6 C 3,2 km/h (1 Bft) 95,65 %
06.05.2016 07:17 7,6 C 95 % 1018,8 hPa 0,0 l/m 1,5 km/h (1 Bft) S-SO 158 1 min 0,000 mm 0,0 UV-I 156 W/m 6,9 C 7,6 C 1,6 km/h (1 Bft) 100,00 %
06.05.2016 07:18 7,6 C 94 % 1018,8 hPa 0,0 l/m 1,5 km/h (1 Bft) S-SO 158 1 min 0,000 mm 0,0 UV-I 163 W/m 6,7 C 7,6 C 3,2 km/h (1 Bft) 95,65 %
06.05.2016 07:19 7,7 C 94 % 1018,8 hPa 0,0 l/m 2,5 km/h (1 Bft) S-SO 158 1 min 0,000 mm 0,0 UV-I 169 W/m 6,8 C 7,7 C 3,2 km/h (1 Bft) 100,00 %
06.05.2016 07:20 7,7 C 94 % 1018,8 hPa 0,0 l/m 1,2 km/h (1 Bft) S-SO 158 1 min 0,000 mm 0,0 UV-I 175 W/m 6,8 C 7,7 C 3,2 km/h (1 Bft) 95,65 %
06.05.2016 07:21 7,8 C 94 % 1018,8 hPa 0,0 l/m 1,8 km/h (1 Bft) S-SO 158 1 min 0,000 mm 0,0 UV-I 181 W/m 6,9 C 7,8 C 3,2 km/h (1 Bft) 95,83 %
06.05.2016 07:22 7,8 C 94 % 1018,8 hPa 0,0 l/m 0,0 km/h (0 Bft) S-SO 158 1 min 0,000 mm 0,0 UV-I 186 W/m 6,9 C 7,8 C 0,0 km/h (0 Bft) 96,15 %
06.05.2016 07:23 7,8 C 94 % 1018,8 hPa 0,0 l/m 1,0 km/h (0 Bft) S-SO 158 1 min 0,000 mm 0,0 UV-I 189 W/m 6,9 C 7,8 C 3,2 km/h (1 Bft) 95,83 %
06.05.2016 07:24 7,9 C 94 % 1018,8 hPa 0,0 l/m 0,2 km/h (0 Bft) S-SO 158 1 min 0,000 mm 0,0 UV-I 192 W/m 7,0 C 7,9 C 1,6 km/h (1 Bft) 100,00 %
06.05.2016 07:25 7,9 C 94 % 1018,8 hPa 0,0 l/m 0,0 km/h (0 Bft) S-SO 158 1 min 0,000 mm 0,0 UV-I 193 W/m 7,0 C 7,9 C 0,0 km/h (0 Bft) 95,83 %
06.05.2016 07:26 7,9 C 94 % 1018,8 hPa 0,0 l/m 0,5 km/h (0 Bft) S-SO 158 1 min 0,000 mm 0,0 UV-I 198 W/m 7,0 C 7,9 C 1,6 km/h (1 Bft) 100,00 %
06.05.2016 07:27 8,0 C 94 % 1018,9 hPa 0,0 l/m 0,3 km/h (0 Bft) S-SO 158 1 min 0,000 mm 0,0 UV-I 200 W/m 7,1 C 8,0 C 1,6 km/h (1 Bft) 95,83 %
06.05.2016 07:28 8,1 C 94 % 1018,7 hPa 0,0 l/m 0,9 km/h (0 Bft) S-SO 158 1 min 0,000 mm 0,0 UV-I 202 W/m 7,2 C 8,1 C 3,2 km/h (1 Bft) 100,00 %
06.05.2016 07:29 8,1 C 94 % 1018,8 hPa 0,0 l/m 0,1 km/h (0 Bft) S-SO 158 1 min 0,000 mm 0,0 UV-I 205 W/m 7,2 C 8,1 C 1,6 km/h (1 Bft) 95,83 %
06.05.2016 07:30 8,2 C 94 % 1018,8 hPa 0,0 l/m 0,1 km/h (0 Bft) S-SO 158 1 min 0,000 mm 0,0 UV-I 208 W/m 7,3 C 8,2 C 1,6 km/h (1 Bft) 100,00 %
06.05.2016 07:31 8,3 C 94 % 1018,8 hPa 0,0 l/m 0,0 km/h (0 Bft) S-SO 158 1 min 0,000 mm 0,0 UV-I 210 W/m 7,4 C 8,3 C 0,0 km/h (0 Bft) 96,15 %
06.05.2016 07:32 8,3 C 94 % 1018,7 hPa 0,0 l/m 0,0 km/h (0 Bft) S-SO 158 1 min 0,000 mm 0,0 UV-I 213 W/m 7,4 C 8,3 C 0,0 km/h (0 Bft) 91,67 %
06.05.2016 07:33 8,4 C 94 % 1018,8 hPa 0,0 l/m 0,0 km/h (0 Bft) S-SO 158 1 min 0,000 mm 0,0 UV-I 216 W/m 7,5 C 8,4 C 0,0 km/h (0 Bft) 100,00 %
06.05.2016 07:34 8,5 C 93 % 1018,7 hPa 0,0 l/m 0,2 km/h (0 Bft) S-SO 158 1 min 0,000 mm 0,0 UV-I 218 W/m 7,4 C 8,5 C 1,6 km/h (1 Bft) 96,30 %
06.05.2016 07:35 8,5 C 93 % 1018,7 hPa 0,0 l/m 1,4 km/h (1 Bft) S-SO 158 1 min 0,000 mm 0,0 UV-I 221 W/m 7,4 C 8,5 C 3,2 km/h (1 Bft) 100,00 %
06.05.2016 07:36 8,6 C 93 % 1018,7 hPa 0,0 l/m 1,9 km/h (1 Bft) SO 130 1 min 0,000 mm 0,0 UV-I 224 W/m 7,5 C 8,6 C 3,2 km/h (1 Bft) 95,83 %
06.05.2016 07:37 8,7 C 92 % 1018,7 hPa 0,0 l/m 3,4 km/h (1 Bft) O-NO 69 1 min 0,000 mm 0,0 UV-I 228 W/m 7,5 C 8,7 C 4,8 km/h (1 Bft) 100,00 %
06.05.2016 07:38 8,8 C 93 % 1018,7 hPa 0,0 l/m 1,4 km/h (1 Bft) O-NO 69 1 min 0,000 mm 0,0 UV-I 230 W/m 7,7 C 8,8 C 3,2 km/h (1 Bft) 95,83 %
06.05.2016 07:39 8,8 C 93 % 1018,7 hPa 0,0 l/m 3,4 km/h (1 Bft) O-NO 69 1 min 0,000 mm 0,0 UV-I 232 W/m 7,7 C 8,8 C 4,8 km/h (1 Bft) 100,00 %
06.05.2016 07:40 8,9 C 93 % 1018,7 hPa 0,0 l/m 1,4 km/h (1 Bft) O-NO 69 1 min 0,000 mm 0,0 UV-I 236 W/m 7,8 C 8,9 C 3,2 km/h (1 Bft) 96,30 %
06.05.2016 07:41 9,0 C 92 % 1018,7 hPa 0,0 l/m 2,7 km/h (1 Bft) O-NO 69 1 min 0,000 mm 0,1 UV-I 238 W/m 7,8 C 9,0 C 4,8 km/h (1 Bft) 95,65 %
06.05.2016 07:42 9,1 C 92 % 1018,7 hPa 0,0 l/m 1,8 km/h (1 Bft) O-NO 69 1 min 0,000 mm 0,5 UV-I 240 W/m 7,9 C 9,1 C 3,2 km/h (1 Bft) 100,00 %
06.05.2016 07:43 9,2 C 91 % 1018,7 hPa 0,0 l/m 3,6 km/h (1 Bft) O-NO 69 1 min 0,000 mm 0,5 UV-I 241 W/m 7,8 C 9,2 C 6,4 km/h (2 Bft) 91,30 %
06.05.2016 07:44 9,2 C 91 % 1018,7 hPa 0,0 l/m 4,4 km/h (1 Bft) O-NO 69 1 min 0,000 mm 0,5 UV-I 246 W/m 7,8 C 9,2 C 4,8 km/h (1 Bft) 96,30 %
06.05.2016 07:45 9,3 C 91 % 1018,7 hPa 0,0 l/m 2,7 km/h (1 Bft) O-NO 69 1 min 0,000 mm 0,5 UV-I 250 W/m 7,9 C 9,3 C 3,2 km/h (1 Bft) 91,30 %
06.05.2016 07:46 9,3 C 90 % 1018,7 hPa 0,0 l/m 3,2 km/h (1 Bft) O-NO 67 1 min 0,000 mm 0,5 UV-I 251 W/m 7,7 C 9,3 C 4,8 km/h (1 Bft) 100,00 %
06.05.2016 07:47 9,3 C 90 % 1018,7 hPa 0,0 l/m 4,4 km/h (1 Bft) O-NO 61 1 min 0,000 mm 0,5 UV-I 254 W/m 7,7 C 9,3 C 6,4 km/h (2 Bft) 95,65 %
06.05.2016 07:48 9,4 C 90 % 1018,7 hPa 0,0 l/m 3,3 km/h (1 Bft) O-NO 72 1 min 0,000 mm 0,5 UV-I 256 W/m 7,8 C 9,4 C 6,4 km/h (2 Bft) 95,83 %
06.05.2016 07:49 9,4 C 90 % 1018,7 hPa 0,0 l/m 3,1 km/h (1 Bft) O-NO 66 1 min 0,000 mm 0,5 UV-I 258 W/m 7,8 C 9,4 C 6,4 km/h (2 Bft) 95,83 %
06.05.2016 07:50 9,5 C 90 % 1018,7 hPa 0,0 l/m 1,5 km/h (1 Bft) O-NO 66 1 min 0,000 mm 0,5 UV-I 261 W/m 7,9 C 9,5 C 3,2 km/h (1 Bft) 100,00 %
06.05.2016 07:51 9,6 C 90 % 1018,7 hPa 0,0 l/m 4,8 km/h (1 Bft) O-NO 71 1 min 0,000 mm 0,5 UV-I 264 W/m 8,0 C 9,6 C 8,0 km/h (2 Bft) 100,00 %
06.05.2016 07:52 9,6 C 90 % 1018,7 hPa 0,0 l/m 5,4 km/h (1 Bft) O-NO 74 1 min 0,000 mm 0,6 UV-I 265 W/m 8,0 C 9,6 C 8,0 km/h (2 Bft) 100,00 %
06.05.2016 07:53 9,6 C 89 % 1018,7 hPa 0,0 l/m 3,4 km/h (1 Bft) O-NO 67 1 min 0,000 mm 0,6 UV-I 266 W/m 7,9 C 9,6 C 4,8 km/h (1 Bft) 100,00 %
06.05.2016 07:54 9,7 C 90 % 1018,7 hPa 0,0 l/m 4,4 km/h (1 Bft) O-NO 57 1 min 0,000 mm 0,6 UV-I 267 W/m 8,1 C 9,7 C 6,4 km/h (2 Bft) 96,15 %
06.05.2016 07:55 9,7 C 90 % 1018,7 hPa 0,0 l/m 2,1 km/h (1 Bft) O-NO 57 1 min 0,000 mm 0,6 UV-I 266 W/m 8,1 C 9,7 C 3,2 km/h (1 Bft) 100,00 %
06.05.2016 07:56 9,7 C 90 % 1018,7 hPa 0,0 l/m 1,7 km/h (1 Bft) NO 56 1 min 0,000 mm 0,6 UV-I 264 W/m 8,1 C 9,7 C 4,8 km/h (1 Bft) 95,65 %
06.05.2016 07:57 9,8 C 91 % 1018,7 hPa 0,0 l/m 3,3 km/h (1 Bft) NO 56 1 min 0,000 mm 0,6 UV-I 263 W/m 8,4 C 9,8 C 4,8 km/h (1 Bft) 100,00 %
06.05.2016 07:58 9,9 C 90 % 1018,7 hPa 0,0 l/m 4,1 km/h (1 Bft) O-NO 71 1 min 0,000 mm 0,6 UV-I 259 W/m 8,3 C 9,9 C 6,4 km/h (2 Bft) 100,00 %
06.05.2016 07:59 10,0 C 90 % 1018,7 hPa 0,0 l/m 4,5 km/h (1 Bft) O-NO 60 1 min 0,000 mm 0,6 UV-I 257 W/m 8,4 C 10,0 C 6,4 km/h (2 Bft) 100,00 %
06.05.2016 08:00 10,1 C 90 % 1018,7 hPa 0,0 l/m 4,2 km/h (1 Bft) NO 55 1 min 0,000 mm 0,6 UV-I 253 W/m 8,5 C 10,1 C 4,8 km/h (1 Bft) 100,00 %
06.05.2016 08:01 10,2 C 90 % 1018,7 hPa 0,0 l/m 3,7 km/h (1 Bft) O-NO 72 1 min 0,102 mm 0,7 UV-I 250 W/m 8,6 C 10,2 C 4,8 km/h (1 Bft) 95,83 %
06.05.2016 08:02 10,2 C 90 % 1018,7 hPa 0,0 l/m 4,3 km/h (1 Bft) O-NO 61 1 min 0,000 mm 0,7 UV-I 248 W/m 8,6 C 10,2 C 4,8 km/h (1 Bft) 100,00 %
06.05.2016 08:03 10,3 C 90 % 1018,7 hPa 0,0 l/m 6,1 km/h (2 Bft) N-NO 24 1 min 0,000 mm 0,7 UV-I 244 W/m 8,7 C 10,3 C 14,5 km/h (3 Bft) 100,00 %
06.05.2016 08:04 10,4 C 90 % 1018,7 hPa 0,0 l/m 10,1 km/h (2 Bft) O-NO 62 1 min 0,000 mm 0,7 UV-I 244 W/m 8,8 C 8,0 C 14,5 km/h (3 Bft) 100,00 %
06.05.2016 08:05 10,6 C 90 % 1018,7 hPa 0,0 l/m 5,9 km/h (2 Bft) NO 55 1 min 0,000 mm 0,7 UV-I 243 W/m 9,0 C 10,6 C 11,3 km/h (2 Bft) 95,83 %
06.05.2016 08:06 10,7 C 89 % 1018,7 hPa 0,0 l/m 8,7 km/h (2 Bft) NO 45 1 min 0,000 mm 0,7 UV-I 245 W/m 9,0 C 9,1 C 12,9 km/h (3 Bft) 100,00 %
06.05.2016 08:07 10,8 C 89 % 1018,7 hPa 0,0 l/m 9,0 km/h (2 Bft) O 81 1 min 0,000 mm 0,7 UV-I 248 W/m 9,1 C 9,1 C 11,3 km/h (2 Bft) 95,83 %
06.05.2016 08:08 10,9 C 88 % 1018,7 hPa 0,0 l/m 10,7 km/h (2 Bft) O-NO 63 1 min 0,000 mm 0,7 UV-I 251 W/m 9,0 C 8,2 C 16,1 km/h (3 Bft) 100,00 %
06.05.2016 08:09 11,1 C 88 % 1018,6 hPa 0,0 l/m 7,3 km/h (2 Bft) NO 46 1 min 0,000 mm 0,7 UV-I 256 W/m 9,2 C 10,5 C 14,5 km/h (3 Bft) 100,00 %
06.05.2016 08:10 11,1 C 87 % 1018,7 hPa 0,0 l/m 11,5 km/h (2 Bft) NO 52 1 min 0,000 mm 0,7 UV-I 262 W/m 9,0 C 8,0 C 17,7 km/h (3 Bft) 100,00 %
06.05.2016 08:11 11,2 C 88 % 1018,7 hPa 0,0 l/m 12,1 km/h (2 Bft) NO 50 1 min 0,000 mm 0,8 UV-I 268 W/m 9,3 C 7,8 C 16,1 km/h (3 Bft) 100,00 %
06.05.2016 08:12 11,3 C 87 % 1018,7 hPa 0,0 l/m 12,5 km/h (3 Bft) O-NO 58 1 min 0,000 mm 0,8 UV-I 278 W/m 9,2 C 7,8 C 16,1 km/h (3 Bft) 100,00 %
06.05.2016 08:13 11,3 C 87 % 1018,6 hPa 0,0 l/m 11,1 km/h (2 Bft) O-NO 63 1 min 0,000 mm 0,8 UV-I 288 W/m 9,2 C 8,5 C 17,7 km/h (3 Bft) 95,65 %
06.05.2016 08:14 11,4 C 86 % 1018,7 hPa 0,0 l/m 17,6 km/h (3 Bft) O-NO 71 1 min 0,000 mm 0,8 UV-I 299 W/m 9,1 C 5,9 C 22,5 km/h (4 Bft) 95,83 %
06.05.2016 08:15 11,4 C 86 % 1018,7 hPa 0,0 l/m 17,2 km/h (3 Bft) O-NO 69 1 min 0,000 mm 0,8 UV-I 309 W/m 9,1 C 6,0 C 24,1 km/h (4 Bft) 100,00 %
06.05.2016 08:16 11,6 C 85 % 1018,7 hPa 0,0 l/m 15,6 km/h (3 Bft) O-NO 64 1 min 0,000 mm 0,8 UV-I 318 W/m 9,2 C 6,8 C 20,9 km/h (4 Bft) 100,00 %
06.05.2016 08:17 11,6 C 85 % 1018,7 hPa 0,0 l/m 13,4 km/h (3 Bft) O-NO 59 1 min 0,000 mm 0,8 UV-I 326 W/m 9,2 C 7,7 C 17,7 km/h (3 Bft) 100,00 %
06.05.2016 08:18 11,6 C 84 % 1018,7 hPa 0,0 l/m 13,6 km/h (3 Bft) O-NO 64 1 min 0,000 mm 0,8 UV-I 332 W/m 9,0 C 7,6 C 19,3 km/h (3 Bft) 100,00 %
06.05.2016 08:19 11,7 C 84 % 1018,7 hPa 0,0 l/m 16,7 km/h (3 Bft) O-NO 57 1 min 0,000 mm 0,8 UV-I 338 W/m 9,1 C 6,6 C 19,3 km/h (3 Bft) 100,00 %
06.05.2016 08:20 11,7 C 84 % 1018,6 hPa 0,0 l/m 16,0 km/h (3 Bft) NO 40 1 min 0,000 mm 0,9 UV-I 343 W/m 9,1 C 6,8 C 20,9 km/h (4 Bft) 100,00 %
06.05.2016 08:21 11,8 C 85 % 1018,7 hPa 0,0 l/m 17,0 km/h (3 Bft) O-NO 67 1 min 0,000 mm 0,9 UV-I 346 W/m 9,4 C 6,6 C 24,1 km/h (4 Bft) 100,00 %
06.05.2016 08:22 11,8 C 85 % 1018,6 hPa 0,0 l/m 15,0 km/h (3 Bft) O-NO 60 1 min 0,000 mm 0,9 UV-I 349 W/m 9,4 C 7,3 C 20,9 km/h (4 Bft) 100,00 %
06.05.2016 08:23 11,9 C 84 % 1018,6 hPa 0,0 l/m 16,7 km/h (3 Bft) O-NO 71 1 min 0,000 mm 0,9 UV-I 351 W/m 9,3 C 6,8 C 24,1 km/h (4 Bft) 100,00 %
06.05.2016 08:24 11,9 C 83 % 1018,6 hPa 0,0 l/m 16,5 km/h (3 Bft) NO 43 1 min 0,000 mm 0,9 UV-I 353 W/m 9,1 C 6,9 C 20,9 km/h (4 Bft) 100,00 %
06.05.2016 08:25 11,9 C 84 % 1018,7 hPa 0,0 l/m 14,6 km/h (3 Bft) O-NO 76 1 min 0,000 mm 0,9 UV-I 353 W/m 9,3 C 7,6 C 19,3 km/h (3 Bft) 100,00 %
06.05.2016 08:26 11,9 C 83 % 1018,6 hPa 0,0 l/m 17,4 km/h (3 Bft) O-NO 69 1 min 0,000 mm 0,9 UV-I 355 W/m 9,1 C 6,6 C 20,9 km/h (4 Bft) 100,00 %
06.05.2016 08:27 12,0 C 83 % 1018,6 hPa 0,0 l/m 19,5 km/h (3 Bft) O-NO 69 1 min 0,000 mm 0,9 UV-I 357 W/m 9,2 C 6,0 C 25,7 km/h (4 Bft) 100,00 %
06.05.2016 08:28 12,0 C 83 % 1018,6 hPa 0,0 l/m 16,7 km/h (3 Bft) NO 55 1 min 0,000 mm 0,9 UV-I 357 W/m 9,2 C 6,9 C 27,4 km/h (4 Bft) 100,00 %
06.05.2016 08:29 12,1 C 83 % 1018,6 hPa 0,0 l/m 16,4 km/h (3 Bft) NO 51 1 min 0,000 mm 1,0 UV-I 357 W/m 9,3 C 7,2 C 20,9 km/h (4 Bft) 100,00 %
06.05.2016 08:30 12,1 C 83 % 1018,6 hPa 0,0 l/m 17,3 km/h (3 Bft) O-NO 65 1 min 0,000 mm 1,0 UV-I 357 W/m 9,3 C 6,9 C 25,7 km/h (4 Bft) 100,00 %
06.05.2016 08:31 12,1 C 83 % 1018,6 hPa 0,0 l/m 20,5 km/h (4 Bft) NO 53 1 min 0,000 mm 1,0 UV-I 357 W/m 9,3 C 5,9 C 27,4 km/h (4 Bft) 100,00 %
06.05.2016 08:32 12,1 C 82 % 1018,6 hPa 0,0 l/m 21,9 km/h (4 Bft) O-NO 71 1 min 0,000 mm 1,0 UV-I 355 W/m 9,1 C 5,5 C 27,4 km/h (4 Bft) 95,65 %
06.05.2016 08:33 12,2 C 82 % 1018,6 hPa 0,0 l/m 18,2 km/h (3 Bft) O-NO 76 1 min 0,000 mm 1,0 UV-I 353 W/m 9,2 C 6,7 C 27,4 km/h (4 Bft) 100,00 %
06.05.2016 08:34 12,2 C 82 % 1018,6 hPa 0,0 l/m 20,3 km/h (4 Bft) NO 51 1 min 0,000 mm 1,0 UV-I 354 W/m 9,2 C 6,0 C 24,1 km/h (4 Bft) 100,00 %
06.05.2016 08:35 12,2 C 81 % 1018,6 hPa 0,0 l/m 22,5 km/h (4 Bft) O-NO 69 1 min 0,000 mm 1,0 UV-I 353 W/m 9,0 C 5,4 C 30,6 km/h (5 Bft) 100,00 %
06.05.2016 08:36 12,2 C 82 % 1018,5 hPa 0,0 l/m 21,0 km/h (4 Bft) O-NO 58 1 min 0,000 mm 1,1 UV-I 351 W/m 9,2 C 5,8 C 29,0 km/h (5 Bft) 100,00 %
06.05.2016 08:37 12,2 C 82 % 1018,6 hPa 0,0 l/m 24,8 km/h (4 Bft) NO 53 1 min 0,000 mm 1,1 UV-I 344 W/m 9,2 C 4,9 C 32,2 km/h (5 Bft) 100,00 %
06.05.2016 08:38 12,3 C 81 % 1018,5 hPa 0,0 l/m 24,1 km/h (4 Bft) O-NO 70 1 min 0,000 mm 1,1 UV-I 335 W/m 9,1 C 5,2 C 30,6 km/h (5 Bft) 100,00 %
06.05.2016 08:39 12,3 C 81 % 1018,5 hPa 0,0 l/m 19,6 km/h (3 Bft) O-NO 65 1 min 0,000 mm 1,1 UV-I 328 W/m 9,1 C 6,4 C 25,7 km/h (4 Bft) 100,00 %
06.05.2016 08:40 12,3 C 81 % 1018,5 hPa 0,0 l/m 17,9 km/h (3 Bft) O-NO 59 1 min 0,000 mm 1,1 UV-I 319 W/m 9,1 C 6,9 C 22,5 km/h (4 Bft) 100,00 %
06.05.2016 08:41 12,3 C 82 % 1018,6 hPa 0,0 l/m 19,1 km/h (3 Bft) NO 45 1 min 0,000 mm 1,1 UV-I 309 W/m 9,3 C 6,5 C 29,0 km/h (5 Bft) 100,00 %
06.05.2016 08:42 12,3 C 81 % 1018,5 hPa 0,0 l/m 20,5 km/h (4 Bft) NO 44 1 min 0,000 mm 1,1 UV-I 299 W/m 9,1 C 6,1 C 27,4 km/h (4 Bft) 95,83 %
06.05.2016 08:43 12,3 C 81 % 1018,5 hPa 0,0 l/m 20,0 km/h (4 Bft) NO 48 1 min 0,000 mm 1,2 UV-I 289 W/m 9,1 C 6,3 C 24,1 km/h (4 Bft) 100,00 %
06.05.2016 08:44 12,4 C 82 % 1018,6 hPa 0,0 l/m 21,3 km/h (4 Bft) O-NO 59 1 min 0,000 mm 1,2 UV-I 282 W/m 9,4 C 6,0 C 25,7 km/h (4 Bft) 100,00 %
06.05.2016 08:45 12,4 C 81 % 1018,5 hPa 0,0 l/m 24,3 km/h (4 Bft) O-NO 63 1 min 0,000 mm 1,2 UV-I 272 W/m 9,2 C 5,3 C 30,6 km/h (5 Bft) 100,00 %
06.05.2016 08:46 12,4 C 80 % 1018,5 hPa 0,0 l/m 21,3 km/h (4 Bft) NO 36 0 min 0,000 mm 1,2 UV-I 265 W/m 9,0 C 6,0 C 29,0 km/h (5 Bft) 100,00 %
06.05.2016 08:47 12,4 C 80 % 1018,5 hPa 0,0 l/m 24,2 km/h (4 Bft) O-NO 76 0 min 0,000 mm 1,2 UV-I 261 W/m 9,0 C 5,3 C 33,8 km/h (5 Bft) 100,00 %
06.05.2016 08:48 12,4 C 81 % 1018,5 hPa 0,0 l/m 21,6 km/h (4 Bft) NO 40 0 min 0,000 mm 1,2 UV-I 260 W/m 9,2 C 5,9 C 27,4 km/h (4 Bft) 100,00 %
06.05.2016 08:49 12,5 C 81 % 1018,5 hPa 0,0 l/m 20,1 km/h (4 Bft) N-NO 31 0 min 0,000 mm 1,2 UV-I 264 W/m 9,3 C 6,5 C 27,4 km/h (4 Bft) 95,65 %
06.05.2016 08:50 12,5 C 81 % 1018,6 hPa 0,0 l/m 20,8 km/h (4 Bft) NO 55 0 min 0,000 mm 1,3 UV-I 270 W/m 9,3 C 6,3 C 27,4 km/h (4 Bft) 100,00 %
06.05.2016 08:51 12,5 C 80 % 1018,5 hPa 0,0 l/m 22,2 km/h (4 Bft) O-NO 65 0 min 0,000 mm 1,3 UV-I 277 W/m 9,1 C 5,9 C 30,6 km/h (5 Bft) 100,00 %
06.05.2016 08:52 12,6 C 80 % 1018,6 hPa 0,0 l/m 22,6 km/h (4 Bft) NO 47 1 min 0,000 mm 1,3 UV-I 284 W/m 9,2 C 5,9 C 27,4 km/h (4 Bft) 100,00 %
06.05.2016 08:53 12,6 C 80 % 1018,5 hPa 0,0 l/m 23,1 km/h (4 Bft) NO 43 1 min 0,000 mm 1,3 UV-I 294 W/m 9,2 C 5,8 C 27,4 km/h (4 Bft) 100,00 %
06.05.2016 08:54 12,6 C 81 % 1018,5 hPa 0,0 l/m 21,9 km/h (4 Bft) O-NO 65 1 min 0,000 mm 1,3 UV-I 304 W/m 9,4 C 6,1 C 29,0 km/h (5 Bft) 100,00 %
06.05.2016 08:55 12,6 C 81 % 1018,6 hPa 0,0 l/m 14,7 km/h (3 Bft) NO 50 1 min 0,000 mm 1,3 UV-I 317 W/m 9,4 C 8,4 C 19,3 km/h (3 Bft) 92,86 %
06.05.2016 08:56 12,7 C 80 % 1018,6 hPa 0,0 l/m 22,1 km/h (4 Bft) O-NO 65 1 min 0,000 mm 1,3 UV-I 329 W/m 9,3 C 6,2 C 25,7 km/h (4 Bft) 100,00 %
06.05.2016 08:57 12,7 C 80 % 1018,6 hPa 0,0 l/m 20,4 km/h (4 Bft) O-NO 60 1 min 0,000 mm 1,3 UV-I 342 W/m 9,3 C 6,7 C 27,4 km/h (4 Bft) 100,00 %
06.05.2016 08:58 12,7 C 80 % 1018,6 hPa 0,0 l/m 20,9 km/h (4 Bft) NO 51 1 min 0,000 mm 1,4 UV-I 355 W/m 9,3 C 6,5 C 27,4 km/h (4 Bft) 100,00 %
06.05.2016 08:59 12,7 C 80 % 1018,6 hPa 0,0 l/m 21,4 km/h (4 Bft) NO 43 1 min 0,000 mm 1,4 UV-I 366 W/m 9,3 C 6,4 C 25,7 km/h (4 Bft) 100,00 %
06.05.2016 09:00 12,7 C 80 % 1018,6 hPa 0,0 l/m 19,5 km/h (3 Bft) O-NO 59 1 min 0,000 mm 1,4 UV-I 378 W/m 9,3 C 6,9 C 27,4 km/h (4 Bft) 100,00 %
06.05.2016 09:01 12,8 C 80 % 1018,7 hPa 0,0 l/m 19,6 km/h (3 Bft) NO 55 1 min 0,178 mm 1,4 UV-I 388 W/m 9,4 C 7,0 C 24,1 km/h (4 Bft) 100,00 %
06.05.2016 09:02 12,8 C 80 % 1018,6 hPa 0,0 l/m 13,6 km/h (3 Bft) O-NO 59 1 min 0,000 mm 1,4 UV-I 398 W/m 9,4 C 9,1 C 19,3 km/h (3 Bft) 100,00 %
06.05.2016 09:03 12,8 C 81 % 1018,6 hPa 0,0 l/m 16,4 km/h (3 Bft) O-NO 69 1 min 0,000 mm 1,4 UV-I 404 W/m 9,6 C 8,0 C 24,1 km/h (4 Bft) 91,30 %
06.05.2016 09:04 12,9 C 81 % 1018,6 hPa 0,0 l/m 18,7 km/h (3 Bft) O-NO 75 1 min 0,000 mm 1,4 UV-I 411 W/m 9,7 C 7,4 C 24,1 km/h (4 Bft) 100,00 %
06.05.2016 09:05 12,9 C 80 % 1018,5 hPa 0,0 l/m 14,3 km/h (3 Bft) NO 44 1 min 0,000 mm 1,5 UV-I 422 W/m 9,5 C 8,9 C 20,9 km/h (4 Bft) 95,65 %
06.05.2016 09:06 13,0 C 81 % 1018,4 hPa 0,0 l/m 18,2 km/h (3 Bft) NO 49 1 min 0,000 mm 1,5 UV-I 428 W/m 9,8 C 7,7 C 20,9 km/h (4 Bft) 100,00 %
06.05.2016 09:07 13,1 C 80 % 1018,5 hPa 0,0 l/m 16,9 km/h (3 Bft) NO 36 1 min 0,000 mm 1,5 UV-I 436 W/m 9,7 C 8,2 C 22,5 km/h (4 Bft) 100,00 %
06.05.2016 09:08 13,1 C 80 % 1018,5 hPa 0,0 l/m 14,7 km/h (3 Bft) O-NO 63 1 min 0,000 mm 1,5 UV-I 446 W/m 9,7 C 9,0 C 20,9 km/h (4 Bft) 100,00 %
06.05.2016 09:09 13,2 C 80 % 1018,5 hPa 0,0 l/m 20,1 km/h (4 Bft) O-NO 70 1 min 0,000 mm 1,5 UV-I 452 W/m 9,8 C 7,4 C 29,0 km/h (5 Bft) 91,67 %
06.05.2016 09:10 13,2 C 79 % 1018,5 hPa 0,0 l/m 19,3 km/h (3 Bft) O 81 1 min 0,000 mm 1,5 UV-I 460 W/m 9,6 C 7,6 C 29,0 km/h (5 Bft) 100,00 %
06.05.2016 09:11 13,2 C 78 % 1018,5 hPa 0,0 l/m 16,9 km/h (3 Bft) O-NO 69 1 min 0,000 mm 1,6 UV-I 468 W/m 9,4 C 8,4 C 24,1 km/h (4 Bft) 93,33 %
06.05.2016 09:12 13,2 C 78 % 1018,5 hPa 0,0 l/m 19,3 km/h (3 Bft) O-NO 63 1 min 0,000 mm 1,6 UV-I 475 W/m 9,4 C 7,6 C 24,1 km/h (4 Bft) 100,00 %
06.05.2016 09:13 13,3 C 78 % 1018,5 hPa 0,0 l/m 21,0 km/h (4 Bft) O-NO 63 1 min 0,000 mm 1,6 UV-I 483 W/m 9,5 C 7,3 C 27,4 km/h (4 Bft) 95,83 %
06.05.2016 09:14 13,3 C 78 % 1018,4 hPa 0,0 l/m 16,6 km/h (3 Bft) O-NO 61 1 min 0,000 mm 1,6 UV-I 491 W/m 9,5 C 8,6 C 22,5 km/h (4 Bft) 100,00 %
06.05.2016 09:15 13,3 C 78 % 1018,4 hPa 0,0 l/m 23,3 km/h (4 Bft) O-NO 63 1 min 0,000 mm 1,6 UV-I 497 W/m 9,5 C 6,7 C 30,6 km/h (5 Bft) 95,83 %
06.05.2016 09:16 13,3 C 77 % 1018,4 hPa 0,0 l/m 26,8 km/h (4 Bft) O 87 1 min 0,000 mm 1,6 UV-I 502 W/m 9,4 C 5,9 C 37,0 km/h (5 Bft) 96,15 %
06.05.2016 09:17 13,3 C 76 % 1018,4 hPa 0,0 l/m 24,7 km/h (4 Bft) NO 52 1 min 0,000 mm 1,7 UV-I 510 W/m 9,2 C 6,4 C 30,6 km/h (5 Bft) 100,00 %
06.05.2016 09:18 13,3 C 76 % 1018,4 hPa 0,0 l/m 21,3 km/h (4 Bft) NO 40 1 min 0,000 mm 1,7 UV-I 515 W/m 9,2 C 7,2 C 29,0 km/h (5 Bft) 95,65 %
06.05.2016 09:19 13,3 C 77 % 1018,4 hPa 0,0 l/m 19,2 km/h (3 Bft) O 86 1 min 0,000 mm 1,7 UV-I 519 W/m 9,4 C 7,8 C 27,4 km/h (4 Bft) 100,00 %
06.05.2016 09:20 13,3 C 77 % 1018,4 hPa 0,0 l/m 19,3 km/h (3 Bft) O-NO 66 1 min 0,000 mm 1,7 UV-I 521 W/m 9,4 C 7,7 C 27,4 km/h (4 Bft) 91,30 %
06.05.2016 09:21 13,3 C 77 % 1018,4 hPa 0,0 l/m 21,0 km/h (4 Bft) O-NO 74 1 min 0,000 mm 1,7 UV-I 524 W/m 9,4 C 7,3 C 27,4 km/h (4 Bft) 100,00 %
06.05.2016 09:22 13,4 C 77 % 1018,4 hPa 0,0 l/m 25,3 km/h (4 Bft) N-NO 31 1 min 0,000 mm 1,7 UV-I 527 W/m 9,5 C 6,4 C 30,6 km/h (5 Bft) 86,96 %
06.05.2016 09:23 13,4 C 78 % 1018,3 hPa 0,0 l/m 19,8 km/h (3 Bft) O-SO 103 1 min 0,000 mm 1,8 UV-I 532 W/m 9,6 C 7,7 C 25,7 km/h (4 Bft) 95,83 %
06.05.2016 09:24 13,4 C 77 % 1018,4 hPa 0,0 l/m 24,2 km/h (4 Bft) NO 49 1 min 0,000 mm 1,8 UV-I 534 W/m 9,5 C 6,6 C 32,2 km/h (5 Bft) 96,15 %
06.05.2016 09:25 13,4 C 77 % 1018,4 hPa 0,0 l/m 19,2 km/h (3 Bft) O 90 1 min 0,000 mm 1,8 UV-I 536 W/m 9,5 C 7,9 C 27,4 km/h (4 Bft) 95,83 %
06.05.2016 09:26 13,5 C 77 % 1018,3 hPa 0,0 l/m 20,0 km/h (4 Bft) O-NO 63 1 min 0,000 mm 1,8 UV-I 539 W/m 9,5 C 7,8 C 29,0 km/h (5 Bft) 95,65 %
06.05.2016 09:27 13,5 C 77 % 1018,4 hPa 0,0 l/m 17,5 km/h (3 Bft) O 92 1 min 0,000 mm 1,8 UV-I 542 W/m 9,5 C 8,5 C 24,1 km/h (4 Bft) 93,33 %
06.05.2016 09:28 13,6 C 76 % 1018,3 hPa 0,0 l/m 21,1 km/h (4 Bft) O-NO 74 1 min 0,000 mm 1,8 UV-I 542 W/m 9,4 C 7,6 C 29,0 km/h (5 Bft) 100,00 %
06.05.2016 09:29 13,6 C 76 % 1018,3 hPa 0,0 l/m 20,5 km/h (4 Bft) O-NO 59 1 min 0,000 mm 1,9 UV-I 546 W/m 9,4 C 7,8 C 25,7 km/h (4 Bft) 95,65 %
06.05.2016 09:30 13,6 C 75 % 1018,3 hPa 0,0 l/m 18,7 km/h (3 Bft) O 80 1 min 0,000 mm 1,9 UV-I 550 W/m 9,3 C 8,3 C 25,7 km/h (4 Bft) 100,00 %
06.05.2016 09:31 13,6 C 76 % 1018,3 hPa 0,0 l/m 15,5 km/h (3 Bft) O 88 1 min 0,000 mm 1,9 UV-I 552 W/m 9,4 C 9,3 C 22,5 km/h (4 Bft) 96,30 %
06.05.2016 09:32 13,6 C 75 % 1018,4 hPa 0,0 l/m 22,2 km/h (4 Bft) O 93 1 min 0,000 mm 1,9 UV-I 552 W/m 9,3 C 7,4 C 27,4 km/h (4 Bft) 95,83 %
06.05.2016 09:33 13,6 C 75 % 1018,3 hPa 0,0 l/m 13,1 km/h (3 Bft) O-NO 73 1 min 0,000 mm 1,9 UV-I 556 W/m 9,3 C 10,2 C 20,9 km/h (4 Bft) 100,00 %
06.05.2016 09:34 13,7 C 77 % 1018,3 hPa 0,0 l/m 13,0 km/h (3 Bft) O-NO 69 1 min 0,000 mm 1,9 UV-I 558 W/m 9,7 C 10,4 C 17,7 km/h (3 Bft) 95,83 %
06.05.2016 09:35 13,7 C 76 % 1018,3 hPa 0,0 l/m 20,5 km/h (4 Bft) O-NO 67 1 min 0,000 mm 2,0 UV-I 563 W/m 9,5 C 7,9 C 25,7 km/h (4 Bft) 100,00 %
06.05.2016 09:36 13,8 C 75 % 1018,3 hPa 0,0 l/m 15,1 km/h (3 Bft) O-NO 62 1 min 0,000 mm 2,0 UV-I 563 W/m 9,4 C 9,7 C 20,9 km/h (4 Bft) 96,30 %
06.05.2016 09:37 13,8 C 75 % 1018,3 hPa 0,0 l/m 13,7 km/h (3 Bft) O-NO 65 1 min 0,000 mm 2,0 UV-I 567 W/m 9,4 C 10,2 C 19,3 km/h (3 Bft) 100,00 %
06.05.2016 09:38 13,8 C 76 % 1018,3 hPa 0,0 l/m 14,7 km/h (3 Bft) O 88 1 min 0,000 mm 2,0 UV-I 570 W/m 9,6 C 9,8 C 20,9 km/h (4 Bft) 95,83 %
06.05.2016 09:39 13,8 C 75 % 1018,3 hPa 0,0 l/m 14,6 km/h (3 Bft) O-NO 71 1 min 0,000 mm 2,1 UV-I 570 W/m 9,4 C 9,9 C 20,9 km/h (4 Bft) 100,00 %
06.05.2016 09:40 13,9 C 75 % 1018,3 hPa 0,0 l/m 18,1 km/h (3 Bft) O 82 1 min 0,000 mm 2,1 UV-I 572 W/m 9,5 C 8,9 C 25,7 km/h (4 Bft) 95,83 %
06.05.2016 09:41 13,9 C 76 % 1018,3 hPa 0,0 l/m 12,5 km/h (3 Bft) O 80 1 min 0,000 mm 2,1 UV-I 576 W/m 9,7 C 10,8 C 17,7 km/h (3 Bft) 95,65 %
06.05.2016 09:42 14,0 C 76 % 1018,2 hPa 0,0 l/m 10,4 km/h (2 Bft) O-NO 78 1 min 0,000 mm 2,1 UV-I 578 W/m 9,8 C 11,8 C 17,7 km/h (3 Bft) 100,00 %
06.05.2016 09:43 14,1 C 77 % 1018,2 hPa 0,0 l/m 12,9 km/h (3 Bft) O-NO 76 1 min 0,000 mm 2,1 UV-I 581 W/m 10,1 C 10,9 C 19,3 km/h (3 Bft) 100,00 %
06.05.2016 09:44 14,2 C 77 % 1018,2 hPa 0,0 l/m 14,1 km/h (3 Bft) O-NO 78 1 min 0,000 mm 2,1 UV-I 585 W/m 10,2 C 10,5 C 19,3 km/h (3 Bft) 100,00 %
06.05.2016 09:45 14,2 C 77 % 1018,2 hPa 0,0 l/m 18,0 km/h (3 Bft) NO 40 1 min 0,000 mm 2,2 UV-I 588 W/m 10,2 C 9,3 C 22,5 km/h (4 Bft) 100,00 %
06.05.2016 09:46 14,3 C 76 % 1018,2 hPa 0,0 l/m 13,9 km/h (3 Bft) NO 40 1 min 0,000 mm 2,2 UV-I 589 W/m 10,1 C 10,7 C 17,7 km/h (3 Bft) 100,00 %
06.05.2016 09:47 14,3 C 77 % 1018,2 hPa 0,0 l/m 12,3 km/h (3 Bft) O-NO 60 1 min 0,000 mm 2,2 UV-I 591 W/m 10,3 C 11,3 C 17,7 km/h (3 Bft) 98,39 %
06.05.2016 09:48 14,4 C 77 % 1018,2 hPa 0,0 l/m 17,4 km/h (3 Bft) O-NO 63 1 min 0,000 mm 2,2 UV-I 591 W/m 10,4 C 9,7 C 22,5 km/h (4 Bft) 100,00 %
06.05.2016 09:49 14,4 C 76 % 1018,2 hPa 0,0 l/m 19,3 km/h (3 Bft) NO 46 1 min 0,000 mm 2,2 UV-I 592 W/m 10,2 C 9,2 C 24,1 km/h (4 Bft) 95,83 %
06.05.2016 09:50 14,4 C 75 % 1018,2 hPa 0,0 l/m 20,4 km/h (4 Bft) O 80 1 min 0,000 mm 2,2 UV-I 596 W/m 10,0 C 8,9 C 25,7 km/h (4 Bft) 95,65 %
06.05.2016 09:51 14,3 C 75 % 1018,2 hPa 0,0 l/m 21,8 km/h (4 Bft) O-NO 60 1 min 0,000 mm 2,2 UV-I 600 W/m 9,9 C 8,4 C 30,6 km/h (5 Bft) 95,83 %
06.05.2016 09:52 14,3 C 74 % 1018,2 hPa 0,0 l/m 22,0 km/h (4 Bft) O-NO 77 1 min 0,000 mm 2,3 UV-I 604 W/m 9,7 C 8,3 C 27,4 km/h (4 Bft) 96,15 %
06.05.2016 09:53 14,3 C 74 % 1018,1 hPa 0,0 l/m 20,3 km/h (4 Bft) O-NO 65 1 min 0,000 mm 2,3 UV-I 605 W/m 9,7 C 8,8 C 25,7 km/h (4 Bft) 100,00 %
06.05.2016 09:54 14,3 C 75 % 1018,1 hPa 0,0 l/m 20,5 km/h (4 Bft) O-NO 57 1 min 0,000 mm 2,3 UV-I 606 W/m 9,9 C 8,7 C 27,4 km/h (4 Bft) 100,00 %
06.05.2016 09:55 14,3 C 75 % 1018,1 hPa 0,0 l/m 20,0 km/h (4 Bft) O-NO 57 1 min 0,000 mm 2,3 UV-I 609 W/m 9,9 C 8,8 C 25,7 km/h (4 Bft) 100,00 %
06.05.2016 09:56 14,3 C 74 % 1018,2 hPa 0,0 l/m 18,4 km/h (3 Bft) NO 52 1 min 0,000 mm 2,3 UV-I 612 W/m 9,7 C 9,3 C 24,1 km/h (4 Bft) 100,00 %
06.05.2016 09:57 14,3 C 76 % 1018,1 hPa 0,0 l/m 15,8 km/h (3 Bft) NO 51 1 min 0,000 mm 2,3 UV-I 615 W/m 10,1 C 10,1 C 19,3 km/h (3 Bft) 100,00 %
06.05.2016 09:58 14,3 C 75 % 1018,2 hPa 0,0 l/m 17,5 km/h (3 Bft) NO 45 1 min 0,000 mm 2,4 UV-I 616 W/m 9,9 C 9,5 C 22,5 km/h (4 Bft) 100,00 %
06.05.2016 09:59 14,3 C 75 % 1018,2 hPa 0,0 l/m 12,5 km/h (3 Bft) NO 55 1 min 0,000 mm 2,4 UV-I 617 W/m 9,9 C 11,3 C 20,9 km/h (4 Bft) 95,83 %
06.05.2016 10:00 14,4 C 75 % 1018,2 hPa 0,0 l/m 19,4 km/h (3 Bft) NO 56 1 min 0,000 mm 2,4 UV-I 618 W/m 10,0 C 9,1 C 24,1 km/h (4 Bft) 100,00 %
06.05.2016 10:01 14,4 C 75 % 1018,2 hPa 0,0 l/m 17,9 km/h (3 Bft) NO 50 1 min 0,330 mm 2,4 UV-I 621 W/m 10,0 C 9,6 C 22,5 km/h (4 Bft) 100,00 %
06.05.2016 10:02 14,4 C 75 % 1018,1 hPa 0,0 l/m 21,9 km/h (4 Bft) O-NO 57 1 min 0,000 mm 2,4 UV-I 624 W/m 10,0 C 8,5 C 29,0 km/h (5 Bft) 95,83 %
06.05.2016 10:03 14,4 C 73 % 1018,2 hPa 0,0 l/m 19,3 km/h (3 Bft) O-NO 67 1 min 0,000 mm 2,5 UV-I 626 W/m 9,6 C 9,2 C 25,7 km/h (4 Bft) 100,00 %
06.05.2016 10:04 14,5 C 73 % 1018,2 hPa 0,0 l/m 19,8 km/h (3 Bft) NO 51 1 min 0,000 mm 2,5 UV-I 627 W/m 9,7 C 9,2 C 24,1 km/h (4 Bft) 100,00 %
06.05.2016 10:05 14,6 C 75 % 1018,1 hPa 0,0 l/m 17,5 km/h (3 Bft) NO 41 1 min 0,000 mm 2,5 UV-I 629 W/m 10,2 C 9,9 C 24,1 km/h (4 Bft) 100,00 %
06.05.2016 10:06 14,6 C 74 % 1018,1 hPa 0,0 l/m 19,4 km/h (3 Bft) NO 36 1 min 0,000 mm 2,5 UV-I 631 W/m 10,0 C 9,4 C 24,1 km/h (4 Bft) 100,00 %
06.05.2016 10:07 14,6 C 74 % 1018,2 hPa 0,0 l/m 17,8 km/h (3 Bft) O-NO 64 1 min 0,000 mm 2,5 UV-I 636 W/m 10,0 C 9,8 C 24,1 km/h (4 Bft) 100,00 %
06.05.2016 10:08 14,6 C 73 % 1018,2 hPa 0,0 l/m 16,3 km/h (3 Bft) O-NO 60 1 min 0,000 mm 2,6 UV-I 638 W/m 9,8 C 10,3 C 20,9 km/h (4 Bft) 100,00 %
06.05.2016 10:09 14,6 C 73 % 1018,1 hPa 0,0 l/m 12,4 km/h (3 Bft) O-NO 67 1 min 0,000 mm 2,6 UV-I 641 W/m 9,8 C 11,7 C 17,7 km/h (3 Bft) 95,65 %
06.05.2016 10:10 14,7 C 75 % 1018,1 hPa 0,0 l/m 9,7 km/h (2 Bft) NO 47 1 min 0,000 mm 2,6 UV-I 644 W/m 10,3 C 12,9 C 14,5 km/h (3 Bft) 100,00 %
06.05.2016 10:11 14,8 C 75 % 1018,1 hPa 0,0 l/m 12,5 km/h (3 Bft) NO 48 1 min 0,000 mm 2,6 UV-I 647 W/m 10,4 C 11,8 C 19,3 km/h (3 Bft) 100,00 %
06.05.2016 10:12 14,9 C 74 % 1018,1 hPa 0,0 l/m 13,9 km/h (3 Bft) NO 36 1 min 0,000 mm 2,7 UV-I 650 W/m 10,3 C 11,4 C 17,7 km/h (3 Bft) 100,00 %
06.05.2016 10:13 14,9 C 76 % 1018,1 hPa 0,0 l/m 16,5 km/h (3 Bft) NO 55 1 min 0,000 mm 2,7 UV-I 651 W/m 10,7 C 10,6 C 20,9 km/h (4 Bft) 100,00 %
06.05.2016 10:14 15,0 C 74 % 1018,1 hPa 0,0 l/m 17,7 km/h (3 Bft) O-NO 61 1 min 0,000 mm 2,7 UV-I 652 W/m 10,4 C 10,4 C 22,5 km/h (4 Bft) 100,00 %
06.05.2016 10:15 15,0 C 73 % 1018,1 hPa 0,0 l/m 13,4 km/h (3 Bft) O-NO 63 1 min 0,000 mm 2,7 UV-I 651 W/m 10,2 C 11,7 C 19,3 km/h (3 Bft) 95,65 %
06.05.2016 10:16 15,0 C 73 % 1018,0 hPa 0,0 l/m 17,5 km/h (3 Bft) N-NO 32 1 min 0,000 mm 2,7 UV-I 655 W/m 10,2 C 10,4 C 25,7 km/h (4 Bft) 100,00 %
06.05.2016 10:17 15,0 C 73 % 1018,0 hPa 0,0 l/m 13,2 km/h (3 Bft) O-NO 65 1 min 0,000 mm 2,7 UV-I 657 W/m 10,2 C 11,8 C 20,9 km/h (4 Bft) 100,00 %
06.05.2016 10:18 14,9 C 73 % 1018,1 hPa 0,0 l/m 16,2 km/h (3 Bft) NO 45 1 min 0,000 mm 2,8 UV-I 659 W/m 10,1 C 10,7 C 22,5 km/h (4 Bft) 96,55 %
06.05.2016 10:19 14,9 C 73 % 1018,0 hPa 0,0 l/m 9,4 km/h (2 Bft) O-NO 65 1 min 0,000 mm 2,8 UV-I 660 W/m 10,1 C 13,3 C 12,9 km/h (3 Bft) 100,00 %
06.05.2016 10:20 15,0 C 74 % 1018,0 hPa 0,0 l/m 13,3 km/h (3 Bft) NO 39 1 min 0,000 mm 2,8 UV-I 662 W/m 10,4 C 11,8 C 17,7 km/h (3 Bft) 100,00 %
06.05.2016 10:21 15,1 C 75 % 1018,0 hPa 0,0 l/m 15,6 km/h (3 Bft) O-NO 64 1 min 0,000 mm 2,8 UV-I 667 W/m 10,7 C 11,1 C 22,5 km/h (4 Bft) 100,00 %
06.05.2016 10:22 15,2 C 74 % 1018,0 hPa 0,0 l/m 15,3 km/h (3 Bft) NO 56 1 min 0,000 mm 2,8 UV-I 668 W/m 10,6 C 11,3 C 19,3 km/h (3 Bft) 95,65 %
06.05.2016 10:23 15,2 C 75 % 1018,0 hPa 0,0 l/m 12,9 km/h (3 Bft) NO 42 1 min 0,000 mm 2,8 UV-I 668 W/m 10,8 C 12,2 C 17,7 km/h (3 Bft) 100,00 %
06.05.2016 10:24 15,2 C 74 % 1018,1 hPa 0,0 l/m 13,7 km/h (3 Bft) O-NO 57 1 min 0,000 mm 2,9 UV-I 671 W/m 10,6 C 11,9 C 17,7 km/h (3 Bft) 100,00 %
06.05.2016 10:25 15,3 C 74 % 1018,0 hPa 0,0 l/m 15,1 km/h (3 Bft) O-NO 63 1 min 0,000 mm 2,9 UV-I 676 W/m 10,7 C 11,5 C 19,3 km/h (3 Bft) 100,00 %
06.05.2016 10:26 15,3 C 74 % 1018,0 hPa 0,0 l/m 16,8 km/h (3 Bft) O-NO 65 1 min 0,000 mm 2,9 UV-I 678 W/m 10,7 C 11,0 C 19,3 km/h (3 Bft) 95,65 %
06.05.2016 10:27 15,3 C 73 % 1018,0 hPa 0,0 l/m 16,9 km/h (3 Bft) O-NO 67 1 min 0,000 mm 2,9 UV-I 680 W/m 10,5 C 11,0 C 24,1 km/h (4 Bft) 100,00 %
06.05.2016 10:28 15,2 C 73 % 1018,0 hPa 0,0 l/m 13,7 km/h (3 Bft) O 88 1 min 0,000 mm 3,0 UV-I 682 W/m 10,4 C 11,9 C 17,7 km/h (3 Bft) 95,65 %
06.05.2016 10:29 15,3 C 75 % 1018,0 hPa 0,0 l/m 11,1 km/h (2 Bft) O-NO 57 1 min 0,000 mm 3,0 UV-I 687 W/m 10,9 C 13,0 C 17,7 km/h (3 Bft) 95,83 %
06.05.2016 10:30 15,3 C 74 % 1018,0 hPa 0,0 l/m 16,0 km/h (3 Bft) O-NO 58 1 min 0,000 mm 3,0 UV-I 688 W/m 10,7 C 11,2 C 22,5 km/h (4 Bft) 100,00 %
06.05.2016 10:31 15,3 C 73 % 1018,0 hPa 0,0 l/m 13,6 km/h (3 Bft) O-NO 58 1 min 0,000 mm 3,0 UV-I 689 W/m 10,5 C 12,0 C 17,7 km/h (3 Bft) 100,00 %
06.05.2016 10:32 15,3 C 73 % 1018,0 hPa 0,0 l/m 17,2 km/h (3 Bft) O-NO 67 1 min 0,000 mm 3,0 UV-I 692 W/m 10,5 C 10,9 C 25,7 km/h (4 Bft) 100,00 %
06.05.2016 10:33 15,4 C 73 % 1018,0 hPa 0,0 l/m 18,7 km/h (3 Bft) O-NO 60 1 min 0,000 mm 3,1 UV-I 693 W/m 10,6 C 10,6 C 24,1 km/h (4 Bft) 100,00 %
06.05.2016 10:34 15,4 C 72 % 1018,0 hPa 0,0 l/m 19,1 km/h (3 Bft) NO 54 1 min 0,000 mm 3,1 UV-I 696 W/m 10,4 C 10,5 C 22,5 km/h (4 Bft) 100,00 %
06.05.2016 10:35 15,4 C 72 % 1018,0 hPa 0,0 l/m 20,3 km/h (4 Bft) O-NO 61 1 min 0,000 mm 3,1 UV-I 700 W/m 10,4 C 10,2 C 24,1 km/h (4 Bft) 100,00 %
06.05.2016 10:36 15,4 C 71 % 1018,0 hPa 0,0 l/m 13,7 km/h (3 Bft) O 81 1 min 0,000 mm 3,1 UV-I 700 W/m 10,2 C 12,1 C 20,9 km/h (4 Bft) 100,00 %
06.05.2016 10:37 15,5 C 72 % 1018,0 hPa 0,0 l/m 18,0 km/h (3 Bft) O-NO 58 1 min 0,000 mm 3,1 UV-I 701 W/m 10,5 C 10,9 C 24,1 km/h (4 Bft) 100,00 %
06.05.2016 10:38 15,6 C 71 % 1018,0 hPa 0,0 l/m 19,8 km/h (3 Bft) O 95 1 min 0,000 mm 3,1 UV-I 701 W/m 10,4 C 10,6 C 24,1 km/h (4 Bft) 100,00 %
06.05.2016 10:39 15,6 C 72 % 1018,0 hPa 0,0 l/m 19,9 km/h (4 Bft) O-NO 63 1 min 0,000 mm 3,2 UV-I 705 W/m 10,6 C 10,5 C 24,1 km/h (4 Bft) 100,00 %
06.05.2016 10:40 15,6 C 71 % 1018,0 hPa 0,0 l/m 15,2 km/h (3 Bft) O-NO 63 1 min 0,000 mm 3,2 UV-I 707 W/m 10,4 C 11,9 C 20,9 km/h (4 Bft) 100,00 %
06.05.2016 10:41 15,6 C 70 % 1018,0 hPa 0,0 l/m 19,6 km/h (3 Bft) O-NO 78 1 min 0,000 mm 3,2 UV-I 709 W/m 10,1 C 10,6 C 27,4 km/h (4 Bft) 100,00 %
06.05.2016 10:42 15,6 C 69 % 1018,0 hPa 0,0 l/m 21,2 km/h (4 Bft) O-NO 74 1 min 0,000 mm 3,2 UV-I 713 W/m 9,9 C 10,2 C 25,7 km/h (4 Bft) 95,83 %
06.05.2016 10:43 15,6 C 70 % 1018,0 hPa 0,0 l/m 19,0 km/h (3 Bft) NO 42 1 min 0,000 mm 3,2 UV-I 714 W/m 10,1 C 10,8 C 25,7 km/h (4 Bft) 100,00 %
06.05.2016 10:44 15,6 C 71 % 1018,0 hPa 0,0 l/m 19,0 km/h (3 Bft) O-NO 73 1 min 0,000 mm 3,2 UV-I 716 W/m 10,4 C 10,8 C 22,5 km/h (4 Bft) 100,00 %
06.05.2016 10:45 15,6 C 70 % 1017,9 hPa 0,0 l/m 17,0 km/h (3 Bft) O-NO 59 1 min 0,000 mm 3,3 UV-I 717 W/m 10,1 C 11,3 C 24,1 km/h (4 Bft) 100,00 %
06.05.2016 10:46 15,6 C 72 % 1017,9 hPa 0,0 l/m 16,3 km/h (3 Bft) O-NO 74 1 min 0,000 mm 3,3 UV-I 720 W/m 10,6 C 11,5 C 22,5 km/h (4 Bft) 100,00 %
06.05.2016 10:47 15,7 C 70 % 1017,9 hPa 0,0 l/m 18,2 km/h (3 Bft) NO 49 1 min 0,000 mm 3,3 UV-I 722 W/m 10,2 C 11,1 C 22,5 km/h (4 Bft) 100,00 %
06.05.2016 10:48 15,7 C 70 % 1017,9 hPa 0,0 l/m 14,6 km/h (3 Bft) NO 48 1 min 0,000 mm 3,3 UV-I 724 W/m 10,2 C 12,2 C 20,9 km/h (4 Bft) 87,50 %
06.05.2016 10:49 15,8 C 70 % 1017,9 hPa 0,0 l/m 14,8 km/h (3 Bft) NO 40 1 min 0,000 mm 3,3 UV-I 724 W/m 10,3 C 12,2 C 24,1 km/h (4 Bft) 85,71 %
06.05.2016 10:50 15,8 C 71 % 1017,9 hPa 0,0 l/m 15,9 km/h (3 Bft) NO 54 1 min 0,000 mm 3,3 UV-I 724 W/m 10,6 C 11,9 C 22,5 km/h (4 Bft) 83,33 %
06.05.2016 10:51 15,8 C 71 % 1017,9 hPa 0,0 l/m 15,4 km/h (3 Bft) O-NO 78 1 min 0,000 mm 3,4 UV-I 727 W/m 10,6 C 12,0 C 19,3 km/h (3 Bft) 69,57 %
06.05.2016 10:52 15,9 C 71 % 1017,9 hPa 0,0 l/m 18,9 km/h (3 Bft) O-NO 59 1 min 0,000 mm 3,4 UV-I 728 W/m 10,6 C 11,2 C 22,5 km/h (4 Bft) 75,00 %
06.05.2016 10:53 15,9 C 70 % 1017,9 hPa 0,0 l/m 16,7 km/h (3 Bft) O-NO 68 1 min 0,000 mm 3,4 UV-I 729 W/m 10,4 C 11,8 C 22,5 km/h (4 Bft) 100,00 %
06.05.2016 10:54 15,9 C 71 % 1017,9 hPa 0,0 l/m 15,4 km/h (3 Bft) NO 40 1 min 0,000 mm 3,4 UV-I 732 W/m 10,6 C 12,2 C 20,9 km/h (4 Bft) 66,67 %
06.05.2016 10:55 15,9 C 70 % 1017,9 hPa 0,0 l/m 20,3 km/h (4 Bft) O-NO 77 1 min 0,000 mm 3,4 UV-I 736 W/m 10,4 C 10,8 C 25,7 km/h (4 Bft) 91,67 %
06.05.2016 10:56 15,9 C 70 % 1017,9 hPa 0,0 l/m 17,3 km/h (3 Bft) NO 43 1 min 0,000 mm 3,4 UV-I 738 W/m 10,4 C 11,6 C 19,3 km/h (3 Bft) 73,91 %
06.05.2016 10:57 16,0 C 70 % 1017,8 hPa 0,0 l/m 19,0 km/h (3 Bft) NO 36 1 min 0,000 mm 3,5 UV-I 741 W/m 10,5 C 11,3 C 24,1 km/h (4 Bft) 95,83 %
06.05.2016 10:58 16,0 C 70 % 1017,9 hPa 0,0 l/m 17,1 km/h (3 Bft) O-NO 62 1 min 0,000 mm 3,5 UV-I 742 W/m 10,5 C 11,8 C 22,5 km/h (4 Bft) 84,62 %
06.05.2016 10:59 16,1 C 71 % 1017,9 hPa 0,0 l/m 16,0 km/h (3 Bft) O-NO 68 1 min 0,000 mm 3,5 UV-I 742 W/m 10,8 C 12,2 C 24,1 km/h (4 Bft) 75,00 %
06.05.2016 11:00 16,1 C 72 % 1017,9 hPa 0,0 l/m 14,7 km/h (3 Bft) N-NO 18 1 min 0,406 mm 3,5 UV-I 744 W/m 11,0 C 12,6 C 19,3 km/h (3 Bft) 82,61 %
06.05.2016 11:01 16,2 C 73 % 1017,8 hPa 0,0 l/m 15,2 km/h (3 Bft) N 5 1 min 0,000 mm 3,3 UV-I 745 W/m 11,4 C 12,6 C 20,9 km/h (4 Bft) 91,67 %
06.05.2016 11:02 16,3 C 73 % 1017,9 hPa 0,0 l/m 18,1 km/h (3 Bft) NO 40 1 min 0,000 mm 3,3 UV-I 745 W/m 11,4 C 11,9 C 27,4 km/h (4 Bft) 82,61 %
06.05.2016 11:03 16,3 C 71 % 1017,8 hPa 0,0 l/m 16,0 km/h (3 Bft) NO 54 1 min 0,000 mm 3,6 UV-I 750 W/m 11,0 C 12,5 C 20,9 km/h (4 Bft) 83,33 %
06.05.2016 11:04 16,4 C 74 % 1017,8 hPa 0,0 l/m 16,5 km/h (3 Bft) N-NO 24 1 min 0,000 mm 3,6 UV-I 751 W/m 11,8 C 12,5 C 19,3 km/h (3 Bft) 82,61 %
06.05.2016 11:05 16,5 C 73 % 1017,9 hPa 0,0 l/m 16,2 km/h (3 Bft) O-NO 74 1 min 0,000 mm 3,6 UV-I 750 W/m 11,6 C 12,7 C 19,3 km/h (3 Bft) 83,33 %
06.05.2016 11:06 16,6 C 71 % 1017,8 hPa 0,0 l/m 11,6 km/h (2 Bft) O-NO 64 1 min 0,000 mm 3,6 UV-I 753 W/m 11,3 C 14,3 C 14,5 km/h (3 Bft) 73,91 %
06.05.2016 11:07 16,6 C 72 % 1017,8 hPa 0,0 l/m 14,0 km/h (3 Bft) O-NO 63 1 min 0,000 mm 3,7 UV-I 756 W/m 11,5 C 13,4 C 17,7 km/h (3 Bft) 88,89 %
06.05.2016 11:08 16,7 C 69 % 1017,8 hPa 0,0 l/m 14,7 km/h (3 Bft) NO 50 1 min 0,000 mm 3,7 UV-I 756 W/m 11,0 C 13,3 C 24,1 km/h (4 Bft) 73,91 %
06.05.2016 11:09 16,7 C 67 % 1017,9 hPa 0,0 l/m 15,4 km/h (3 Bft) NO 36 1 min 0,000 mm 3,7 UV-I 756 W/m 10,5 C 13,1 C 22,5 km/h (4 Bft) 86,67 %
06.05.2016 11:10 16,6 C 68 % 1017,8 hPa 0,0 l/m 17,7 km/h (3 Bft) NO 47 1 min 0,000 mm 3,7 UV-I 756 W/m 10,7 C 12,4 C 22,5 km/h (4 Bft) 87,50 %
06.05.2016 11:11 16,6 C 70 % 1017,9 hPa 0,0 l/m 18,2 km/h (3 Bft) NO 41 1 min 0,000 mm 3,7 UV-I 757 W/m 11,1 C 12,2 C 22,5 km/h (4 Bft) 86,96 %
06.05.2016 11:12 16,6 C 68 % 1017,8 hPa 0,0 l/m 17,2 km/h (3 Bft) O-NO 63 1 min 0,000 mm 3,7 UV-I 756 W/m 10,7 C 12,5 C 20,9 km/h (4 Bft) 87,50 %
06.05.2016 11:13 16,6 C 67 % 1017,8 hPa 0,0 l/m 15,9 km/h (3 Bft) O-NO 59 1 min 0,000 mm 3,8 UV-I 764 W/m 10,4 C 12,9 C 24,1 km/h (4 Bft) 92,00 %
06.05.2016 11:14 16,6 C 69 % 1017,8 hPa 0,0 l/m 15,9 km/h (3 Bft) O-NO 67 1 min 0,000 mm 3,8 UV-I 765 W/m 10,9 C 12,9 C 19,3 km/h (3 Bft) 91,67 %
06.05.2016 11:15 16,7 C 69 % 1017,8 hPa 0,0 l/m 17,0 km/h (3 Bft) NO 56 1 min 0,000 mm 3,8 UV-I 765 W/m 11,0 C 12,7 C 19,3 km/h (3 Bft) 88,46 %
06.05.2016 11:16 16,7 C 71 % 1017,8 hPa 0,0 l/m 19,3 km/h (3 Bft) NO 44 1 min 0,000 mm 3,8 UV-I 766 W/m 11,4 C 12,1 C 27,4 km/h (4 Bft) 83,33 %
06.05.2016 11:17 16,7 C 68 % 1017,8 hPa 0,0 l/m 21,3 km/h (4 Bft) NO 36 1 min 0,000 mm 3,8 UV-I 769 W/m 10,8 C 11,7 C 27,4 km/h (4 Bft) 91,30 %
06.05.2016 11:18 16,8 C 70 % 1017,7 hPa 0,0 l/m 17,5 km/h (3 Bft) O-NO 66 1 min 0,000 mm 3,9 UV-I 772 W/m 11,3 C 12,7 C 25,7 km/h (4 Bft) 81,48 %
06.05.2016 11:19 16,7 C 67 % 1017,8 hPa 0,0 l/m 18,0 km/h (3 Bft) O 83 1 min 0,000 mm 3,9 UV-I 775 W/m 10,5 C 12,4 C 24,1 km/h (4 Bft) 86,96 %
06.05.2016 11:20 16,7 C 67 % 1017,8 hPa 0,0 l/m 15,2 km/h (3 Bft) NO 52 1 min 0,000 mm 3,9 UV-I 777 W/m 10,5 C 13,2 C 22,5 km/h (4 Bft) 70,83 %
06.05.2016 11:21 16,8 C 67 % 1017,8 hPa 0,0 l/m 19,5 km/h (3 Bft) O-NO 57 1 min 0,000 mm 3,9 UV-I 774 W/m 10,6 C 12,2 C 25,7 km/h (4 Bft) 69,57 %
06.05.2016 11:22 16,8 C 68 % 1017,8 hPa 0,0 l/m 14,5 km/h (3 Bft) O-NO 63 1 min 0,000 mm 3,9 UV-I 774 W/m 10,9 C 13,5 C 20,9 km/h (4 Bft) 79,17 %
06.05.2016 11:23 16,8 C 67 % 1017,8 hPa 0,0 l/m 15,5 km/h (3 Bft) O-NO 62 1 min 0,000 mm 3,9 UV-I 781 W/m 10,6 C 13,2 C 19,3 km/h (3 Bft) 82,61 %
06.05.2016 11:24 16,8 C 68 % 1017,7 hPa 0,0 l/m 15,7 km/h (3 Bft) NO 55 1 min 0,000 mm 3,8 UV-I 775 W/m 10,9 C 13,2 C 19,3 km/h (3 Bft) 83,33 %
06.05.2016 11:25 16,8 C 69 % 1017,7 hPa 0,0 l/m 15,4 km/h (3 Bft) NO 53 1 min 0,000 mm 3,6 UV-I 777 W/m 11,1 C 13,3 C 20,9 km/h (4 Bft) 91,30 %
06.05.2016 11:26 16,9 C 66 % 1017,7 hPa 0,0 l/m 17,7 km/h (3 Bft) NO 53 1 min 0,000 mm 4,0 UV-I 778 W/m 10,5 C 12,8 C 25,7 km/h (4 Bft) 87,50 %
06.05.2016 11:27 16,9 C 66 % 1017,7 hPa 0,0 l/m 12,3 km/h (3 Bft) NO 36 1 min 0,000 mm 4,0 UV-I 783 W/m 10,5 C 14,4 C 17,7 km/h (3 Bft) 65,22 %
06.05.2016 11:28 16,9 C 68 % 1017,7 hPa 0,0 l/m 18,7 km/h (3 Bft) NO 45 1 min 0,000 mm 4,0 UV-I 786 W/m 11,0 C 12,5 C 24,1 km/h (4 Bft) 79,17 %
06.05.2016 11:29 16,9 C 65 % 1017,7 hPa 0,0 l/m 17,5 km/h (3 Bft) NO 42 1 min 0,000 mm 4,0 UV-I 785 W/m 10,3 C 12,8 C 20,9 km/h (4 Bft) 82,61 %
06.05.2016 11:30 17,0 C 65 % 1017,7 hPa 0,0 l/m 16,5 km/h (3 Bft) NO 37 1 min 0,000 mm 4,0 UV-I 787 W/m 10,4 C 13,2 C 20,9 km/h (4 Bft) 70,83 %
06.05.2016 11:31 17,0 C 68 % 1017,7 hPa 0,0 l/m 18,4 km/h (3 Bft) NO 55 1 min 0,000 mm 4,0 UV-I 788 W/m 11,0 C 12,7 C 20,9 km/h (4 Bft) 93,33 %
06.05.2016 11:32 17,1 C 67 % 1017,7 hPa 0,0 l/m 15,1 km/h (3 Bft) N-NO 32 1 min 0,000 mm 4,1 UV-I 789 W/m 10,9 C 13,7 C 20,9 km/h (4 Bft) 82,61 %
06.05.2016 11:33 17,1 C 66 % 1017,6 hPa 0,0 l/m 17,2 km/h (3 Bft) NO 56 1 min 0,000 mm 4,1 UV-I 781 W/m 10,7 C 13,1 C 20,9 km/h (4 Bft) 87,50 %
06.05.2016 11:34 17,1 C 66 % 1017,7 hPa 0,0 l/m 13,9 km/h (3 Bft) N-NO 19 1 min 0,000 mm 4,1 UV-I 601 W/m 10,7 C 14,1 C 17,7 km/h (3 Bft) 78,26 %
06.05.2016 11:35 17,2 C 69 % 1017,6 hPa 0,0 l/m 16,0 km/h (3 Bft) N-NO 32 1 min 0,000 mm 4,1 UV-I 599 W/m 11,5 C 13,6 C 24,1 km/h (4 Bft) 95,83 %
06.05.2016 11:36 17,2 C 68 % 1017,7 hPa 0,0 l/m 15,6 km/h (3 Bft) NO 40 1 min 0,000 mm 4,1 UV-I 698 W/m 11,2 C 13,7 C 24,1 km/h (4 Bft) 95,65 %
06.05.2016 11:37 17,3 C 67 % 1017,6 hPa 0,0 l/m 13,3 km/h (3 Bft) O-NO 57 1 min 0,000 mm 4,2 UV-I 793 W/m 11,1 C 14,5 C 20,9 km/h (4 Bft) 95,83 %
06.05.2016 11:38 17,3 C 63 % 1017,6 hPa 0,0 l/m 23,1 km/h (4 Bft) NO 53 1 min 0,000 mm 4,2 UV-I 791 W/m 10,2 C 12,1 C 27,4 km/h (4 Bft) 91,67 %
06.05.2016 11:39 17,3 C 64 % 1017,6 hPa 0,0 l/m 16,6 km/h (3 Bft) O-NO 57 1 min 0,000 mm 4,2 UV-I 791 W/m 10,4 C 13,5 C 24,1 km/h (4 Bft) 95,65 %
06.05.2016 11:40 17,3 C 64 % 1017,6 hPa 0,0 l/m 14,8 km/h (3 Bft) O-NO 63 1 min 0,000 mm 4,2 UV-I 793 W/m 10,4 C 14,0 C 20,9 km/h (4 Bft) 91,67 %
06.05.2016 11:41 17,2 C 63 % 1017,6 hPa 0,0 l/m 16,9 km/h (3 Bft) O-NO 57 1 min 0,000 mm 4,2 UV-I 800 W/m 10,1 C 13,3 C 22,5 km/h (4 Bft) 100,00 %
06.05.2016 11:45 17,3 C 66 % 1017,5 hPa 0,0 l/m 15,9 km/h (3 Bft) O-NO 59 4 min 0,000 mm 4,2 UV-I 799 W/m 10,9 C 13,7 C 20,9 km/h (4 Bft) 98,94 %
06.05.2016 11:46 17,4 C 64 % 1017,6 hPa 0,0 l/m 17,3 km/h (3 Bft) NO 46 1 min 0,000 mm 4,3 UV-I 804 W/m 10,5 C 13,5 C 20,9 km/h (4 Bft) 100,00 %
06.05.2016 11:47 17,4 C 62 % 1017,6 hPa 0,0 l/m 18,9 km/h (3 Bft) O-NO 65 1 min 0,000 mm 4,3 UV-I 808 W/m 10,0 C 13,1 C 25,7 km/h (4 Bft) 100,00 %
06.05.2016 11:48 17,5 C 62 % 1017,5 hPa 0,0 l/m 17,7 km/h (3 Bft) O-NO 64 1 min 0,000 mm 4,3 UV-I 811 W/m 10,1 C 13,5 C 24,1 km/h (4 Bft) 100,00 %
06.05.2016 11:49 17,5 C 63 % 1017,5 hPa 0,0 l/m 13,5 km/h (3 Bft) N-NO 31 1 min 0,000 mm 4,3 UV-I 812 W/m 10,4 C 14,7 C 19,3 km/h (3 Bft) 100,00 %
06.05.2016 11:50 17,6 C 66 % 1017,5 hPa 0,0 l/m 21,2 km/h (4 Bft) O-NO 57 1 min 0,000 mm 4,3 UV-I 810 W/m 11,2 C 12,9 C 25,7 km/h (4 Bft) 100,00 %
06.05.2016 11:51 17,6 C 66 % 1017,5 hPa 0,0 l/m 19,8 km/h (3 Bft) NO 45 1 min 0,000 mm 4,4 UV-I 812 W/m 11,2 C 13,1 C 27,4 km/h (4 Bft) 95,65 %
06.05.2016 11:52 17,7 C 64 % 1017,5 hPa 0,0 l/m 13,8 km/h (3 Bft) NO 50 1 min 0,000 mm 4,4 UV-I 810 W/m 10,8 C 14,8 C 20,9 km/h (4 Bft) 100,00 %
06.05.2016 11:53 17,7 C 63 % 1017,5 hPa 0,0 l/m 16,7 km/h (3 Bft) N-NO 25 1 min 0,000 mm 4,4 UV-I 804 W/m 10,6 C 14,0 C 22,5 km/h (4 Bft) 95,65 %
06.05.2016 11:54 17,7 C 63 % 1017,5 hPa 0,0 l/m 17,5 km/h (3 Bft) NO 37 1 min 0,000 mm 4,4 UV-I 817 W/m 10,6 C 13,8 C 25,7 km/h (4 Bft) 93,33 %
06.05.2016 11:55 17,7 C 66 % 1017,5 hPa 0,0 l/m 16,2 km/h (3 Bft) O-NO 63 1 min 0,000 mm 4,5 UV-I 820 W/m 11,3 C 14,1 C 20,9 km/h (4 Bft) 100,00 %
06.05.2016 11:56 17,7 C 62 % 1017,5 hPa 0,0 l/m 16,4 km/h (3 Bft) NO 56 1 min 0,000 mm 4,5 UV-I 821 W/m 10,3 C 14,1 C 22,5 km/h (4 Bft) 100,00 %
06.05.2016 11:57 17,7 C 63 % 1017,5 hPa 0,0 l/m 9,7 km/h (2 Bft) NO 56 1 min 0,000 mm 4,5 UV-I 823 W/m 10,6 C 16,2 C 16,1 km/h (3 Bft) 100,00 %
06.05.2016 11:58 17,8 C 64 % 1017,5 hPa 0,0 l/m 14,8 km/h (3 Bft) O-NO 61 1 min 0,000 mm 4,5 UV-I 823 W/m 10,9 C 14,6 C 25,7 km/h (4 Bft) 92,31 %
06.05.2016 11:59 17,8 C 62 % 1017,5 hPa 0,0 l/m 23,2 km/h (4 Bft) O-NO 67 1 min 0,000 mm 4,5 UV-I 823 W/m 10,4 C 12,7 C 29,0 km/h (5 Bft) 100,00 %
06.05.2016 12:00 17,8 C 60 % 1017,5 hPa 0,0 l/m 19,0 km/h (3 Bft) O-NO 65 1 min 0,000 mm 4,5 UV-I 823 W/m 9,9 C 13,6 C 27,4 km/h (4 Bft) 95,65 %
06.05.2016 12:01 17,8 C 61 % 1017,5 hPa 0,0 l/m 19,1 km/h (3 Bft) NO 56 1 min 0,483 mm 4,5 UV-I 825 W/m 10,2 C 13,6 C 27,4 km/h (4 Bft) 100,00 %
06.05.2016 12:02 17,9 C 63 % 1017,5 hPa 0,0 l/m 15,0 km/h (3 Bft) NO 38 1 min 0,000 mm 4,5 UV-I 823 W/m 10,8 C 14,7 C 19,3 km/h (3 Bft) 100,00 %
06.05.2016 12:03 17,9 C 61 % 1017,5 hPa 0,0 l/m 20,5 km/h (4 Bft) O-NO 62 1 min 0,000 mm 4,5 UV-I 821 W/m 10,3 C 13,4 C 27,4 km/h (4 Bft) 100,00 %
06.05.2016 12:04 17,9 C 62 % 1017,4 hPa 0,0 l/m 23,7 km/h (4 Bft) O-NO 70 1 min 0,000 mm 4,5 UV-I 816 W/m 10,5 C 12,8 C 27,4 km/h (4 Bft) 100,00 %
06.05.2016 12:05 17,9 C 60 % 1017,4 hPa 0,0 l/m 23,0 km/h (4 Bft) O-NO 57 1 min 0,000 mm 4,5 UV-I 824 W/m 10,0 C 12,9 C 35,4 km/h (5 Bft) 100,00 %
06.05.2016 12:06 17,9 C 60 % 1017,4 hPa 0,0 l/m 18,5 km/h (3 Bft) NO 55 1 min 0,000 mm 4,5 UV-I 826 W/m 10,0 C 13,8 C 25,7 km/h (4 Bft) 100,00 %
06.05.2016 12:07 17,9 C 59 % 1017,4 hPa 0,0 l/m 24,9 km/h (4 Bft) NO 56 1 min 0,000 mm 4,6 UV-I 829 W/m 9,8 C 12,6 C 29,0 km/h (5 Bft) 100,00 %
06.05.2016 12:08 17,8 C 59 % 1017,4 hPa 0,0 l/m 17,3 km/h (3 Bft) O-NO 61 1 min 0,000 mm 4,6 UV-I 830 W/m 9,7 C 14,0 C 20,9 km/h (4 Bft) 93,33 %
06.05.2016 12:09 17,9 C 60 % 1017,4 hPa 0,0 l/m 15,0 km/h (3 Bft) O 84 1 min 0,000 mm 4,6 UV-I 831 W/m 10,0 C 14,7 C 20,9 km/h (4 Bft) 100,00 %
06.05.2016 12:10 17,9 C 61 % 1017,4 hPa 0,0 l/m 18,0 km/h (3 Bft) NO 36 1 min 0,000 mm 4,6 UV-I 832 W/m 10,3 C 13,9 C 24,1 km/h (4 Bft) 100,00 %
06.05.2016 12:11 17,9 C 59 % 1017,4 hPa 0,0 l/m 15,0 km/h (3 Bft) NO 55 1 min 0,000 mm 4,6 UV-I 833 W/m 9,8 C 14,7 C 19,3 km/h (3 Bft) 100,00 %
06.05.2016 12:12 18,0 C 64 % 1017,4 hPa 0,0 l/m 21,6 km/h (4 Bft) N-NO 28 1 min 0,000 mm 4,6 UV-I 834 W/m 11,1 C 13,3 C 29,0 km/h (5 Bft) 96,15 %
06.05.2016 12:13 18,1 C 62 % 1017,3 hPa 0,0 l/m 22,1 km/h (4 Bft) NO 42 1 min 0,000 mm 4,7 UV-I 837 W/m 10,7 C 13,3 C 29,0 km/h (5 Bft) 100,00 %
06.05.2016 12:14 18,2 C 60 % 1017,4 hPa 0,0 l/m 17,6 km/h (3 Bft) NO 44 1 min 0,000 mm 4,7 UV-I 837 W/m 10,3 C 14,4 C 22,5 km/h (4 Bft) 100,00 %
06.05.2016 12:15 18,1 C 59 % 1017,3 hPa 0,0 l/m 19,4 km/h (3 Bft) O-NO 67 1 min 0,000 mm 4,7 UV-I 835 W/m 10,0 C 13,9 C 24,1 km/h (4 Bft) 95,83 %
06.05.2016 12:16 18,1 C 60 % 1017,4 hPa 0,0 l/m 19,9 km/h (4 Bft) O-NO 66 1 min 0,000 mm 4,6 UV-I 835 W/m 10,2 C 13,8 C 27,4 km/h (4 Bft) 100,00 %
06.05.2016 12:17 18,2 C 62 % 1017,3 hPa 0,0 l/m 19,4 km/h (3 Bft) NO 53 1 min 0,000 mm 4,6 UV-I 835 W/m 10,8 C 14,0 C 29,0 km/h (5 Bft) 100,00 %
06.05.2016 12:18 18,2 C 61 % 1017,4 hPa 0,0 l/m 14,1 km/h (3 Bft) O-NO 63 1 min 0,000 mm 4,6 UV-I 836 W/m 10,6 C 15,3 C 19,3 km/h (3 Bft) 100,00 %
06.05.2016 12:19 18,2 C 62 % 1017,4 hPa 0,0 l/m 12,5 km/h (3 Bft) O-NO 63 1 min 0,000 mm 4,3 UV-I 838 W/m 10,8 C 15,8 C 17,7 km/h (3 Bft) 100,00 %
06.05.2016 12:20 18,3 C 62 % 1017,3 hPa 0,0 l/m 17,5 km/h (3 Bft) O-NO 76 1 min 0,000 mm 4,5 UV-I 840 W/m 10,9 C 14,6 C 22,5 km/h (4 Bft) 100,00 %
06.05.2016 12:21 18,3 C 60 % 1017,3 hPa 0,0 l/m 14,6 km/h (3 Bft) NO 37 1 min 0,000 mm 4,7 UV-I 839 W/m 10,4 C 15,3 C 20,9 km/h (4 Bft) 100,00 %
06.05.2016 12:22 18,3 C 64 % 1017,3 hPa 0,0 l/m 13,1 km/h (3 Bft) O-NO 77 1 min 0,000 mm 4,6 UV-I 836 W/m 11,4 C 15,7 C 19,3 km/h (3 Bft) 95,83 %
06.05.2016 12:23 18,4 C 63 % 1017,3 hPa 0,0 l/m 10,6 km/h (2 Bft) O-NO 59 1 min 0,000 mm 4,7 UV-I 839 W/m 11,2 C 16,7 C 16,1 km/h (3 Bft) 100,00 %
06.05.2016 12:24 18,4 C 63 % 1017,3 hPa 0,0 l/m 13,4 km/h (3 Bft) O-NO 67 1 min 0,000 mm 4,7 UV-I 840 W/m 11,2 C 15,8 C 22,5 km/h (4 Bft) 100,00 %
06.05.2016 12:25 18,5 C 61 % 1017,3 hPa 0,0 l/m 15,4 km/h (3 Bft) N-NO 26 1 min 0,000 mm 4,7 UV-I 831 W/m 10,8 C 15,3 C 19,3 km/h (3 Bft) 92,86 %
06.05.2016 12:26 18,6 C 64 % 1017,3 hPa 0,0 l/m 20,0 km/h (4 Bft) N-NO 22 1 min 0,000 mm 4,7 UV-I 831 W/m 11,7 C 14,4 C 25,7 km/h (4 Bft) 100,00 %
06.05.2016 12:27 18,5 C 63 % 1017,3 hPa 0,0 l/m 13,5 km/h (3 Bft) NO 40 1 min 0,000 mm 4,7 UV-I 832 W/m 11,3 C 15,8 C 22,5 km/h (4 Bft) 95,65 %
06.05.2016 12:28 18,5 C 62 % 1017,3 hPa 0,0 l/m 19,0 km/h (3 Bft) NO 40 1 min 0,000 mm 4,8 UV-I 838 W/m 11,1 C 14,5 C 24,1 km/h (4 Bft) 100,00 %
06.05.2016 12:29 18,4 C 61 % 1017,3 hPa 0,0 l/m 14,7 km/h (3 Bft) NO 50 1 min 0,000 mm 4,8 UV-I 840 W/m 10,7 C 15,4 C 20,9 km/h (4 Bft) 100,00 %
06.05.2016 12:30 18,4 C 59 % 1017,3 hPa 0,0 l/m 15,2 km/h (3 Bft) O-NO 67 1 min 0,000 mm 4,8 UV-I 841 W/m 10,2 C 15,3 C 22,5 km/h (4 Bft) 100,00 %
06.05.2016 12:31 18,6 C 64 % 1017,3 hPa 0,0 l/m 9,7 km/h (2 Bft) N-NO 29 1 min 0,000 mm 4,8 UV-I 842 W/m 11,7 C 17,2 C 14,5 km/h (3 Bft) 100,00 %
06.05.2016 12:32 18,7 C 62 % 1017,3 hPa 0,0 l/m 9,9 km/h (2 Bft) O-NO 57 1 min 0,000 mm 4,9 UV-I 845 W/m 11,3 C 17,2 C 17,7 km/h (3 Bft) 100,00 %
06.05.2016 12:33 18,7 C 59 % 1017,3 hPa 0,0 l/m 12,4 km/h (3 Bft) NO 40 1 min 0,000 mm 4,9 UV-I 848 W/m 10,5 C 16,4 C 19,3 km/h (3 Bft) 100,00 %
06.05.2016 12:34 18,8 C 62 % 1017,3 hPa 0,0 l/m 17,1 km/h (3 Bft) NO 50 1 min 0,000 mm 4,9 UV-I 845 W/m 11,4 C 15,3 C 20,9 km/h (4 Bft) 100,00 %
06.05.2016 12:35 18,7 C 60 % 1017,2 hPa 0,0 l/m 16,2 km/h (3 Bft) NO 38 1 min 0,000 mm 4,8 UV-I 842 W/m 10,8 C 15,4 C 22,5 km/h (4 Bft) 95,65 %
06.05.2016 12:36 18,7 C 62 % 1017,2 hPa 0,0 l/m 12,5 km/h (3 Bft) NO 45 1 min 0,000 mm 4,8 UV-I 840 W/m 11,3 C 16,4 C 16,1 km/h (3 Bft) 100,00 %
06.05.2016 12:37 18,8 C 62 % 1017,2 hPa 0,0 l/m 10,5 km/h (2 Bft) NO 45 1 min 0,000 mm 4,1 UV-I 842 W/m 11,4 C 17,1 C 16,1 km/h (3 Bft) 95,83 %
06.05.2016 12:38 18,8 C 61 % 1017,2 hPa 0,0 l/m 12,1 km/h (2 Bft) N-NO 32 1 min 0,000 mm 4,7 UV-I 844 W/m 11,1 C 16,6 C 19,3 km/h (3 Bft) 100,00 %
06.05.2016 12:39 18,8 C 62 % 1017,2 hPa 0,0 l/m 19,2 km/h (3 Bft) N-NO 30 1 min 0,000 mm 4,9 UV-I 845 W/m 11,4 C 14,8 C 24,1 km/h (4 Bft) 100,00 %
06.05.2016 12:40 18,8 C 60 % 1017,2 hPa 0,0 l/m 17,6 km/h (3 Bft) NO 40 1 min 0,000 mm 4,9 UV-I 843 W/m 10,9 C 15,2 C 22,5 km/h (4 Bft) 100,00 %
06.05.2016 12:41 18,8 C 62 % 1017,2 hPa 0,0 l/m 17,2 km/h (3 Bft) NO 40 1 min 0,000 mm 4,8 UV-I 841 W/m 11,4 C 15,3 C 22,5 km/h (4 Bft) 100,00 %
06.05.2016 12:42 18,7 C 60 % 1017,2 hPa 0,0 l/m 16,6 km/h (3 Bft) NO 46 1 min 0,000 mm 4,9 UV-I 843 W/m 10,8 C 15,3 C 20,9 km/h (4 Bft) 100,00 %
06.05.2016 12:43 18,7 C 63 % 1017,2 hPa 0,0 l/m 18,1 km/h (3 Bft) O-NO 62 1 min 0,000 mm 4,9 UV-I 844 W/m 11,5 C 14,9 C 24,1 km/h (4 Bft) 100,00 %
06.05.2016 12:44 18,8 C 64 % 1017,2 hPa 0,0 l/m 18,2 km/h (3 Bft) NO 38 1 min 0,000 mm 4,9 UV-I 844 W/m 11,8 C 15,0 C 22,5 km/h (4 Bft) 91,30 %
06.05.2016 12:45 18,8 C 62 % 1017,1 hPa 0,0 l/m 19,4 km/h (3 Bft) O-NO 63 1 min 0,000 mm 4,9 UV-I 848 W/m 11,4 C 14,8 C 24,1 km/h (4 Bft) 100,00 %
06.05.2016 12:46 18,8 C 59 % 1017,1 hPa 0,0 l/m 14,5 km/h (3 Bft) N-NO 32 1 min 0,000 mm 4,9 UV-I 850 W/m 10,6 C 15,9 C 24,1 km/h (4 Bft) 95,65 %
06.05.2016 12:47 18,8 C 58 % 1017,1 hPa 0,0 l/m 18,0 km/h (3 Bft) NO 37 1 min 0,000 mm 4,9 UV-I 852 W/m 10,4 C 15,1 C 22,5 km/h (4 Bft) 100,00 %
06.05.2016 12:48 18,8 C 59 % 1017,1 hPa 0,0 l/m 13,6 km/h (3 Bft) NO 49 1 min 0,000 mm 4,9 UV-I 854 W/m 10,6 C 16,2 C 16,1 km/h (3 Bft) 95,65 %
06.05.2016 12:49 18,8 C 60 % 1017,0 hPa 0,0 l/m 14,9 km/h (3 Bft) O-NO 65 1 min 0,000 mm 4,9 UV-I 854 W/m 10,9 C 15,8 C 19,3 km/h (3 Bft) 100,00 %
06.05.2016 12:50 18,8 C 57 % 1017,0 hPa 0,0 l/m 18,8 km/h (3 Bft) NO 34 1 min 0,000 mm 4,9 UV-I 854 W/m 10,1 C 14,9 C 22,5 km/h (4 Bft) 91,30 %
06.05.2016 12:51 18,8 C 57 % 1017,0 hPa 0,0 l/m 18,1 km/h (3 Bft) NO 51 1 min 0,000 mm 4,9 UV-I 853 W/m 10,1 C 15,1 C 22,5 km/h (4 Bft) 100,00 %
06.05.2016 12:52 18,8 C 58 % 1017,0 hPa 0,0 l/m 17,0 km/h (3 Bft) O-NO 76 1 min 0,000 mm 4,9 UV-I 854 W/m 10,4 C 15,3 C 20,9 km/h (4 Bft) 95,65 %
06.05.2016 12:53 18,8 C 57 % 1017,0 hPa 0,0 l/m 18,1 km/h (3 Bft) O-NO 67 1 min 0,000 mm 4,9 UV-I 853 W/m 10,1 C 15,1 C 24,1 km/h (4 Bft) 95,83 %
06.05.2016 12:54 18,8 C 58 % 1017,0 hPa 0,0 l/m 16,8 km/h (3 Bft) N-NO 31 1 min 0,000 mm 4,9 UV-I 850 W/m 10,4 C 15,4 C 20,9 km/h (4 Bft) 100,00 %
06.05.2016 12:55 18,9 C 59 % 1016,9 hPa 0,0 l/m 12,7 km/h (3 Bft) O-NO 67 1 min 0,000 mm 4,9 UV-I 851 W/m 10,7 C 16,6 C 17,7 km/h (3 Bft) 95,65 %
06.05.2016 12:56 18,9 C 62 % 1016,9 hPa 0,0 l/m 13,6 km/h (3 Bft) NO 48 1 min 0,000 mm 4,9 UV-I 849 W/m 11,5 C 16,3 C 20,9 km/h (4 Bft) 100,00 %
06.05.2016 12:57 19,0 C 60 % 1016,9 hPa 0,0 l/m 16,7 km/h (3 Bft) O-NO 60 1 min 0,000 mm 4,9 UV-I 847 W/m 11,1 C 15,6 C 22,5 km/h (4 Bft) 100,00 %
06.05.2016 12:58 19,1 C 58 % 1016,9 hPa 0,0 l/m 16,1 km/h (3 Bft) NO 45 1 min 0,000 mm 4,9 UV-I 847 W/m 10,6 C 15,9 C 25,7 km/h (4 Bft) 100,00 %
06.05.2016 12:59 19,2 C 60 % 1016,9 hPa 0,0 l/m 18,8 km/h (3 Bft) NO 37 1 min 0,000 mm 4,9 UV-I 846 W/m 11,2 C 15,4 C 25,7 km/h (4 Bft) 96,15 %
06.05.2016 13:00 19,2 C 59 % 1016,9 hPa 0,0 l/m 17,7 km/h (3 Bft) NO 44 1 min 0,000 mm 4,9 UV-I 848 W/m 11,0 C 15,6 C 25,7 km/h (4 Bft) 100,00 %
06.05.2016 13:01 19,2 C 61 % 1016,9 hPa 0,0 l/m 13,8 km/h (3 Bft) N 11 1 min 0,559 mm 4,9 UV-I 851 W/m 11,5 C 16,6 C 19,3 km/h (3 Bft) 92,31 %
06.05.2016 13:02 19,2 C 62 % 1016,8 hPa 0,0 l/m 18,1 km/h (3 Bft) N-NO 13 1 min 0,000 mm 4,9 UV-I 849 W/m 11,7 C 15,6 C 24,1 km/h (4 Bft) 95,83 %
06.05.2016 13:03 19,2 C 63 % 1016,8 hPa 0,0 l/m 21,5 km/h (4 Bft) N-NO 25 1 min 0,000 mm 4,9 UV-I 847 W/m 12,0 C 14,9 C 29,0 km/h (5 Bft) 100,00 %
06.05.2016 13:04 19,2 C 62 % 1016,8 hPa 0,0 l/m 18,8 km/h (3 Bft) NO 41 1 min 0,000 mm 4,9 UV-I 846 W/m 11,7 C 15,4 C 25,7 km/h (4 Bft) 95,83 %
06.05.2016 13:05 19,1 C 60 % 1016,9 hPa 0,0 l/m 12,3 km/h (3 Bft) N-NO 30 1 min 0,000 mm 4,9 UV-I 846 W/m 11,1 C 16,9 C 19,3 km/h (3 Bft) 100,00 %
06.05.2016 13:06 19,2 C 63 % 1016,8 hPa 0,0 l/m 14,5 km/h (3 Bft) NO 47 1 min 0,000 mm 4,9 UV-I 848 W/m 12,0 C 16,4 C 19,3 km/h (3 Bft) 95,83 %
06.05.2016 13:07 19,2 C 59 % 1016,8 hPa 0,0 l/m 16,4 km/h (3 Bft) O-NO 67 1 min 0,000 mm 4,9 UV-I 835 W/m 11,0 C 15,9 C 20,9 km/h (4 Bft) 96,15 %
06.05.2016 13:08 19,3 C 57 % 1016,8 hPa 0,0 l/m 16,3 km/h (3 Bft) NO 46 1 min 0,000 mm 4,9 UV-I 691 W/m 10,6 C 16,1 C 22,5 km/h (4 Bft) 100,00 %
06.05.2016 13:09 19,3 C 58 % 1016,8 hPa 0,0 l/m 16,3 km/h (3 Bft) NO 38 1 min 0,000 mm 4,9 UV-I 739 W/m 10,8 C 16,1 C 20,9 km/h (4 Bft) 100,00 %
06.05.2016 13:10 19,3 C 57 % 1016,8 hPa 0,0 l/m 16,4 km/h (3 Bft) NO 48 1 min 0,000 mm 4,9 UV-I 846 W/m 10,6 C 16,1 C 20,9 km/h (4 Bft) 96,15 %
06.05.2016 13:11 19,2 C 57 % 1016,8 hPa 0,0 l/m 19,8 km/h (3 Bft) O-NO 59 1 min 0,000 mm 4,9 UV-I 846 W/m 10,5 C 15,2 C 27,4 km/h (4 Bft) 95,65 %
06.05.2016 13:12 19,2 C 57 % 1016,8 hPa 0,0 l/m 16,3 km/h (3 Bft) NO 55 1 min 0,000 mm 4,9 UV-I 846 W/m 10,5 C 16,0 C 20,9 km/h (4 Bft) 100,00 %
06.05.2016 13:13 19,2 C 57 % 1016,8 hPa 0,0 l/m 15,9 km/h (3 Bft) NO 44 1 min 0,000 mm 4,9 UV-I 850 W/m 10,5 C 16,1 C 20,9 km/h (4 Bft) 95,65 %
06.05.2016 13:14 19,3 C 59 % 1016,8 hPa 0,0 l/m 17,3 km/h (3 Bft) NO 55 1 min 0,000 mm 4,9 UV-I 846 W/m 11,1 C 15,9 C 22,5 km/h (4 Bft) 95,83 %
06.05.2016 13:15 19,3 C 59 % 1016,8 hPa 0,0 l/m 18,8 km/h (3 Bft) NO 54 1 min 0,000 mm 4,9 UV-I 857 W/m 11,1 C 15,5 C 24,1 km/h (4 Bft) 96,15 %
06.05.2016 13:16 19,3 C 56 % 1016,8 hPa 0,0 l/m 18,4 km/h (3 Bft) O-NO 74 1 min 0,000 mm 4,9 UV-I 858 W/m 10,3 C 15,6 C 22,5 km/h (4 Bft) 95,83 %
06.05.2016 13:17 19,3 C 58 % 1016,8 hPa 0,0 l/m 17,5 km/h (3 Bft) O-NO 72 1 min 0,000 mm 4,9 UV-I 857 W/m 10,8 C 15,8 C 24,1 km/h (4 Bft) 100,00 %
06.05.2016 13:18 19,4 C 58 % 1016,8 hPa 0,0 l/m 15,9 km/h (3 Bft) N-NO 26 1 min 0,000 mm 4,9 UV-I 854 W/m 10,9 C 16,3 C 19,3 km/h (3 Bft) 100,00 %
06.05.2016 13:19 19,5 C 60 % 1016,7 hPa 0,0 l/m 20,0 km/h (4 Bft) N-NO 30 1 min 0,000 mm 4,9 UV-I 854 W/m 11,5 C 15,6 C 27,4 km/h (4 Bft) 100,00 %
06.05.2016 13:20 19,6 C 59 % 1016,7 hPa 0,0 l/m 16,2 km/h (3 Bft) NO 37 1 min 0,000 mm 4,9 UV-I 854 W/m 11,4 C 16,5 C 19,3 km/h (3 Bft) 100,00 %
06.05.2016 13:21 19,6 C 58 % 1016,7 hPa 0,0 l/m 15,7 km/h (3 Bft) NO 51 1 min 0,000 mm 4,9 UV-I 826 W/m 11,1 C 16,6 C 22,5 km/h (4 Bft) 100,00 %
06.05.2016 13:22 19,6 C 56 % 1016,7 hPa 0,0 l/m 15,1 km/h (3 Bft) NO 38 1 min 0,000 mm 4,9 UV-I 745 W/m 10,6 C 16,7 C 20,9 km/h (4 Bft) 100,00 %
06.05.2016 13:23 19,7 C 56 % 1016,7 hPa 0,0 l/m 17,4 km/h (3 Bft) O 86 1 min 0,000 mm 4,9 UV-I 708 W/m 10,7 C 16,3 C 24,1 km/h (4 Bft) 100,00 %
06.05.2016 13:24 19,7 C 56 % 1016,7 hPa 0,0 l/m 21,7 km/h (4 Bft) O-NO 67 1 min 0,000 mm 4,9 UV-I 830 W/m 10,7 C 15,5 C 27,4 km/h (4 Bft) 100,00 %
06.05.2016 13:25 19,7 C 57 % 1016,7 hPa 0,0 l/m 19,0 km/h (3 Bft) O-NO 76 1 min 0,000 mm 4,9 UV-I 849 W/m 10,9 C 16,0 C 25,7 km/h (4 Bft) 96,30 %
06.05.2016 13:26 19,6 C 55 % 1016,7 hPa 0,0 l/m 13,9 km/h (3 Bft) O 95 1 min 0,000 mm 4,9 UV-I 851 W/m 10,3 C 17,0 C 20,9 km/h (4 Bft) 100,00 %
06.05.2016 13:27 19,6 C 55 % 1016,7 hPa 0,0 l/m 14,9 km/h (3 Bft) NO 44 1 min 0,000 mm 4,9 UV-I 850 W/m 10,3 C 16,8 C 24,1 km/h (4 Bft) 100,00 %
06.05.2016 13:28 19,7 C 55 % 1016,7 hPa 0,0 l/m 20,7 km/h (4 Bft) O 97 1 min 0,000 mm 4,9 UV-I 849 W/m 10,4 C 15,7 C 25,7 km/h (4 Bft) 96,15 %
06.05.2016 13:29 19,7 C 58 % 1016,7 hPa 0,0 l/m 16,4 km/h (3 Bft) O-NO 57 1 min 0,000 mm 4,9 UV-I 849 W/m 11,2 C 16,6 C 24,1 km/h (4 Bft) 100,00 %
06.05.2016 13:30 19,7 C 57 % 1016,7 hPa 0,0 l/m 19,9 km/h (4 Bft) O-NO 58 1 min 0,000 mm 4,9 UV-I 849 W/m 10,9 C 15,8 C 22,5 km/h (4 Bft) 95,65 %
06.05.2016 13:31 19,8 C 57 % 1016,6 hPa 0,0 l/m 16,5 km/h (3 Bft) NO 42 1 min 0,000 mm 4,9 UV-I 849 W/m 11,0 C 16,7 C 22,5 km/h (4 Bft) 100,00 %
06.05.2016 13:32 19,8 C 58 % 1016,6 hPa 0,0 l/m 16,4 km/h (3 Bft) NO 38 1 min 0,000 mm 4,9 UV-I 849 W/m 11,3 C 16,7 C 24,1 km/h (4 Bft) 100,00 %
06.05.2016 13:33 19,8 C 56 % 1016,6 hPa 0,0 l/m 17,6 km/h (3 Bft) NO 40 1 min 0,000 mm 4,9 UV-I 848 W/m 10,8 C 16,4 C 22,5 km/h (4 Bft) 100,00 %
06.05.2016 13:34 19,8 C 56 % 1016,6 hPa 0,0 l/m 13,3 km/h (3 Bft) NO 49 1 min 0,000 mm 4,9 UV-I 846 W/m 10,8 C 17,4 C 19,3 km/h (3 Bft) 100,00 %
06.05.2016 13:35 19,8 C 57 % 1016,6 hPa 0,0 l/m 15,6 km/h (3 Bft) O-NO 58 1 min 0,000 mm 4,8 UV-I 845 W/m 11,0 C 16,9 C 19,3 km/h (3 Bft) 100,00 %
06.05.2016 13:36 19,8 C 59 % 1016,6 hPa 0,0 l/m 12,0 km/h (2 Bft) NO 55 1 min 0,000 mm 4,8 UV-I 844 W/m 11,6 C 17,8 C 19,3 km/h (3 Bft) 95,83 %
06.05.2016 13:37 19,9 C 59 % 1016,6 hPa 0,0 l/m 16,6 km/h (3 Bft) NO 49 1 min 0,000 mm 4,8 UV-I 844 W/m 11,6 C 16,8 C 22,5 km/h (4 Bft) 100,00 %
06.05.2016 13:38 19,9 C 58 % 1016,6 hPa 0,0 l/m 20,1 km/h (4 Bft) O-NO 58 1 min 0,000 mm 4,8 UV-I 845 W/m 11,4 C 16,1 C 29,0 km/h (5 Bft) 100,00 %
06.05.2016 13:39 19,9 C 55 % 1016,6 hPa 0,0 l/m 19,8 km/h (3 Bft) O-NO 77 1 min 0,000 mm 4,8 UV-I 843 W/m 10,6 C 16,1 C 27,4 km/h (4 Bft) 100,00 %
06.05.2016 13:40 19,8 C 55 % 1016,5 hPa 0,0 l/m 17,0 km/h (3 Bft) O-NO 58 1 min 0,000 mm 4,8 UV-I 845 W/m 10,5 C 16,6 C 20,9 km/h (4 Bft) 100,00 %
06.05.2016 13:41 19,8 C 56 % 1016,5 hPa 0,0 l/m 12,9 km/h (3 Bft) NO 53 1 min 0,000 mm 4,8 UV-I 846 W/m 10,8 C 17,5 C 19,3 km/h (3 Bft) 95,65 %
06.05.2016 13:42 19,8 C 57 % 1016,5 hPa 0,0 l/m 12,9 km/h (3 Bft) NO 56 1 min 0,000 mm 4,8 UV-I 847 W/m 11,0 C 17,5 C 25,7 km/h (4 Bft) 100,00 %
06.05.2016 13:43 19,9 C 57 % 1016,4 hPa 0,0 l/m 15,6 km/h (3 Bft) O-NO 71 1 min 0,000 mm 4,8 UV-I 846 W/m 11,1 C 17,0 C 22,5 km/h (4 Bft) 95,65 %
06.05.2016 13:44 20,0 C 59 % 1016,5 hPa 0,0 l/m 17,8 km/h (3 Bft) O-NO 66 1 min 0,000 mm 4,8 UV-I 846 W/m 11,7 C 16,6 C 25,7 km/h (4 Bft) 100,00 %
06.05.2016 13:45 20,1 C 54 % 1016,4 hPa 0,0 l/m 16,7 km/h (3 Bft) O-NO 60 1 min 0,000 mm 4,8 UV-I 846 W/m 10,5 C 17,0 C 20,9 km/h (4 Bft) 97,20 %
06.05.2016 13:46 20,1 C 56 % 1016,4 hPa 0,0 l/m 17,8 km/h (3 Bft) O-NO 60 1 min 0,000 mm 4,8 UV-I 846 W/m 11,0 C 16,8 C 22,5 km/h (4 Bft) 100,00 %
06.05.2016 13:47 20,1 C 57 % 1016,4 hPa 0,0 l/m 17,5 km/h (3 Bft) NO 55 1 min 0,000 mm 4,8 UV-I 844 W/m 11,3 C 16,8 C 22,5 km/h (4 Bft) 100,00 %
06.05.2016 13:48 20,2 C 57 % 1016,4 hPa 0,0 l/m 18,1 km/h (3 Bft) O-NO 67 1 min 0,000 mm 4,7 UV-I 836 W/m 11,4 C 16,8 C 27,4 km/h (4 Bft) 100,00 %
06.05.2016 13:49 20,2 C 53 % 1016,4 hPa 0,0 l/m 21,6 km/h (4 Bft) NO 54 1 min 0,000 mm 4,7 UV-I 837 W/m 10,3 C 16,2 C 24,1 km/h (4 Bft) 95,65 %
06.05.2016 13:50 20,1 C 55 % 1016,4 hPa 0,0 l/m 21,9 km/h (4 Bft) O-NO 76 1 min 0,000 mm 4,7 UV-I 837 W/m 10,8 C 16,0 C 27,4 km/h (4 Bft) 100,00 %
06.05.2016 13:51 20,1 C 54 % 1016,4 hPa 0,0 l/m 19,2 km/h (3 Bft) NO 51 1 min 0,000 mm 4,7 UV-I 840 W/m 10,5 C 16,5 C 24,1 km/h (4 Bft) 100,00 %
06.05.2016 13:52 20,1 C 56 % 1016,4 hPa 0,0 l/m 13,8 km/h (3 Bft) O-NO 65 1 min 0,000 mm 4,7 UV-I 839 W/m 11,0 C 17,7 C 20,9 km/h (4 Bft) 100,00 %
06.05.2016 13:53 20,1 C 53 % 1016,4 hPa 0,0 l/m 14,2 km/h (3 Bft) O-NO 67 1 min 0,000 mm 4,7 UV-I 837 W/m 10,2 C 17,6 C 17,7 km/h (3 Bft) 100,00 %
06.05.2016 13:54 20,2 C 53 % 1016,3 hPa 0,0 l/m 19,7 km/h (3 Bft) NO 51 1 min 0,000 mm 4,7 UV-I 844 W/m 10,3 C 16,5 C 24,1 km/h (4 Bft) 100,00 %
06.05.2016 13:55 20,2 C 54 % 1016,4 hPa 0,0 l/m 14,4 km/h (3 Bft) N-NO 26 1 min 0,000 mm 4,7 UV-I 843 W/m 10,6 C 17,6 C 19,3 km/h (3 Bft) 100,00 %
06.05.2016 13:56 20,2 C 57 % 1016,3 hPa 0,0 l/m 14,6 km/h (3 Bft) O-NO 67 1 min 0,000 mm 4,7 UV-I 840 W/m 11,4 C 17,6 C 22,5 km/h (4 Bft) 95,65 %
06.05.2016 13:57 20,3 C 54 % 1016,3 hPa 0,0 l/m 22,1 km/h (4 Bft) NO 55 1 min 0,000 mm 4,7 UV-I 837 W/m 10,7 C 16,2 C 30,6 km/h (5 Bft) 95,83 %
06.05.2016 13:58 20,3 C 53 % 1016,4 hPa 0,0 l/m 21,9 km/h (4 Bft) O-NO 66 1 min 0,000 mm 4,7 UV-I 837 W/m 10,4 C 16,3 C 25,7 km/h (4 Bft) 100,00 %
06.05.2016 13:59 20,2 C 54 % 1016,3 hPa 0,0 l/m 11,7 km/h (2 Bft) O-NO 75 1 min 0,000 mm 4,7 UV-I 840 W/m 10,6 C 18,3 C 20,9 km/h (4 Bft) 100,00 %
06.05.2016 14:00 20,2 C 53 % 1016,3 hPa 0,0 l/m 22,0 km/h (4 Bft) O-NO 62 1 min 0,000 mm 4,7 UV-I 838 W/m 10,3 C 16,1 C 29,0 km/h (5 Bft) 100,00 %
06.05.2016 14:01 20,2 C 52 % 1016,2 hPa 0,0 l/m 18,9 km/h (3 Bft) O-NO 69 1 min 0,584 mm 4,7 UV-I 839 W/m 10,0 C 16,7 C 25,7 km/h (4 Bft) 100,00 %
06.05.2016 14:02 20,2 C 51 % 1016,2 hPa 0,0 l/m 21,5 km/h (4 Bft) NO 55 1 min 0,000 mm 4,7 UV-I 838 W/m 9,7 C 16,2 C 29,0 km/h (5 Bft) 95,65 %
06.05.2016 14:03 20,1 C 52 % 1016,2 hPa 0,0 l/m 16,0 km/h (3 Bft) NO 55 1 min 0,000 mm 4,6 UV-I 837 W/m 9,9 C 17,1 C 25,7 km/h (4 Bft) 100,00 %
06.05.2016 14:04 20,1 C 55 % 1016,2 hPa 0,0 l/m 14,1 km/h (3 Bft) O 92 1 min 0,000 mm 4,6 UV-I 833 W/m 10,8 C 17,6 C 22,5 km/h (4 Bft) 100,00 %
06.05.2016 14:05 20,2 C 56 % 1016,2 hPa 0,0 l/m 18,2 km/h (3 Bft) NO 45 1 min 0,000 mm 4,6 UV-I 830 W/m 11,1 C 16,8 C 25,7 km/h (4 Bft) 93,33 %
06.05.2016 14:06 20,3 C 58 % 1016,2 hPa 0,0 l/m 16,8 km/h (3 Bft) O-NO 65 1 min 0,000 mm 4,6 UV-I 831 W/m 11,8 C 17,2 C 24,1 km/h (4 Bft) 100,00 %
06.05.2016 14:07 20,4 C 57 % 1016,2 hPa 0,0 l/m 13,8 km/h (3 Bft) O-NO 70 1 min 0,000 mm 4,6 UV-I 833 W/m 11,6 C 18,0 C 19,3 km/h (3 Bft) 100,00 %
06.05.2016 14:08 20,4 C 56 % 1016,1 hPa 0,0 l/m 16,7 km/h (3 Bft) O-NO 60 1 min 0,000 mm 4,6 UV-I 828 W/m 11,3 C 17,4 C 20,9 km/h (4 Bft) 100,00 %
06.05.2016 14:09 20,4 C 55 % 1016,1 hPa 0,0 l/m 20,5 km/h (4 Bft) NO 49 1 min 0,000 mm 4,5 UV-I 822 W/m 11,1 C 16,6 C 32,2 km/h (5 Bft) 100,00 %
06.05.2016 14:10 20,4 C 52 % 1016,1 hPa 0,0 l/m 25,8 km/h (4 Bft) NO 46 1 min 0,000 mm 4,5 UV-I 817 W/m 10,2 C 15,8 C 30,6 km/h (5 Bft) 100,00 %
06.05.2016 14:11 20,3 C 53 % 1016,1 hPa 0,0 l/m 18,4 km/h (3 Bft) NO 48 1 min 0,000 mm 4,5 UV-I 820 W/m 10,4 C 16,9 C 25,7 km/h (4 Bft) 100,00 %
06.05.2016 14:12 20,3 C 54 % 1016,0 hPa 0,0 l/m 13,9 km/h (3 Bft) O-NO 58 1 min 0,000 mm 4,6 UV-I 833 W/m 10,7 C 17,9 C 17,7 km/h (3 Bft) 100,00 %
06.05.2016 14:13 20,3 C 57 % 1016,0 hPa 0,0 l/m 15,9 km/h (3 Bft) NO 40 1 min 0,000 mm 4,6 UV-I 831 W/m 11,5 C 17,4 C 24,1 km/h (4 Bft) 100,00 %
06.05.2016 14:14 20,4 C 55 % 1016,0 hPa 0,0 l/m 14,0 km/h (3 Bft) NO 46 1 min 0,000 mm 4,5 UV-I 831 W/m 11,1 C 18,0 C 22,5 km/h (4 Bft) 100,00 %
06.05.2016 14:15 20,6 C 54 % 1016,0 hPa 0,0 l/m 20,2 km/h (4 Bft) O-NO 59 1 min 0,000 mm 4,5 UV-I 830 W/m 11,0 C 16,9 C 25,7 km/h (4 Bft) 95,65 %
06.05.2016 14:16 20,6 C 50 % 1015,9 hPa 0,0 l/m 16,3 km/h (3 Bft) N-NO 14 1 min 0,000 mm 4,5 UV-I 823 W/m 9,8 C 17,7 C 22,5 km/h (4 Bft) 100,00 %
06.05.2016 14:17 20,7 C 55 % 1015,9 hPa 0,0 l/m 22,1 km/h (4 Bft) O-NO 67 1 min 0,000 mm 4,5 UV-I 821 W/m 11,3 C 16,8 C 25,7 km/h (4 Bft) 100,00 %
06.05.2016 14:18 20,6 C 55 % 1015,9 hPa 0,0 l/m 17,5 km/h (3 Bft) N-NO 29 1 min 0,000 mm 4,5 UV-I 817 W/m 11,2 C 17,4 C 24,1 km/h (4 Bft) 100,00 %
06.05.2016 14:19 20,6 C 56 % 1015,9 hPa 0,0 l/m 18,3 km/h (3 Bft) NO 53 1 min 0,000 mm 4,5 UV-I 815 W/m 11,5 C 17,3 C 27,4 km/h (4 Bft) 100,00 %
06.05.2016 14:20 20,6 C 57 % 1015,9 hPa 0,0 l/m 21,5 km/h (4 Bft) O 92 1 min 0,000 mm 4,4 UV-I 812 W/m 11,8 C 16,7 C 27,4 km/h (4 Bft) 100,00 %
06.05.2016 14:21 20,6 C 54 % 1015,9 hPa 0,0 l/m 19,2 km/h (3 Bft) O-NO 58 1 min 0,000 mm 4,4 UV-I 820 W/m 11,0 C 17,1 C 30,6 km/h (5 Bft) 100,00 %
06.05.2016 14:22 20,6 C 54 % 1015,8 hPa 0,0 l/m 21,6 km/h (4 Bft) O-NO 65 1 min 0,000 mm 4,4 UV-I 820 W/m 11,0 C 16,7 C 27,4 km/h (4 Bft) 100,00 %
06.05.2016 14:23 20,6 C 53 % 1015,9 hPa 0,0 l/m 19,8 km/h (3 Bft) O 84 1 min 0,000 mm 4,4 UV-I 819 W/m 10,7 C 17,0 C 25,7 km/h (4 Bft) 95,65 %
06.05.2016 14:24 20,5 C 51 % 1015,8 hPa 0,0 l/m 22,7 km/h (4 Bft) O-NO 64 1 min 0,000 mm 4,4 UV-I 819 W/m 10,0 C 16,4 C 27,4 km/h (4 Bft) 100,00 %
06.05.2016 14:25 20,4 C 50 % 1015,9 hPa 0,0 l/m 24,5 km/h (4 Bft) NO 42 1 min 0,000 mm 4,4 UV-I 818 W/m 9,6 C 16,0 C 33,8 km/h (5 Bft) 100,00 %
06.05.2016 14:26 20,4 C 50 % 1015,8 hPa 0,0 l/m 23,7 km/h (4 Bft) NO 46 1 min 0,000 mm 4,4 UV-I 815 W/m 9,6 C 16,1 C 30,6 km/h (5 Bft) 100,00 %
06.05.2016 14:27 20,4 C 49 % 1015,8 hPa 0,0 l/m 23,2 km/h (4 Bft) O 79 1 min 0,000 mm 4,3 UV-I 813 W/m 9,3 C 16,2 C 27,4 km/h (4 Bft) 100,00 %
06.05.2016 14:28 20,4 C 50 % 1015,9 hPa 0,0 l/m 23,3 km/h (4 Bft) O-NO 58 1 min 0,000 mm 4,3 UV-I 810 W/m 9,6 C 16,2 C 29,0 km/h (5 Bft) 100,00 %
06.05.2016 14:29 20,4 C 48 % 1015,9 hPa 0,0 l/m 15,0 km/h (3 Bft) O-NO 67 1 min 0,000 mm 4,3 UV-I 810 W/m 9,0 C 17,7 C 22,5 km/h (4 Bft) 95,65 %
06.05.2016 14:30 20,5 C 50 % 1015,8 hPa 0,0 l/m 20,7 km/h (4 Bft) O-NO 63 1 min 0,000 mm 4,3 UV-I 809 W/m 9,7 C 16,7 C 25,7 km/h (4 Bft) 100,00 %
06.05.2016 14:31 20,5 C 48 % 1015,8 hPa 0,0 l/m 16,6 km/h (3 Bft) O-NO 57 1 min 0,000 mm 4,3 UV-I 806 W/m 9,1 C 17,5 C 20,9 km/h (4 Bft) 100,00 %
06.05.2016 14:32 20,5 C 51 % 1015,9 hPa 0,0 l/m 18,9 km/h (3 Bft) O-NO 65 1 min 0,000 mm 4,3 UV-I 805 W/m 10,0 C 17,1 C 27,4 km/h (4 Bft) 100,00 %
06.05.2016 14:33 20,6 C 48 % 1015,8 hPa 0,0 l/m 23,1 km/h (4 Bft) NO 55 1 min 0,000 mm 4,2 UV-I 801 W/m 9,2 C 16,5 C 27,4 km/h (4 Bft) 100,00 %
06.05.2016 14:34 20,6 C 50 % 1015,7 hPa 0,0 l/m 19,0 km/h (3 Bft) NO 54 1 min 0,000 mm 4,2 UV-I 800 W/m 9,8 C 17,2 C 25,7 km/h (4 Bft) 100,00 %
06.05.2016 14:35 20,6 C 51 % 1015,8 hPa 0,0 l/m 20,9 km/h (4 Bft) O 92 1 min 0,000 mm 4,2 UV-I 802 W/m 10,1 C 16,8 C 27,4 km/h (4 Bft) 100,00 %
06.05.2016 14:36 20,6 C 51 % 1015,7 hPa 0,0 l/m 20,3 km/h (4 Bft) O-NO 76 1 min 0,000 mm 4,2 UV-I 799 W/m 10,1 C 16,9 C 29,0 km/h (5 Bft) 95,65 %
06.05.2016 14:37 20,6 C 49 % 1015,7 hPa 0,0 l/m 23,0 km/h (4 Bft) O-NO 76 1 min 0,000 mm 4,2 UV-I 796 W/m 9,5 C 16,5 C 30,6 km/h (5 Bft) 100,00 %
06.05.2016 14:38 20,6 C 51 % 1015,7 hPa 0,0 l/m 17,0 km/h (3 Bft) O 88 1 min 0,000 mm 4,2 UV-I 795 W/m 10,1 C 17,5 C 20,9 km/h (4 Bft) 100,00 %
06.05.2016 14:39 20,6 C 50 % 1015,7 hPa 0,0 l/m 19,6 km/h (3 Bft) O-NO 65 1 min 0,000 mm 4,1 UV-I 795 W/m 9,8 C 17,1 C 27,4 km/h (4 Bft) 95,83 %
06.05.2016 14:40 20,6 C 49 % 1015,7 hPa 0,0 l/m 17,6 km/h (3 Bft) O-NO 76 1 min 0,000 mm 4,1 UV-I 793 W/m 9,5 C 17,4 C 27,4 km/h (4 Bft) 100,00 %
06.05.2016 14:41 20,6 C 47 % 1015,7 hPa 0,0 l/m 19,4 km/h (3 Bft) NO 55 1 min 0,000 mm 4,1 UV-I 793 W/m 8,9 C 17,1 C 29,0 km/h (5 Bft) 95,83 %
06.05.2016 14:42 20,7 C 48 % 1015,8 hPa 0,0 l/m 16,4 km/h (3 Bft) NO 42 1 min 0,000 mm 4,1 UV-I 790 W/m 9,3 C 17,8 C 22,5 km/h (4 Bft) 96,15 %
06.05.2016 14:43 20,7 C 49 % 1015,7 hPa 0,0 l/m 17,6 km/h (3 Bft) O-NO 76 1 min 0,000 mm 4,1 UV-I 788 W/m 9,6 C 17,6 C 22,5 km/h (4 Bft) 100,00 %
06.05.2016 14:44 20,7 C 48 % 1015,6 hPa 0,0 l/m 23,9 km/h (4 Bft) O-NO 77 1 min 0,000 mm 4,0 UV-I 786 W/m 9,3 C 16,5 C 32,2 km/h (5 Bft) 95,65 %
06.05.2016 14:45 20,7 C 48 % 1015,6 hPa 0,0 l/m 21,5 km/h (4 Bft) O-NO 59 1 min 0,000 mm 4,0 UV-I 786 W/m 9,3 C 16,9 C 29,0 km/h (5 Bft) 100,00 %
06.05.2016 14:46 20,7 C 49 % 1015,6 hPa 0,0 l/m 21,5 km/h (4 Bft) NO 44 1 min 0,000 mm 4,0 UV-I 786 W/m 9,6 C 16,9 C 25,7 km/h (4 Bft) 91,30 %
06.05.2016 14:47 20,7 C 48 % 1015,6 hPa 0,0 l/m 22,3 km/h (4 Bft) O-NO 57 1 min 0,000 mm 4,0 UV-I 783 W/m 9,3 C 16,7 C 29,0 km/h (5 Bft) 100,00 %
06.05.2016 14:48 20,7 C 48 % 1015,6 hPa 0,0 l/m 16,7 km/h (3 Bft) NO 55 1 min 0,000 mm 4,0 UV-I 780 W/m 9,3 C 17,7 C 22,5 km/h (4 Bft) 95,65 %
06.05.2016 14:49 20,7 C 50 % 1015,5 hPa 0,0 l/m 14,0 km/h (3 Bft) O-NO 61 1 min 0,000 mm 4,0 UV-I 779 W/m 9,9 C 18,3 C 19,3 km/h (3 Bft) 100,00 %
06.05.2016 14:50 20,7 C 48 % 1015,5 hPa 0,0 l/m 18,2 km/h (3 Bft) O-NO 63 1 min 0,000 mm 4,0 UV-I 779 W/m 9,3 C 17,4 C 22,5 km/h (4 Bft) 95,65 %
06.05.2016 14:51 20,7 C 50 % 1015,5 hPa 0,0 l/m 17,8 km/h (3 Bft) O-NO 72 1 min 0,000 mm 3,9 UV-I 778 W/m 9,9 C 17,5 C 24,1 km/h (4 Bft) 95,83 %
06.05.2016 14:52 20,8 C 52 % 1015,5 hPa 0,0 l/m 19,2 km/h (3 Bft) NO 47 1 min 0,000 mm 3,9 UV-I 774 W/m 10,6 C 17,4 C 24,1 km/h (4 Bft) 100,00 %
06.05.2016 14:53 20,8 C 54 % 1015,5 hPa 0,0 l/m 17,3 km/h (3 Bft) O-NO 63 1 min 0,000 mm 3,9 UV-I 771 W/m 11,1 C 17,7 C 22,5 km/h (4 Bft) 95,83 %
06.05.2016 14:54 20,9 C 52 % 1015,6 hPa 0,0 l/m 14,3 km/h (3 Bft) NO 44 1 min 0,000 mm 3,9 UV-I 767 W/m 10,7 C 18,5 C 20,9 km/h (4 Bft) 100,00 %
06.05.2016 14:55 21,0 C 51 % 1015,6 hPa 0,0 l/m 17,0 km/h (3 Bft) O-NO 57 1 min 0,000 mm 3,9 UV-I 765 W/m 10,5 C 18,0 C 24,1 km/h (4 Bft) 95,83 %
06.05.2016 14:56 21,1 C 50 % 1015,5 hPa 0,0 l/m 18,1 km/h (3 Bft) N-NO 31 1 min 0,000 mm 3,9 UV-I 765 W/m 10,3 C 18,0 C 22,5 km/h (4 Bft) 100,00 %
06.05.2016 14:57 21,1 C 52 % 1015,5 hPa 0,0 l/m 23,3 km/h (4 Bft) NO 36 1 min 0,000 mm 3,8 UV-I 765 W/m 10,9 C 17,1 C 29,0 km/h (5 Bft) 96,15 %
06.05.2016 14:58 21,0 C 51 % 1015,5 hPa 0,0 l/m 20,2 km/h (4 Bft) NO 36 1 min 0,000 mm 3,8 UV-I 763 W/m 10,5 C 17,5 C 25,7 km/h (4 Bft) 100,00 %
06.05.2016 14:59 20,9 C 54 % 1015,4 hPa 0,0 l/m 19,8 km/h (3 Bft) NO 37 1 min 0,000 mm 3,8 UV-I 756 W/m 11,2 C 17,4 C 27,4 km/h (4 Bft) 91,30 %
06.05.2016 15:00 20,9 C 54 % 1015,4 hPa 0,0 l/m 17,9 km/h (3 Bft) N-NO 28 1 min 0,000 mm 3,8 UV-I 757 W/m 11,2 C 17,7 C 24,1 km/h (4 Bft) 95,83 %
06.05.2016 15:01 20,9 C 49 % 1015,4 hPa 0,0 l/m 20,0 km/h (4 Bft) NO 44 1 min 0,584 mm 3,8 UV-I 758 W/m 9,8 C 17,4 C 30,6 km/h (5 Bft) 95,65 %
06.05.2016 15:02 20,9 C 51 % 1015,4 hPa 0,0 l/m 22,7 km/h (4 Bft) N-NO 23 1 min 0,000 mm 3,8 UV-I 754 W/m 10,4 C 16,9 C 29,0 km/h (5 Bft) 95,83 %
06.05.2016 15:03 20,9 C 50 % 1015,4 hPa 0,0 l/m 22,7 km/h (4 Bft) NO 53 1 min 0,000 mm 3,7 UV-I 752 W/m 10,1 C 16,9 C 27,4 km/h (4 Bft) 91,30 %
06.05.2016 15:04 20,9 C 49 % 1015,4 hPa 0,0 l/m 15,0 km/h (3 Bft) NO 55 1 min 0,000 mm 3,7 UV-I 753 W/m 9,8 C 18,3 C 22,5 km/h (4 Bft) 95,83 %
06.05.2016 15:05 20,9 C 47 % 1015,4 hPa 0,0 l/m 19,0 km/h (3 Bft) O-NO 58 1 min 0,000 mm 3,7 UV-I 749 W/m 9,2 C 17,5 C 25,7 km/h (4 Bft) 100,00 %
06.05.2016 15:06 20,9 C 47 % 1015,4 hPa 0,0 l/m 19,6 km/h (3 Bft) O-NO 63 1 min 0,000 mm 3,7 UV-I 748 W/m 9,2 C 17,4 C 25,7 km/h (4 Bft) 91,67 %
06.05.2016 15:07 21,0 C 48 % 1015,4 hPa 0,0 l/m 18,3 km/h (3 Bft) NO 50 1 min 0,000 mm 3,7 UV-I 746 W/m 9,6 C 17,8 C 24,1 km/h (4 Bft) 100,00 %
06.05.2016 15:08 21,0 C 48 % 1015,3 hPa 0,0 l/m 18,1 km/h (3 Bft) NO 51 1 min 0,000 mm 3,7 UV-I 746 W/m 9,6 C 17,8 C 27,4 km/h (4 Bft) 91,67 %
06.05.2016 15:09 21,0 C 48 % 1015,3 hPa 0,0 l/m 19,2 km/h (3 Bft) NO 49 1 min 0,000 mm 3,6 UV-I 744 W/m 9,6 C 17,6 C 27,4 km/h (4 Bft) 100,00 %
06.05.2016 15:10 21,0 C 48 % 1015,3 hPa 0,0 l/m 25,1 km/h (4 Bft) O-NO 67 1 min 0,000 mm 3,6 UV-I 742 W/m 9,6 C 16,7 C 32,2 km/h (5 Bft) 95,65 %
06.05.2016 15:11 21,0 C 47 % 1015,3 hPa 0,0 l/m 23,9 km/h (4 Bft) O-NO 63 1 min 0,000 mm 3,6 UV-I 742 W/m 9,3 C 16,9 C 29,0 km/h (5 Bft) 100,00 %
06.05.2016 15:12 20,9 C 48 % 1015,3 hPa 0,0 l/m 24,5 km/h (4 Bft) O-NO 57 1 min 0,000 mm 3,6 UV-I 742 W/m 9,5 C 16,7 C 30,6 km/h (5 Bft) 100,00 %
06.05.2016 15:13 20,9 C 47 % 1015,3 hPa 0,0 l/m 21,5 km/h (4 Bft) O-NO 59 1 min 0,000 mm 3,6 UV-I 740 W/m 9,2 C 17,1 C 29,0 km/h (5 Bft) 95,83 %
06.05.2016 15:14 20,9 C 46 % 1015,3 hPa 0,0 l/m 21,0 km/h (4 Bft) NO 50 1 min 0,000 mm 3,5 UV-I 738 W/m 8,8 C 17,2 C 27,4 km/h (4 Bft) 100,00 %
06.05.2016 15:15 20,9 C 46 % 1015,3 hPa 0,0 l/m 20,7 km/h (4 Bft) O-NO 57 1 min 0,000 mm 3,5 UV-I 740 W/m 8,8 C 17,3 C 27,4 km/h (4 Bft) 100,00 %
06.05.2016 15:16 20,9 C 46 % 1015,3 hPa 0,0 l/m 21,7 km/h (4 Bft) O-NO 63 1 min 0,000 mm 3,5 UV-I 738 W/m 8,8 C 17,1 C 25,7 km/h (4 Bft) 96,55 %
06.05.2016 15:17 20,9 C 46 % 1015,3 hPa 0,0 l/m 20,4 km/h (4 Bft) NO 53 1 min 0,000 mm 3,5 UV-I 736 W/m 8,8 C 17,3 C 27,4 km/h (4 Bft) 100,00 %
06.05.2016 15:18 20,9 C 47 % 1015,3 hPa 0,0 l/m 17,0 km/h (3 Bft) O-NO 62 1 min 0,000 mm 3,5 UV-I 731 W/m 9,2 C 17,9 C 24,1 km/h (4 Bft) 100,00 %
06.05.2016 15:19 20,9 C 48 % 1015,3 hPa 0,0 l/m 18,8 km/h (3 Bft) O-NO 57 1 min 0,000 mm 3,4 UV-I 728 W/m 9,5 C 17,6 C 24,1 km/h (4 Bft) 100,00 %
06.05.2016 15:20 20,9 C 51 % 1015,2 hPa 0,0 l/m 20,8 km/h (4 Bft) NO 47 1 min 0,000 mm 3,4 UV-I 726 W/m 10,4 C 17,2 C 27,4 km/h (4 Bft) 100,00 %
06.05.2016 15:21 20,9 C 49 % 1015,3 hPa 0,0 l/m 19,6 km/h (3 Bft) NO 43 1 min 0,000 mm 3,4 UV-I 724 W/m 9,8 C 17,4 C 29,0 km/h (5 Bft) 100,00 %
06.05.2016 15:22 20,9 C 51 % 1015,2 hPa 0,0 l/m 17,5 km/h (3 Bft) NO 39 1 min 0,000 mm 3,4 UV-I 724 W/m 10,4 C 17,8 C 22,5 km/h (4 Bft) 92,31 %
06.05.2016 15:23 21,0 C 52 % 1015,2 hPa 0,0 l/m 16,2 km/h (3 Bft) N-NO 22 1 min 0,000 mm 3,3 UV-I 720 W/m 10,8 C 18,2 C 20,9 km/h (4 Bft) 100,00 %
06.05.2016 15:24 21,0 C 52 % 1015,2 hPa 0,0 l/m 15,0 km/h (3 Bft) NO 40 1 min 0,000 mm 3,3 UV-I 716 W/m 10,8 C 18,5 C 19,3 km/h (3 Bft) 100,00 %
06.05.2016 15:25 21,1 C 50 % 1015,2 hPa 0,0 l/m 13,4 km/h (3 Bft) O-NO 58 1 min 0,000 mm 3,3 UV-I 713 W/m 10,3 C 18,9 C 19,3 km/h (3 Bft) 100,00 %
06.05.2016 15:26 21,1 C 52 % 1015,2 hPa 0,0 l/m 12,6 km/h (3 Bft) N-NO 32 1 min 0,000 mm 3,3 UV-I 709 W/m 10,9 C 19,1 C 22,5 km/h (4 Bft) 95,65 %
06.05.2016 15:27 21,1 C 53 % 1015,2 hPa 0,0 l/m 15,1 km/h (3 Bft) O-NO 70 1 min 0,000 mm 3,2 UV-I 708 W/m 11,1 C 18,6 C 24,1 km/h (4 Bft) 100,00 %
06.05.2016 15:28 21,1 C 52 % 1015,2 hPa 0,0 l/m 17,8 km/h (3 Bft) O 82 1 min 0,000 mm 3,2 UV-I 708 W/m 10,9 C 18,0 C 24,1 km/h (4 Bft) 100,00 %
06.05.2016 15:29 21,1 C 49 % 1015,2 hPa 0,0 l/m 20,2 km/h (4 Bft) O-NO 76 1 min 0,000 mm 3,2 UV-I 710 W/m 10,0 C 17,6 C 24,1 km/h (4 Bft) 100,00 %
06.05.2016 15:30 21,1 C 49 % 1015,1 hPa 0,0 l/m 19,9 km/h (4 Bft) O-NO 67 1 min 0,000 mm 3,2 UV-I 709 W/m 10,0 C 17,6 C 25,7 km/h (4 Bft) 100,00 %
06.05.2016 15:31 21,1 C 49 % 1015,2 hPa 0,0 l/m 21,9 km/h (4 Bft) O 82 1 min 0,000 mm 3,2 UV-I 707 W/m 10,0 C 17,3 C 27,4 km/h (4 Bft) 100,00 %
06.05.2016 15:32 21,1 C 49 % 1015,1 hPa 0,0 l/m 22,7 km/h (4 Bft) O 89 1 min 0,000 mm 3,2 UV-I 704 W/m 10,0 C 17,2 C 27,4 km/h (4 Bft) 100,00 %
06.05.2016 15:33 21,1 C 48 % 1015,1 hPa 0,0 l/m 21,0 km/h (4 Bft) O-NO 62 1 min 0,000 mm 3,1 UV-I 701 W/m 9,7 C 17,5 C 25,7 km/h (4 Bft) 100,00 %
06.05.2016 15:34 21,1 C 49 % 1015,1 hPa 0,0 l/m 19,6 km/h (3 Bft) O-NO 61 1 min 0,000 mm 3,1 UV-I 700 W/m 10,0 C 17,7 C 24,1 km/h (4 Bft) 100,00 %
06.05.2016 15:35 21,1 C 49 % 1015,1 hPa 0,0 l/m 16,4 km/h (3 Bft) NO 55 1 min 0,000 mm 3,1 UV-I 699 W/m 10,0 C 18,3 C 24,1 km/h (4 Bft) 100,00 %
06.05.2016 15:36 21,1 C 50 % 1015,0 hPa 0,0 l/m 17,1 km/h (3 Bft) O-NO 61 1 min 0,000 mm 3,1 UV-I 695 W/m 10,3 C 18,2 C 20,9 km/h (4 Bft) 100,00 %
06.05.2016 15:37 21,1 C 49 % 1015,0 hPa 0,0 l/m 17,6 km/h (3 Bft) O-NO 77 1 min 0,000 mm 3,1 UV-I 690 W/m 10,0 C 18,1 C 24,1 km/h (4 Bft) 100,00 %
06.05.2016 15:38 21,1 C 50 % 1015,0 hPa 0,0 l/m 16,0 km/h (3 Bft) O-NO 64 1 min 0,000 mm 3,0 UV-I 687 W/m 10,3 C 18,4 C 24,1 km/h (4 Bft) 100,00 %
06.05.2016 15:39 21,1 C 52 % 1015,0 hPa 0,0 l/m 17,6 km/h (3 Bft) N-NO 30 1 min 0,000 mm 3,0 UV-I 681 W/m 10,9 C 18,1 C 22,5 km/h (4 Bft) 100,00 %
06.05.2016 15:40 21,1 C 51 % 1015,0 hPa 0,0 l/m 18,2 km/h (3 Bft) O 81 1 min 0,000 mm 3,0 UV-I 682 W/m 10,6 C 17,9 C 24,1 km/h (4 Bft) 100,00 %
06.05.2016 15:41 21,1 C 51 % 1015,1 hPa 0,0 l/m 18,8 km/h (3 Bft) NO 42 1 min 0,000 mm 3,0 UV-I 681 W/m 10,6 C 17,8 C 24,1 km/h (4 Bft) 100,00 %
06.05.2016 15:42 21,1 C 51 % 1015,1 hPa 0,0 l/m 17,1 km/h (3 Bft) NO 51 1 min 0,000 mm 3,0 UV-I 679 W/m 10,6 C 18,2 C 22,5 km/h (4 Bft) 100,00 %
06.05.2016 15:43 21,1 C 51 % 1015,0 hPa 0,0 l/m 18,4 km/h (3 Bft) N-NO 22 1 min 0,000 mm 3,0 UV-I 679 W/m 10,6 C 17,9 C 25,7 km/h (4 Bft) 100,00 %
06.05.2016 15:44 21,1 C 53 % 1015,0 hPa 0,0 l/m 16,1 km/h (3 Bft) NO 42 1 min 0,000 mm 2,9 UV-I 678 W/m 11,1 C 18,4 C 24,1 km/h (4 Bft) 100,00 %
06.05.2016 15:45 21,1 C 53 % 1015,0 hPa 0,0 l/m 16,4 km/h (3 Bft) N-NO 30 1 min 0,000 mm 2,9 UV-I 679 W/m 11,1 C 18,3 C 24,1 km/h (4 Bft) 100,00 %
06.05.2016 15:46 21,1 C 53 % 1015,0 hPa 0,0 l/m 21,8 km/h (4 Bft) NO 36 1 min 0,000 mm 2,9 UV-I 675 W/m 11,1 C 17,3 C 30,6 km/h (5 Bft) 100,00 %
06.05.2016 15:47 21,1 C 52 % 1015,0 hPa 0,0 l/m 21,2 km/h (4 Bft) NO 56 1 min 0,000 mm 2,9 UV-I 674 W/m 10,9 C 17,4 C 25,7 km/h (4 Bft) 100,00 %
06.05.2016 15:48 21,1 C 50 % 1015,0 hPa 0,0 l/m 24,3 km/h (4 Bft) O-NO 61 1 min 0,000 mm 2,9 UV-I 670 W/m 10,3 C 17,0 C 32,2 km/h (5 Bft) 100,00 %
06.05.2016 15:49 21,1 C 49 % 1015,0 hPa 0,0 l/m 19,1 km/h (3 Bft) O-NO 72 1 min 0,000 mm 2,8 UV-I 668 W/m 10,0 C 17,8 C 25,7 km/h (4 Bft) 100,00 %
06.05.2016 15:50 21,1 C 49 % 1015,0 hPa 0,0 l/m 25,7 km/h (4 Bft) O 79 1 min 0,000 mm 2,8 UV-I 668 W/m 10,0 C 16,8 C 32,2 km/h (5 Bft) 100,00 %
06.05.2016 15:51 21,1 C 51 % 1015,0 hPa 0,0 l/m 21,3 km/h (4 Bft) O-NO 67 1 min 0,000 mm 2,8 UV-I 664 W/m 10,6 C 17,4 C 29,0 km/h (5 Bft) 100,00 %
06.05.2016 15:52 21,0 C 50 % 1015,0 hPa 0,0 l/m 20,4 km/h (4 Bft) O-NO 59 1 min 0,000 mm 2,8 UV-I 663 W/m 10,2 C 17,4 C 25,7 km/h (4 Bft) 100,00 %
06.05.2016 15:53 21,0 C 51 % 1015,0 hPa 0,0 l/m 19,5 km/h (3 Bft) O-NO 72 1 min 0,000 mm 2,8 UV-I 661 W/m 10,5 C 17,6 C 24,1 km/h (4 Bft) 100,00 %
06.05.2016 15:54 21,1 C 51 % 1015,0 hPa 0,0 l/m 18,1 km/h (3 Bft) NO 44 1 min 0,000 mm 2,7 UV-I 658 W/m 10,6 C 18,0 C 27,4 km/h (4 Bft) 100,00 %
06.05.2016 15:55 21,1 C 51 % 1015,0 hPa 0,0 l/m 20,4 km/h (4 Bft) NO 55 1 min 0,000 mm 2,7 UV-I 657 W/m 10,6 C 17,6 C 24,1 km/h (4 Bft) 100,00 %
06.05.2016 15:56 21,1 C 49 % 1014,9 hPa 0,0 l/m 18,9 km/h (3 Bft) NO 53 1 min 0,000 mm 2,7 UV-I 657 W/m 10,0 C 17,8 C 32,2 km/h (5 Bft) 95,65 %
06.05.2016 15:57 21,1 C 51 % 1014,9 hPa 0,0 l/m 26,6 km/h (4 Bft) O-NO 61 1 min 0,000 mm 2,7 UV-I 649 W/m 10,6 C 16,7 C 32,2 km/h (5 Bft) 100,00 %
06.05.2016 15:58 21,1 C 50 % 1014,9 hPa 0,0 l/m 24,0 km/h (4 Bft) NO 34 1 min 0,000 mm 2,6 UV-I 646 W/m 10,3 C 17,0 C 33,8 km/h (5 Bft) 95,65 %
06.05.2016 15:59 21,0 C 51 % 1014,9 hPa 0,0 l/m 20,6 km/h (4 Bft) O 79 1 min 0,000 mm 2,6 UV-I 643 W/m 10,5 C 17,4 C 29,0 km/h (5 Bft) 100,00 %
06.05.2016 16:00 21,0 C 51 % 1014,9 hPa 0,0 l/m 18,7 km/h (3 Bft) O-NO 57 1 min 0,000 mm 2,6 UV-I 642 W/m 10,5 C 17,7 C 25,7 km/h (4 Bft) 100,00 %
06.05.2016 16:01 21,0 C 51 % 1014,9 hPa 0,0 l/m 24,2 km/h (4 Bft) NO 55 1 min 0,559 mm 2,6 UV-I 641 W/m 10,5 C 16,8 C 29,0 km/h (5 Bft) 100,00 %
06.05.2016 16:02 21,0 C 52 % 1014,9 hPa 0,0 l/m 20,3 km/h (4 Bft) O-NO 58 1 min 0,000 mm 2,6 UV-I 638 W/m 10,8 C 17,4 C 24,1 km/h (4 Bft) 100,00 %
06.05.2016 16:03 21,1 C 49 % 1014,8 hPa 0,0 l/m 20,9 km/h (4 Bft) NO 44 1 min 0,000 mm 2,6 UV-I 636 W/m 10,0 C 17,5 C 27,4 km/h (4 Bft) 100,00 %
06.05.2016 16:04 21,1 C 49 % 1014,8 hPa 0,0 l/m 19,4 km/h (3 Bft) O-NO 65 1 min 0,000 mm 2,5 UV-I 635 W/m 10,0 C 17,7 C 24,1 km/h (4 Bft) 100,00 %
06.05.2016 16:05 21,1 C 48 % 1014,8 hPa 0,0 l/m 18,8 km/h (3 Bft) NO 51 1 min 0,000 mm 2,5 UV-I 633 W/m 9,7 C 17,8 C 25,7 km/h (4 Bft) 95,83 %
06.05.2016 16:06 21,1 C 49 % 1014,8 hPa 0,0 l/m 25,4 km/h (4 Bft) O-NO 57 1 min 0,000 mm 2,5 UV-I 628 W/m 10,0 C 16,8 C 32,2 km/h (5 Bft) 100,00 %
06.05.2016 16:07 21,1 C 49 % 1014,8 hPa 0,0 l/m 23,4 km/h (4 Bft) NO 38 1 min 0,000 mm 2,4 UV-I 622 W/m 10,0 C 17,1 C 29,0 km/h (5 Bft) 100,00 %
06.05.2016 16:08 21,0 C 51 % 1014,7 hPa 0,0 l/m 19,8 km/h (3 Bft) O-NO 61 1 min 0,000 mm 2,4 UV-I 619 W/m 10,5 C 17,5 C 25,7 km/h (4 Bft) 100,00 %
06.05.2016 16:09 21,0 C 49 % 1014,8 hPa 0,0 l/m 26,7 km/h (4 Bft) NO 49 1 min 0,000 mm 2,4 UV-I 618 W/m 9,9 C 16,5 C 33,8 km/h (5 Bft) 91,30 %
06.05.2016 16:10 20,9 C 48 % 1014,8 hPa 0,0 l/m 22,5 km/h (4 Bft) NO 51 1 min 0,000 mm 2,4 UV-I 620 W/m 9,5 C 17,0 C 29,0 km/h (5 Bft) 100,00 %
06.05.2016 16:11 20,9 C 49 % 1014,7 hPa 0,0 l/m 20,8 km/h (4 Bft) NO 41 1 min 0,000 mm 2,4 UV-I 616 W/m 9,8 C 17,2 C 29,0 km/h (5 Bft) 100,00 %
06.05.2016 16:12 20,9 C 51 % 1014,7 hPa 0,0 l/m 18,3 km/h (3 Bft) NO 44 1 min 0,000 mm 2,4 UV-I 610 W/m 10,4 C 17,7 C 24,1 km/h (4 Bft) 100,00 %
06.05.2016 16:14 21,0 C 50 % 1014,7 hPa 0,0 l/m 23,6 km/h (4 Bft) NO 38 2 min 0,000 mm 2,3 UV-I 594 W/m 10,2 C 16,9 C 24,1 km/h (4 Bft) 100,00 %
06.05.2016 16:15 21,0 C 51 % 1014,7 hPa 0,0 l/m 20,8 km/h (4 Bft) O-NO 64 1 min 0,000 mm 2,3 UV-I 600 W/m 10,5 C 17,4 C 25,7 km/h (4 Bft) 100,00 %
06.05.2016 16:16 21,1 C 51 % 1014,7 hPa 0,0 l/m 14,2 km/h (3 Bft) O-NO 60 1 min 0,000 mm 2,3 UV-I 602 W/m 10,6 C 18,8 C 20,9 km/h (4 Bft) 100,00 %
06.05.2016 16:17 21,1 C 51 % 1014,7 hPa 0,0 l/m 17,6 km/h (3 Bft) N-NO 22 1 min 0,000 mm 2,3 UV-I 600 W/m 10,6 C 18,1 C 22,5 km/h (4 Bft) 95,65 %
06.05.2016 16:18 21,1 C 51 % 1014,7 hPa 0,0 l/m 17,4 km/h (3 Bft) NO 40 1 min 0,000 mm 2,3 UV-I 596 W/m 10,6 C 18,1 C 24,1 km/h (4 Bft) 100,00 %
06.05.2016 16:19 21,1 C 50 % 1014,7 hPa 0,0 l/m 20,5 km/h (4 Bft) O-NO 74 1 min 0,000 mm 2,2 UV-I 592 W/m 10,3 C 17,5 C 29,0 km/h (5 Bft) 100,00 %
06.05.2016 16:20 21,1 C 50 % 1014,7 hPa 0,0 l/m 24,1 km/h (4 Bft) O-NO 66 1 min 0,000 mm 2,2 UV-I 592 W/m 10,3 C 17,0 C 30,6 km/h (5 Bft) 100,00 %
06.05.2016 16:21 21,1 C 50 % 1014,6 hPa 0,0 l/m 22,3 km/h (4 Bft) O-NO 78 1 min 0,000 mm 2,2 UV-I 591 W/m 10,3 C 17,3 C 27,4 km/h (4 Bft) 96,15 %
06.05.2016 16:22 21,1 C 49 % 1014,7 hPa 0,0 l/m 21,1 km/h (4 Bft) NO 54 1 min 0,000 mm 2,2 UV-I 590 W/m 10,0 C 17,4 C 29,0 km/h (5 Bft) 100,00 %
06.05.2016 16:23 21,1 C 49 % 1014,7 hPa 0,0 l/m 20,2 km/h (4 Bft) O-NO 59 1 min 0,000 mm 2,2 UV-I 589 W/m 10,0 C 17,6 C 29,0 km/h (5 Bft) 100,00 %
06.05.2016 16:24 21,1 C 50 % 1014,7 hPa 0,0 l/m 15,4 km/h (3 Bft) O-NO 76 1 min 0,000 mm 2,2 UV-I 586 W/m 10,3 C 18,5 C 22,5 km/h (4 Bft) 100,00 %
06.05.2016 16:25 21,1 C 49 % 1014,7 hPa 0,0 l/m 18,9 km/h (3 Bft) NO 52 1 min 0,000 mm 2,1 UV-I 581 W/m 10,0 C 17,8 C 27,4 km/h (4 Bft) 100,00 %
06.05.2016 16:26 21,1 C 51 % 1014,6 hPa 0,0 l/m 17,8 km/h (3 Bft) O-NO 63 1 min 0,000 mm 2,1 UV-I 570 W/m 10,6 C 18,0 C 24,1 km/h (4 Bft) 100,00 %
06.05.2016 16:27 21,1 C 49 % 1014,6 hPa 0,0 l/m 18,9 km/h (3 Bft) NO 42 1 min 0,000 mm 2,1 UV-I 580 W/m 10,0 C 17,8 C 27,4 km/h (4 Bft) 100,00 %
06.05.2016 16:28 21,1 C 48 % 1014,6 hPa 0,0 l/m 17,0 km/h (3 Bft) N-NO 32 1 min 0,000 mm 2,1 UV-I 579 W/m 9,7 C 18,2 C 24,1 km/h (4 Bft) 92,59 %
06.05.2016 16:29 21,1 C 50 % 1014,6 hPa 0,0 l/m 19,6 km/h (3 Bft) NO 42 1 min 0,000 mm 2,1 UV-I 576 W/m 10,3 C 17,7 C 25,7 km/h (4 Bft) 100,00 %
06.05.2016 16:30 21,2 C 51 % 1014,6 hPa 0,0 l/m 13,9 km/h (3 Bft) O-NO 69 1 min 0,000 mm 2,1 UV-I 574 W/m 10,7 C 18,9 C 19,3 km/h (3 Bft) 100,00 %
06.05.2016 16:31 21,2 C 50 % 1014,6 hPa 0,0 l/m 18,6 km/h (3 Bft) O-NO 62 1 min 0,000 mm 2,0 UV-I 571 W/m 10,4 C 18,0 C 22,5 km/h (4 Bft) 100,00 %
06.05.2016 16:32 21,2 C 51 % 1014,6 hPa 0,0 l/m 17,4 km/h (3 Bft) O-NO 70 1 min 0,000 mm 2,0 UV-I 566 W/m 10,7 C 18,2 C 27,4 km/h (4 Bft) 96,15 %
06.05.2016 16:33 21,2 C 51 % 1014,6 hPa 0,0 l/m 15,5 km/h (3 Bft) O-NO 63 1 min 0,000 mm 2,0 UV-I 562 W/m 10,7 C 18,6 C 24,1 km/h (4 Bft) 100,00 %
06.05.2016 16:34 21,2 C 51 % 1014,6 hPa 0,0 l/m 15,2 km/h (3 Bft) NO 54 1 min 0,000 mm 2,0 UV-I 560 W/m 10,7 C 18,7 C 19,3 km/h (3 Bft) 96,15 %
06.05.2016 16:35 21,2 C 50 % 1014,6 hPa 0,0 l/m 18,2 km/h (3 Bft) O-NO 78 1 min 0,000 mm 2,0 UV-I 560 W/m 10,4 C 18,1 C 24,1 km/h (4 Bft) 100,00 %
06.05.2016 16:36 21,2 C 51 % 1014,6 hPa 0,0 l/m 15,0 km/h (3 Bft) O 83 1 min 0,000 mm 2,0 UV-I 556 W/m 10,7 C 18,7 C 25,7 km/h (4 Bft) 95,65 %
06.05.2016 16:37 21,2 C 49 % 1014,5 hPa 0,0 l/m 19,8 km/h (3 Bft) O-NO 61 1 min 0,000 mm 1,9 UV-I 553 W/m 10,1 C 17,8 C 25,7 km/h (4 Bft) 95,83 %
06.05.2016 16:38 21,2 C 48 % 1014,5 hPa 0,0 l/m 21,3 km/h (4 Bft) O 88 1 min 0,000 mm 1,9 UV-I 547 W/m 9,7 C 17,5 C 29,0 km/h (5 Bft) 95,65 %
06.05.2016 16:39 21,2 C 49 % 1014,5 hPa 0,0 l/m 23,1 km/h (4 Bft) O-NO 58 1 min 0,000 mm 1,9 UV-I 545 W/m 10,1 C 17,3 C 29,0 km/h (5 Bft) 95,83 %
06.05.2016 16:40 21,2 C 50 % 1014,5 hPa 0,0 l/m 21,3 km/h (4 Bft) O-NO 67 1 min 0,000 mm 1,9 UV-I 544 W/m 10,4 C 17,5 C 29,0 km/h (5 Bft) 100,00 %
06.05.2016 16:41 21,1 C 49 % 1014,5 hPa 0,0 l/m 23,2 km/h (4 Bft) O-SO 103 1 min 0,000 mm 1,9 UV-I 541 W/m 10,0 C 17,1 C 29,0 km/h (5 Bft) 95,83 %
06.05.2016 16:42 21,1 C 49 % 1014,4 hPa 0,0 l/m 16,4 km/h (3 Bft) O 84 1 min 0,000 mm 1,8 UV-I 539 W/m 10,0 C 18,3 C 24,1 km/h (4 Bft) 100,00 %
06.05.2016 16:43 21,1 C 49 % 1014,4 hPa 0,0 l/m 19,2 km/h (3 Bft) O-NO 74 1 min 0,000 mm 1,8 UV-I 536 W/m 10,0 C 17,8 C 25,7 km/h (4 Bft) 95,83 %
06.05.2016 16:44 21,1 C 48 % 1014,4 hPa 0,0 l/m 28,4 km/h (4 Bft) O 82 1 min 0,000 mm 1,8 UV-I 531 W/m 9,7 C 16,4 C 37,0 km/h (5 Bft) 95,65 %
06.05.2016 16:45 21,1 C 49 % 1014,4 hPa 0,0 l/m 24,3 km/h (4 Bft) NO 34 1 min 0,000 mm 1,8 UV-I 529 W/m 10,0 C 17,0 C 33,8 km/h (5 Bft) 100,00 %
06.05.2016 16:46 21,1 C 49 % 1014,4 hPa 0,0 l/m 24,7 km/h (4 Bft) O 84 1 min 0,000 mm 1,8 UV-I 528 W/m 10,0 C 16,9 C 32,2 km/h (5 Bft) 95,65 %
06.05.2016 16:47 21,0 C 48 % 1014,4 hPa 0,0 l/m 25,9 km/h (4 Bft) O 79 1 min 0,000 mm 1,7 UV-I 526 W/m 9,6 C 16,6 C 33,8 km/h (5 Bft) 100,00 %
06.05.2016 16:48 21,0 C 48 % 1014,4 hPa 0,0 l/m 23,6 km/h (4 Bft) O-NO 65 1 min 0,000 mm 1,7 UV-I 525 W/m 9,6 C 16,9 C 29,0 km/h (5 Bft) 95,65 %
06.05.2016 16:49 21,0 C 48 % 1014,4 hPa 0,0 l/m 22,1 km/h (4 Bft) N-NO 26 1 min 0,000 mm 1,7 UV-I 522 W/m 9,6 C 17,2 C 29,0 km/h (5 Bft) 100,00 %
06.05.2016 16:50 21,0 C 47 % 1014,4 hPa 0,0 l/m 20,6 km/h (4 Bft) O-NO 73 1 min 0,000 mm 1,7 UV-I 520 W/m 9,3 C 17,4 C 29,0 km/h (5 Bft) 95,83 %
06.05.2016 16:51 21,0 C 49 % 1014,4 hPa 0,0 l/m 15,7 km/h (3 Bft) O 80 1 min 0,000 mm 1,7 UV-I 518 W/m 9,9 C 18,3 C 22,5 km/h (4 Bft) 100,00 %
06.05.2016 16:52 21,0 C 49 % 1014,4 hPa 0,0 l/m 18,6 km/h (3 Bft) O-NO 76 1 min 0,000 mm 1,7 UV-I 515 W/m 9,9 C 17,7 C 22,5 km/h (4 Bft) 95,83 %
06.05.2016 16:53 21,1 C 50 % 1014,4 hPa 0,0 l/m 18,0 km/h (3 Bft) O-NO 74 1 min 0,000 mm 1,6 UV-I 512 W/m 10,3 C 18,0 C 20,9 km/h (4 Bft) 95,65 %
06.05.2016 16:54 21,1 C 50 % 1014,4 hPa 0,0 l/m 24,3 km/h (4 Bft) O-NO 63 1 min 0,000 mm 1,6 UV-I 510 W/m 10,3 C 17,0 C 32,2 km/h (5 Bft) 100,00 %
06.05.2016 16:55 21,0 C 48 % 1014,3 hPa 0,0 l/m 27,4 km/h (4 Bft) O-NO 60 1 min 0,000 mm 1,6 UV-I 508 W/m 9,6 C 16,4 C 33,8 km/h (5 Bft) 95,65 %
06.05.2016 16:56 21,0 C 49 % 1014,3 hPa 0,0 l/m 18,6 km/h (3 Bft) O-NO 65 1 min 0,000 mm 1,6 UV-I 504 W/m 9,9 C 17,7 C 29,0 km/h (5 Bft) 91,67 %
06.05.2016 16:57 21,0 C 49 % 1014,3 hPa 0,0 l/m 21,8 km/h (4 Bft) O-NO 74 1 min 0,000 mm 1,6 UV-I 500 W/m 9,9 C 17,2 C 29,0 km/h (5 Bft) 92,86 %
06.05.2016 16:58 21,0 C 49 % 1014,3 hPa 0,0 l/m 24,9 km/h (4 Bft) NO 55 1 min 0,000 mm 1,6 UV-I 498 W/m 9,9 C 16,8 C 35,4 km/h (5 Bft) 100,00 %
06.05.2016 16:59 21,0 C 48 % 1014,3 hPa 0,0 l/m 25,6 km/h (4 Bft) NO 56 1 min 0,000 mm 1,5 UV-I 494 W/m 9,6 C 16,7 C 32,2 km/h (5 Bft) 95,65 %
06.05.2016 17:00 21,0 C 48 % 1014,3 hPa 0,0 l/m 23,5 km/h (4 Bft) O 88 1 min 0,000 mm 1,5 UV-I 490 W/m 9,6 C 16,9 C 30,6 km/h (5 Bft) 95,83 %
06.05.2016 17:01 20,9 C 48 % 1014,3 hPa 0,0 l/m 25,0 km/h (4 Bft) O-NO 78 1 min 0,483 mm 1,5 UV-I 485 W/m 9,5 C 16,6 C 35,4 km/h (5 Bft) 95,65 %
06.05.2016 17:02 20,9 C 49 % 1014,3 hPa 0,0 l/m 24,8 km/h (4 Bft) O-NO 62 1 min 0,000 mm 1,5 UV-I 485 W/m 9,8 C 16,6 C 30,6 km/h (5 Bft) 100,00 %
06.05.2016 17:03 20,9 C 49 % 1014,3 hPa 0,0 l/m 25,5 km/h (4 Bft) O-NO 70 1 min 0,000 mm 1,5 UV-I 483 W/m 9,8 C 16,5 C 30,6 km/h (5 Bft) 87,50 %
06.05.2016 17:04 20,9 C 48 % 1014,3 hPa 0,0 l/m 22,0 km/h (4 Bft) NO 40 1 min 0,000 mm 1,5 UV-I 483 W/m 9,5 C 17,0 C 30,6 km/h (5 Bft) 100,00 %
06.05.2016 17:05 20,9 C 48 % 1014,2 hPa 0,0 l/m 22,5 km/h (4 Bft) O-NO 74 1 min 0,000 mm 1,4 UV-I 481 W/m 9,5 C 17,0 C 27,4 km/h (4 Bft) 100,00 %
06.05.2016 17:06 20,9 C 49 % 1014,3 hPa 0,0 l/m 23,8 km/h (4 Bft) O-NO 64 1 min 0,000 mm 1,4 UV-I 478 W/m 9,8 C 16,8 C 30,6 km/h (5 Bft) 100,00 %
06.05.2016 17:07 20,9 C 50 % 1014,2 hPa 0,0 l/m 26,6 km/h (4 Bft) O 79 1 min 0,000 mm 1,4 UV-I 475 W/m 10,1 C 16,4 C 33,8 km/h (5 Bft) 100,00 %
06.05.2016 17:08 20,9 C 51 % 1014,2 hPa 0,0 l/m 20,9 km/h (4 Bft) O-NO 62 1 min 0,000 mm 1,4 UV-I 472 W/m 10,4 C 17,2 C 29,0 km/h (5 Bft) 95,65 %
06.05.2016 17:09 20,9 C 50 % 1014,2 hPa 0,0 l/m 18,4 km/h (3 Bft) NO 36 1 min 0,000 mm 1,4 UV-I 469 W/m 10,1 C 17,7 C 24,1 km/h (4 Bft) 100,00 %
06.05.2016 17:10 20,9 C 50 % 1014,2 hPa 0,0 l/m 23,2 km/h (4 Bft) O-NO 59 1 min 0,000 mm 1,4 UV-I 466 W/m 10,1 C 16,9 C 29,0 km/h (5 Bft) 91,30 %
06.05.2016 17:11 20,9 C 47 % 1014,2 hPa 0,0 l/m 25,2 km/h (4 Bft) O-NO 59 1 min 0,000 mm 1,3 UV-I 462 W/m 9,2 C 16,6 C 33,8 km/h (5 Bft) 95,83 %
06.05.2016 17:12 20,9 C 48 % 1014,2 hPa 0,0 l/m 26,8 km/h (4 Bft) O-NO 72 1 min 0,000 mm 1,3 UV-I 459 W/m 9,5 C 16,4 C 35,4 km/h (5 Bft) 100,00 %
06.05.2016 17:13 20,8 C 47 % 1014,2 hPa 0,0 l/m 24,4 km/h (4 Bft) NO 47 1 min 0,000 mm 1,3 UV-I 457 W/m 9,1 C 16,6 C 32,2 km/h (5 Bft) 100,00 %
06.05.2016 17:14 20,8 C 49 % 1014,2 hPa 0,0 l/m 18,4 km/h (3 Bft) NO 50 1 min 0,000 mm 1,3 UV-I 455 W/m 9,7 C 17,5 C 24,1 km/h (4 Bft) 91,30 %
06.05.2016 17:15 20,8 C 48 % 1014,2 hPa 0,0 l/m 20,6 km/h (4 Bft) O 84 1 min 0,000 mm 1,3 UV-I 454 W/m 9,4 C 17,1 C 27,4 km/h (4 Bft) 100,00 %
06.05.2016 17:16 20,8 C 48 % 1014,2 hPa 0,0 l/m 19,2 km/h (3 Bft) O-NO 57 1 min 0,000 mm 1,3 UV-I 452 W/m 9,4 C 17,4 C 27,4 km/h (4 Bft) 95,65 %
06.05.2016 17:17 20,8 C 49 % 1014,2 hPa 0,0 l/m 24,7 km/h (4 Bft) N-NO 19 1 min 0,000 mm 1,3 UV-I 449 W/m 9,7 C 16,5 C 33,8 km/h (5 Bft) 100,00 %
06.05.2016 17:18 20,8 C 48 % 1014,1 hPa 0,0 l/m 22,7 km/h (4 Bft) O-NO 69 1 min 0,000 mm 1,3 UV-I 448 W/m 9,4 C 16,8 C 29,0 km/h (5 Bft) 100,00 %
06.05.2016 17:19 20,8 C 47 % 1014,1 hPa 0,0 l/m 19,5 km/h (3 Bft) O-NO 66 1 min 0,000 mm 1,2 UV-I 445 W/m 9,1 C 17,3 C 25,7 km/h (4 Bft) 100,00 %
06.05.2016 17:20 20,8 C 48 % 1014,2 hPa 0,0 l/m 22,8 km/h (4 Bft) O-NO 77 1 min 0,000 mm 1,2 UV-I 440 W/m 9,4 C 16,8 C 32,2 km/h (5 Bft) 100,00 %
06.05.2016 17:21 20,8 C 47 % 1014,1 hPa 0,0 l/m 23,0 km/h (4 Bft) O 81 1 min 0,000 mm 1,2 UV-I 438 W/m 9,1 C 16,8 C 32,2 km/h (5 Bft) 100,00 %
06.05.2016 17:22 20,8 C 48 % 1014,1 hPa 0,0 l/m 23,0 km/h (4 Bft) O-NO 64 1 min 0,000 mm 1,2 UV-I 433 W/m 9,4 C 16,8 C 30,6 km/h (5 Bft) 100,00 %
06.05.2016 17:23 20,8 C 47 % 1014,1 hPa 0,0 l/m 20,9 km/h (4 Bft) O-NO 68 1 min 0,000 mm 1,2 UV-I 428 W/m 9,1 C 17,1 C 29,0 km/h (5 Bft) 100,00 %
06.05.2016 17:24 20,8 C 48 % 1014,1 hPa 0,0 l/m 18,9 km/h (3 Bft) O-NO 59 1 min 0,000 mm 1,2 UV-I 425 W/m 9,4 C 17,4 C 25,7 km/h (4 Bft) 95,65 %
06.05.2016 17:25 20,8 C 49 % 1014,1 hPa 0,0 l/m 22,3 km/h (4 Bft) O 82 1 min 0,000 mm 1,1 UV-I 422 W/m 9,7 C 16,9 C 30,6 km/h (5 Bft) 95,83 %
06.05.2016 17:26 20,8 C 48 % 1014,1 hPa 0,0 l/m 23,6 km/h (4 Bft) O-SO 113 1 min 0,000 mm 1,1 UV-I 418 W/m 9,4 C 16,7 C 30,6 km/h (5 Bft) 100,00 %
06.05.2016 17:27 20,8 C 48 % 1014,1 hPa 0,0 l/m 22,7 km/h (4 Bft) NO 48 1 min 0,000 mm 1,1 UV-I 417 W/m 9,4 C 16,8 C 30,6 km/h (5 Bft) 100,00 %
06.05.2016 17:28 20,8 C 48 % 1014,1 hPa 0,0 l/m 24,2 km/h (4 Bft) O 82 1 min 0,000 mm 1,1 UV-I 415 W/m 9,4 C 16,6 C 33,8 km/h (5 Bft) 100,00 %
06.05.2016 17:29 20,8 C 48 % 1014,0 hPa 0,0 l/m 16,7 km/h (3 Bft) O-NO 58 1 min 0,000 mm 1,1 UV-I 412 W/m 9,4 C 17,9 C 25,7 km/h (4 Bft) 95,65 %
06.05.2016 17:30 20,8 C 49 % 1014,0 hPa 0,0 l/m 19,4 km/h (3 Bft) O-NO 71 1 min 0,000 mm 1,1 UV-I 410 W/m 9,7 C 17,3 C 30,6 km/h (5 Bft) 100,00 %
06.05.2016 17:31 20,8 C 49 % 1014,0 hPa 0,0 l/m 25,2 km/h (4 Bft) NO 54 1 min 0,000 mm 1,1 UV-I 408 W/m 9,7 C 16,4 C 30,6 km/h (5 Bft) 95,65 %
06.05.2016 17:32 20,8 C 47 % 1014,0 hPa 0,0 l/m 21,2 km/h (4 Bft) N-NO 31 1 min 0,000 mm 1,1 UV-I 405 W/m 9,1 C 17,0 C 27,4 km/h (4 Bft) 100,00 %
06.05.2016 17:33 20,7 C 49 % 1014,0 hPa 0,0 l/m 22,4 km/h (4 Bft) O-NO 61 1 min 0,000 mm 1,0 UV-I 401 W/m 9,6 C 16,7 C 30,6 km/h (5 Bft) 100,00 %
06.05.2016 17:34 20,7 C 48 % 1014,0 hPa 0,0 l/m 20,9 km/h (4 Bft) O-NO 61 1 min 0,000 mm 1,0 UV-I 398 W/m 9,3 C 17,0 C 25,7 km/h (4 Bft) 100,00 %
06.05.2016 17:35 20,7 C 48 % 1013,9 hPa 0,0 l/m 20,9 km/h (4 Bft) NO 51 1 min 0,000 mm 1,0 UV-I 396 W/m 9,3 C 17,0 C 27,4 km/h (4 Bft) 100,00 %
06.05.2016 17:36 20,7 C 48 % 1013,9 hPa 0,0 l/m 19,4 km/h (3 Bft) NO 36 1 min 0,000 mm 1,0 UV-I 394 W/m 9,3 C 17,2 C 25,7 km/h (4 Bft) 100,00 %
06.05.2016 17:37 20,7 C 49 % 1014,0 hPa 0,0 l/m 20,8 km/h (4 Bft) O-NO 71 1 min 0,000 mm 1,0 UV-I 390 W/m 9,6 C 17,0 C 27,4 km/h (4 Bft) 100,00 %
06.05.2016 17:38 20,7 C 49 % 1014,0 hPa 0,0 l/m 21,3 km/h (4 Bft) O 81 1 min 0,000 mm 1,0 UV-I 386 W/m 9,6 C 16,9 C 25,7 km/h (4 Bft) 100,00 %
06.05.2016 17:39 20,7 C 48 % 1014,0 hPa 0,0 l/m 22,5 km/h (4 Bft) O-NO 70 1 min 0,000 mm 1,0 UV-I 382 W/m 9,3 C 16,7 C 29,0 km/h (5 Bft) 100,00 %
06.05.2016 17:40 20,7 C 47 % 1013,9 hPa 0,0 l/m 22,1 km/h (4 Bft) NO 51 1 min 0,000 mm 0,9 UV-I 380 W/m 9,0 C 16,8 C 32,2 km/h (5 Bft) 100,00 %
06.05.2016 17:41 20,7 C 47 % 1014,0 hPa 0,0 l/m 21,1 km/h (4 Bft) NO 43 1 min 0,000 mm 0,9 UV-I 377 W/m 9,0 C 16,9 C 29,0 km/h (5 Bft) 100,00 %
06.05.2016 17:42 20,7 C 48 % 1013,9 hPa 0,0 l/m 20,8 km/h (4 Bft) O 80 1 min 0,000 mm 0,9 UV-I 374 W/m 9,3 C 17,0 C 25,7 km/h (4 Bft) 100,00 %
06.05.2016 17:43 20,7 C 48 % 1014,0 hPa 0,0 l/m 17,0 km/h (3 Bft) O 100 1 min 0,000 mm 0,9 UV-I 373 W/m 9,3 C 17,7 C 25,7 km/h (4 Bft) 100,00 %
06.05.2016 17:44 20,7 C 49 % 1013,9 hPa 0,0 l/m 14,1 km/h (3 Bft) O-NO 74 1 min 0,000 mm 0,9 UV-I 367 W/m 9,6 C 18,3 C 19,3 km/h (3 Bft) 95,65 %
06.05.2016 17:45 20,7 C 50 % 1014,0 hPa 0,0 l/m 12,5 km/h (3 Bft) O-NO 72 1 min 0,000 mm 0,9 UV-I 362 W/m 9,9 C 18,7 C 22,5 km/h (4 Bft) 100,00 %
06.05.2016 17:46 20,7 C 48 % 1014,0 hPa 0,0 l/m 20,1 km/h (4 Bft) O-NO 59 1 min 0,000 mm 0,9 UV-I 362 W/m 9,3 C 17,1 C 29,0 km/h (5 Bft) 95,65 %
06.05.2016 17:47 20,7 C 47 % 1014,0 hPa 0,0 l/m 22,5 km/h (4 Bft) N-NO 32 1 min 0,000 mm 0,8 UV-I 356 W/m 9,0 C 16,7 C 27,4 km/h (4 Bft) 100,00 %
06.05.2016 17:48 20,7 C 46 % 1013,9 hPa 0,0 l/m 17,0 km/h (3 Bft) NO 44 1 min 0,000 mm 0,8 UV-I 353 W/m 8,7 C 17,7 C 24,1 km/h (4 Bft) 100,00 %
06.05.2016 17:49 20,6 C 48 % 1013,9 hPa 0,0 l/m 16,2 km/h (3 Bft) O-NO 65 1 min 0,000 mm 0,8 UV-I 351 W/m 9,2 C 17,7 C 24,1 km/h (4 Bft) 95,83 %
06.05.2016 17:50 20,6 C 49 % 1013,9 hPa 0,0 l/m 14,8 km/h (3 Bft) O-NO 62 1 min 0,000 mm 0,8 UV-I 347 W/m 9,5 C 18,0 C 22,5 km/h (4 Bft) 100,00 %
06.05.2016 17:51 20,6 C 48 % 1013,9 hPa 0,0 l/m 17,2 km/h (3 Bft) O-NO 72 1 min 0,000 mm 0,8 UV-I 345 W/m 9,2 C 17,5 C 24,1 km/h (4 Bft) 100,00 %
06.05.2016 17:52 20,6 C 49 % 1013,9 hPa 0,0 l/m 17,8 km/h (3 Bft) O 87 1 min 0,000 mm 0,8 UV-I 343 W/m 9,5 C 17,4 C 27,4 km/h (4 Bft) 100,00 %
06.05.2016 17:53 20,6 C 48 % 1013,9 hPa 0,0 l/m 22,9 km/h (4 Bft) NO 47 1 min 0,000 mm 0,8 UV-I 341 W/m 9,2 C 16,5 C 30,6 km/h (5 Bft) 100,00 %
06.05.2016 17:54 20,5 C 47 % 1013,9 hPa 0,0 l/m 21,2 km/h (4 Bft) O-NO 67 1 min 0,000 mm 0,8 UV-I 339 W/m 8,8 C 16,6 C 29,0 km/h (5 Bft) 100,00 %
06.05.2016 17:55 20,5 C 46 % 1013,8 hPa 0,0 l/m 20,2 km/h (4 Bft) O-NO 78 1 min 0,000 mm 0,8 UV-I 337 W/m 8,5 C 16,8 C 30,6 km/h (5 Bft) 100,00 %
06.05.2016 17:56 20,5 C 46 % 1013,8 hPa 0,0 l/m 24,3 km/h (4 Bft) O 83 1 min 0,000 mm 0,7 UV-I 333 W/m 8,5 C 16,2 C 33,8 km/h (5 Bft) 95,65 %
06.05.2016 17:57 20,4 C 47 % 1013,9 hPa 0,0 l/m 20,6 km/h (4 Bft) O-NO 76 1 min 0,000 mm 0,7 UV-I 330 W/m 8,7 C 16,6 C 30,6 km/h (5 Bft) 100,00 %
06.05.2016 17:58 20,4 C 46 % 1013,8 hPa 0,0 l/m 22,8 km/h (4 Bft) O-NO 63 1 min 0,000 mm 0,7 UV-I 329 W/m 8,4 C 16,3 C 32,2 km/h (5 Bft) 100,00 %
06.05.2016 17:59 20,4 C 48 % 1013,9 hPa 0,0 l/m 15,8 km/h (3 Bft) O 80 1 min 0,000 mm 0,7 UV-I 326 W/m 9,0 C 17,6 C 22,5 km/h (4 Bft) 100,00 %
06.05.2016 18:00 20,4 C 46 % 1013,9 hPa 0,0 l/m 24,7 km/h (4 Bft) O-NO 59 1 min 0,000 mm 0,7 UV-I 322 W/m 8,4 C 16,0 C 33,8 km/h (5 Bft) 100,00 %
06.05.2016 18:01 20,4 C 45 % 1013,8 hPa 0,0 l/m 25,1 km/h (4 Bft) O-NO 61 1 min 0,381 mm 0,7 UV-I 319 W/m 8,1 C 15,9 C 33,8 km/h (5 Bft) 100,00 %
06.05.2016 18:02 20,4 C 47 % 1013,9 hPa 0,0 l/m 26,7 km/h (4 Bft) O-NO 66 1 min 0,000 mm 0,7 UV-I 315 W/m 8,7 C 15,7 C 33,8 km/h (5 Bft) 100,00 %
06.05.2016 18:03 20,4 C 46 % 1013,8 hPa 0,0 l/m 21,9 km/h (4 Bft) O 80 1 min 0,000 mm 0,7 UV-I 312 W/m 8,4 C 16,4 C 27,4 km/h (4 Bft) 100,00 %
06.05.2016 18:04 20,4 C 46 % 1013,8 hPa 0,0 l/m 24,5 km/h (4 Bft) NO 46 1 min 0,000 mm 0,7 UV-I 309 W/m 8,4 C 16,0 C 35,4 km/h (5 Bft) 100,00 %
06.05.2016 18:05 20,4 C 46 % 1013,8 hPa 0,0 l/m 23,1 km/h (4 Bft) O-NO 64 1 min 0,000 mm 0,6 UV-I 308 W/m 8,4 C 16,2 C 29,0 km/h (5 Bft) 100,00 %
06.05.2016 18:06 20,3 C 47 % 1013,8 hPa 0,0 l/m 21,3 km/h (4 Bft) NO 50 1 min 0,000 mm 0,6 UV-I 304 W/m 8,6 C 16,4 C 29,0 km/h (5 Bft) 100,00 %
06.05.2016 18:07 20,3 C 46 % 1013,7 hPa 0,0 l/m 23,9 km/h (4 Bft) O-NO 60 1 min 0,000 mm 0,6 UV-I 302 W/m 8,3 C 16,0 C 29,0 km/h (5 Bft) 95,65 %
06.05.2016 18:08 20,3 C 47 % 1013,7 hPa 0,0 l/m 28,5 km/h (4 Bft) O-NO 63 1 min 0,000 mm 0,6 UV-I 299 W/m 8,6 C 15,3 C 35,4 km/h (5 Bft) 100,00 %
06.05.2016 18:09 20,3 C 46 % 1013,7 hPa 0,0 l/m 24,1 km/h (4 Bft) O 79 1 min 0,000 mm 0,6 UV-I 296 W/m 8,3 C 15,9 C 30,6 km/h (5 Bft) 100,00 %
06.05.2016 18:10 20,3 C 46 % 1013,7 hPa 0,0 l/m 22,8 km/h (4 Bft) O-NO 73 1 min 0,000 mm 0,6 UV-I 294 W/m 8,3 C 16,1 C 29,0 km/h (5 Bft) 100,00 %
06.05.2016 18:11 20,3 C 46 % 1013,7 hPa 0,0 l/m 22,1 km/h (4 Bft) O-NO 69 1 min 0,000 mm 0,6 UV-I 290 W/m 8,3 C 16,2 C 27,4 km/h (4 Bft) 92,86 %
06.05.2016 18:12 20,3 C 46 % 1013,7 hPa 0,0 l/m 22,4 km/h (4 Bft) O-NO 63 1 min 0,000 mm 0,6 UV-I 287 W/m 8,3 C 16,2 C 30,6 km/h (5 Bft) 100,00 %
06.05.2016 18:13 20,3 C 46 % 1013,8 hPa 0,0 l/m 18,8 km/h (3 Bft) NO 46 1 min 0,000 mm 0,6 UV-I 284 W/m 8,3 C 16,8 C 27,4 km/h (4 Bft) 96,15 %
06.05.2016 18:14 20,3 C 47 % 1013,8 hPa 0,0 l/m 15,2 km/h (3 Bft) O 84 1 min 0,000 mm 0,6 UV-I 280 W/m 8,6 C 17,6 C 20,9 km/h (4 Bft) 100,00 %
06.05.2016 18:15 20,2 C 47 % 1013,8 hPa 0,0 l/m 22,1 km/h (4 Bft) O 85 1 min 0,000 mm 0,5 UV-I 277 W/m 8,5 C 16,1 C 33,8 km/h (5 Bft) 100,00 %
06.05.2016 18:16 20,2 C 46 % 1013,8 hPa 0,0 l/m 20,0 km/h (4 Bft) O-NO 62 1 min 0,000 mm 0,5 UV-I 275 W/m 8,2 C 16,5 C 25,7 km/h (4 Bft) 100,00 %
06.05.2016 18:17 20,2 C 48 % 1013,8 hPa 0,0 l/m 17,0 km/h (3 Bft) NO 39 1 min 0,000 mm 0,5 UV-I 271 W/m 8,8 C 17,0 C 22,5 km/h (4 Bft) 100,00 %
06.05.2016 18:18 20,2 C 48 % 1013,8 hPa 0,0 l/m 18,6 km/h (3 Bft) O-NO 59 1 min 0,000 mm 0,5 UV-I 268 W/m 8,8 C 16,7 C 27,4 km/h (4 Bft) 100,00 %
06.05.2016 18:19 20,2 C 47 % 1013,8 hPa 0,0 l/m 22,9 km/h (4 Bft) O-NO 71 1 min 0,000 mm 0,5 UV-I 264 W/m 8,5 C 16,0 C 30,6 km/h (5 Bft) 100,00 %
06.05.2016 18:20 20,2 C 46 % 1013,7 hPa 0,0 l/m 22,3 km/h (4 Bft) O-NO 69 1 min 0,000 mm 0,5 UV-I 261 W/m 8,2 C 16,1 C 29,0 km/h (5 Bft) 100,00 %
06.05.2016 18:21 20,1 C 47 % 1013,8 hPa 0,0 l/m 17,6 km/h (3 Bft) O-NO 74 1 min 0,000 mm 0,5 UV-I 259 W/m 8,4 C 16,8 C 22,5 km/h (4 Bft) 100,00 %
06.05.2016 18:22 20,1 C 47 % 1013,7 hPa 0,0 l/m 20,4 km/h (4 Bft) O-NO 63 1 min 0,000 mm 0,5 UV-I 257 W/m 8,4 C 16,3 C 29,0 km/h (5 Bft) 100,00 %
06.05.2016 18:23 20,1 C 47 % 1013,7 hPa 0,0 l/m 21,5 km/h (4 Bft) O-NO 63 1 min 0,000 mm 0,5 UV-I 255 W/m 8,4 C 16,1 C 25,7 km/h (4 Bft) 95,65 %
06.05.2016 18:24 20,1 C 47 % 1013,7 hPa 0,0 l/m 18,2 km/h (3 Bft) NO 53 1 min 0,000 mm 0,5 UV-I 251 W/m 8,4 C 16,7 C 22,5 km/h (4 Bft) 95,83 %
06.05.2016 18:25 20,1 C 48 % 1013,8 hPa 0,0 l/m 19,4 km/h (3 Bft) NO 53 1 min 0,000 mm 0,0 UV-I 249 W/m 8,7 C 16,4 C 22,5 km/h (4 Bft) 100,00 %
06.05.2016 18:26 20,1 C 48 % 1013,7 hPa 0,0 l/m 18,5 km/h (3 Bft) O 82 1 min 0,000 mm 0,0 UV-I 248 W/m 8,7 C 16,6 C 24,1 km/h (4 Bft) 95,83 %
06.05.2016 18:27 20,0 C 48 % 1013,7 hPa 0,0 l/m 16,2 km/h (3 Bft) O 84 1 min 0,000 mm 0,0 UV-I 245 W/m 8,7 C 17,0 C 20,9 km/h (4 Bft) 100,00 %
06.05.2016 18:28 20,0 C 47 % 1013,8 hPa 0,0 l/m 19,8 km/h (3 Bft) O 89 1 min 0,000 mm 0,0 UV-I 242 W/m 8,3 C 16,2 C 27,4 km/h (4 Bft) 95,65 %
06.05.2016 18:29 20,0 C 47 % 1013,8 hPa 0,0 l/m 20,4 km/h (4 Bft) O 82 1 min 0,000 mm 0,0 UV-I 237 W/m 8,3 C 16,1 C 32,2 km/h (5 Bft) 100,00 %
06.05.2016 18:30 20,0 C 47 % 1013,7 hPa 0,0 l/m 21,2 km/h (4 Bft) NO 41 1 min 0,000 mm 0,0 UV-I 236 W/m 8,3 C 16,0 C 29,0 km/h (5 Bft) 95,65 %
06.05.2016 18:31 20,0 C 46 % 1013,7 hPa 0,0 l/m 21,9 km/h (4 Bft) O 80 1 min 0,000 mm 0,0 UV-I 233 W/m 8,0 C 15,9 C 30,6 km/h (5 Bft) 91,67 %
06.05.2016 18:32 19,9 C 46 % 1013,8 hPa 0,0 l/m 20,7 km/h (4 Bft) O 84 1 min 0,000 mm 0,0 UV-I 231 W/m 7,9 C 15,9 C 25,7 km/h (4 Bft) 95,65 %
06.05.2016 18:33 19,9 C 47 % 1013,7 hPa 0,0 l/m 19,3 km/h (3 Bft) O-NO 75 1 min 0,000 mm 0,0 UV-I 228 W/m 8,3 C 16,2 C 33,8 km/h (5 Bft) 95,83 %
06.05.2016 18:34 19,9 C 47 % 1013,7 hPa 0,0 l/m 18,5 km/h (3 Bft) O-NO 64 1 min 0,000 mm 0,0 UV-I 227 W/m 8,3 C 16,4 C 24,1 km/h (4 Bft) 94,12 %
06.05.2016 18:35 19,9 C 47 % 1013,7 hPa 0,0 l/m 16,9 km/h (3 Bft) O-NO 57 1 min 0,000 mm 0,0 UV-I 221 W/m 8,3 C 16,7 C 22,5 km/h (4 Bft) 100,00 %
06.05.2016 18:36 19,9 C 48 % 1013,7 hPa 0,0 l/m 17,2 km/h (3 Bft) NO 54 1 min 0,000 mm 0,0 UV-I 218 W/m 8,6 C 16,6 C 22,5 km/h (4 Bft) 95,65 %
06.05.2016 18:37 19,8 C 49 % 1013,6 hPa 0,0 l/m 20,0 km/h (4 Bft) O-NO 72 1 min 0,000 mm 0,0 UV-I 216 W/m 8,8 C 15,9 C 24,1 km/h (4 Bft) 100,00 %
06.05.2016 18:38 19,8 C 48 % 1013,6 hPa 0,0 l/m 18,6 km/h (3 Bft) NO 53 1 min 0,000 mm 0,0 UV-I 212 W/m 8,5 C 16,2 C 22,5 km/h (4 Bft) 96,15 %
06.05.2016 18:39 19,8 C 48 % 1013,7 hPa 0,0 l/m 19,7 km/h (3 Bft) O-NO 75 1 min 0,000 mm 0,0 UV-I 208 W/m 8,5 C 16,0 C 29,0 km/h (5 Bft) 95,83 %
06.05.2016 18:40 19,8 C 47 % 1013,6 hPa 0,0 l/m 18,9 km/h (3 Bft) NO 42 1 min 0,000 mm 0,0 UV-I 206 W/m 8,2 C 16,2 C 25,7 km/h (4 Bft) 95,65 %
06.05.2016 18:41 19,8 C 47 % 1013,7 hPa 0,0 l/m 21,5 km/h (4 Bft) O-NO 59 1 min 0,000 mm 0,0 UV-I 202 W/m 8,2 C 15,7 C 27,4 km/h (4 Bft) 96,30 %
06.05.2016 18:42 19,8 C 47 % 1013,6 hPa 0,0 l/m 18,2 km/h (3 Bft) O 83 1 min 0,000 mm 0,0 UV-I 198 W/m 8,2 C 16,3 C 24,1 km/h (4 Bft) 100,00 %
06.05.2016 18:43 19,8 C 47 % 1013,7 hPa 0,0 l/m 16,3 km/h (3 Bft) NO 55 1 min 0,000 mm 0,0 UV-I 194 W/m 8,2 C 16,7 C 20,9 km/h (4 Bft) 95,83 %
06.05.2016 18:44 19,8 C 48 % 1013,7 hPa 0,0 l/m 17,3 km/h (3 Bft) O-NO 63 1 min 0,000 mm 0,0 UV-I 192 W/m 8,5 C 16,5 C 22,5 km/h (4 Bft) 100,00 %
06.05.2016 18:45 19,8 C 49 % 1013,7 hPa 0,0 l/m 16,0 km/h (3 Bft) O-NO 62 1 min 0,000 mm 0,0 UV-I 189 W/m 8,8 C 16,8 C 22,5 km/h (4 Bft) 96,15 %
06.05.2016 18:46 19,7 C 49 % 1013,7 hPa 0,0 l/m 15,0 km/h (3 Bft) NO 38 1 min 0,000 mm 0,0 UV-I 186 W/m 8,7 C 16,9 C 20,9 km/h (4 Bft) 100,00 %
06.05.2016 18:47 19,7 C 49 % 1013,7 hPa 0,0 l/m 18,3 km/h (3 Bft) O-NO 57 1 min 0,000 mm 0,0 UV-I 183 W/m 8,7 C 16,2 C 25,7 km/h (4 Bft) 91,30 %
06.05.2016 18:48 19,7 C 48 % 1013,6 hPa 0,0 l/m 19,1 km/h (3 Bft) O-NO 64 1 min 0,000 mm 0,0 UV-I 180 W/m 8,4 C 16,0 C 24,1 km/h (4 Bft) 95,83 %
06.05.2016 18:49 19,7 C 48 % 1013,7 hPa 0,0 l/m 18,8 km/h (3 Bft) O 80 1 min 0,000 mm 0,0 UV-I 177 W/m 8,4 C 16,1 C 24,1 km/h (4 Bft) 95,65 %
06.05.2016 18:50 19,7 C 48 % 1013,6 hPa 0,0 l/m 19,5 km/h (3 Bft) O-NO 60 1 min 0,000 mm 0,0 UV-I 174 W/m 8,4 C 15,9 C 22,5 km/h (4 Bft) 95,83 %
06.05.2016 18:51 19,6 C 49 % 1013,7 hPa 0,0 l/m 18,8 km/h (3 Bft) O-NO 60 1 min 0,000 mm 0,0 UV-I 170 W/m 8,6 C 15,9 C 24,1 km/h (4 Bft) 91,30 %
06.05.2016 18:52 19,6 C 49 % 1013,7 hPa 0,0 l/m 17,4 km/h (3 Bft) O-NO 60 1 min 0,000 mm 0,0 UV-I 169 W/m 8,6 C 16,2 C 25,7 km/h (4 Bft) 95,83 %
06.05.2016 18:53 19,6 C 48 % 1013,7 hPa 0,0 l/m 15,0 km/h (3 Bft) NO 54 1 min 0,000 mm 0,0 UV-I 165 W/m 8,3 C 16,8 C 20,9 km/h (4 Bft) 95,65 %
06.05.2016 18:54 19,6 C 48 % 1013,7 hPa 0,0 l/m 17,9 km/h (3 Bft) O 93 1 min 0,000 mm 0,0 UV-I 161 W/m 8,3 C 16,1 C 22,5 km/h (4 Bft) 96,30 %
06.05.2016 18:55 19,6 C 49 % 1013,6 hPa 0,0 l/m 14,6 km/h (3 Bft) O-NO 65 1 min 0,000 mm 0,0 UV-I 158 W/m 8,6 C 16,9 C 25,7 km/h (4 Bft) 95,65 %
06.05.2016 18:56 19,5 C 48 % 1013,6 hPa 0,0 l/m 22,2 km/h (4 Bft) O-NO 61 1 min 0,000 mm 0,0 UV-I 155 W/m 8,2 C 15,2 C 30,6 km/h (5 Bft) 100,00 %
06.05.2016 18:57 19,5 C 48 % 1013,6 hPa 0,0 l/m 19,6 km/h (3 Bft) NO 54 1 min 0,000 mm 0,0 UV-I 152 W/m 8,2 C 15,6 C 24,1 km/h (4 Bft) 91,30 %
06.05.2016 18:58 19,5 C 48 % 1013,6 hPa 0,0 l/m 20,5 km/h (4 Bft) O-NO 61 1 min 0,000 mm 0,0 UV-I 149 W/m 8,2 C 15,5 C 30,6 km/h (5 Bft) 100,00 %
06.05.2016 18:59 19,5 C 48 % 1013,6 hPa 0,0 l/m 21,5 km/h (4 Bft) O-NO 69 1 min 0,000 mm 0,0 UV-I 145 W/m 8,2 C 15,3 C 30,6 km/h (5 Bft) 91,30 %
06.05.2016 19:00 19,4 C 48 % 1013,6 hPa 0,0 l/m 24,4 km/h (4 Bft) O-NO 62 1 min 0,000 mm 0,0 UV-I 142 W/m 8,1 C 14,7 C 32,2 km/h (5 Bft) 100,00 %
06.05.2016 19:01 19,4 C 48 % 1013,6 hPa 0,0 l/m 18,5 km/h (3 Bft) NO 46 1 min 0,279 mm 0,0 UV-I 139 W/m 8,1 C 15,7 C 20,9 km/h (4 Bft) 100,00 %
06.05.2016 19:02 19,4 C 49 % 1013,6 hPa 0,0 l/m 14,0 km/h (3 Bft) O 84 1 min 0,000 mm 0,0 UV-I 136 W/m 8,4 C 16,8 C 20,9 km/h (4 Bft) 100,00 %
06.05.2016 19:03 19,4 C 48 % 1013,6 hPa 0,0 l/m 19,8 km/h (3 Bft) O-NO 67 1 min 0,000 mm 0,0 UV-I 133 W/m 8,1 C 15,5 C 27,4 km/h (4 Bft) 96,15 %
06.05.2016 19:04 19,3 C 48 % 1013,6 hPa 0,0 l/m 20,8 km/h (4 Bft) O-NO 69 1 min 0,000 mm 0,0 UV-I 130 W/m 8,0 C 15,1 C 30,6 km/h (5 Bft) 100,00 %
06.05.2016 19:05 19,3 C 48 % 1013,6 hPa 0,0 l/m 23,2 km/h (4 Bft) O-NO 58 1 min 0,000 mm 0,0 UV-I 128 W/m 8,0 C 14,7 C 32,2 km/h (5 Bft) 100,00 %
06.05.2016 19:06 19,3 C 47 % 1013,6 hPa 0,0 l/m 20,2 km/h (4 Bft) O-NO 63 1 min 0,000 mm 0,0 UV-I 126 W/m 7,7 C 15,3 C 24,1 km/h (4 Bft) 95,65 %
06.05.2016 19:07 19,3 C 48 % 1013,6 hPa 0,0 l/m 17,0 km/h (3 Bft) NO 34 1 min 0,000 mm 0,0 UV-I 122 W/m 8,0 C 15,9 C 22,5 km/h (4 Bft) 100,00 %
06.05.2016 19:08 19,3 C 48 % 1013,6 hPa 0,0 l/m 19,4 km/h (3 Bft) NO 51 1 min 0,000 mm 0,0 UV-I 119 W/m 8,0 C 15,4 C 25,7 km/h (4 Bft) 100,00 %
06.05.2016 19:09 19,3 C 49 % 1013,6 hPa 0,0 l/m 20,4 km/h (4 Bft) O-NO 65 1 min 0,000 mm 0,0 UV-I 116 W/m 8,3 C 15,2 C 25,7 km/h (4 Bft) 100,00 %
06.05.2016 19:10 19,3 C 49 % 1013,6 hPa 0,0 l/m 18,4 km/h (3 Bft) O-NO 57 1 min 0,000 mm 0,0 UV-I 114 W/m 8,3 C 15,6 C 24,1 km/h (4 Bft) 100,00 %
06.05.2016 19:11 19,3 C 49 % 1013,6 hPa 0,0 l/m 21,7 km/h (4 Bft) O-NO 69 1 min 0,000 mm 0,0 UV-I 111 W/m 8,3 C 15,0 C 27,4 km/h (4 Bft) 100,00 %
06.05.2016 19:12 19,2 C 49 % 1013,6 hPa 0,0 l/m 20,9 km/h (4 Bft) O-NO 78 1 min 0,000 mm 0,0 UV-I 108 W/m 8,2 C 15,0 C 29,0 km/h (5 Bft) 100,00 %
06.05.2016 19:13 19,2 C 49 % 1013,5 hPa 0,0 l/m 18,0 km/h (3 Bft) NO 56 1 min 0,000 mm 0,0 UV-I 104 W/m 8,2 C 15,6 C 24,1 km/h (4 Bft) 100,00 %
06.05.2016 19:14 19,2 C 48 % 1013,6 hPa 0,0 l/m 18,8 km/h (3 Bft) O-NO 63 1 min 0,000 mm 0,0 UV-I 103 W/m 7,9 C 15,4 C 24,1 km/h (4 Bft) 100,00 %
06.05.2016 19:15 19,2 C 48 % 1013,5 hPa 0,0 l/m 20,7 km/h (4 Bft) NO 54 1 min 0,000 mm 0,0 UV-I 100 W/m 7,9 C 15,0 C 29,0 km/h (5 Bft) 100,00 %
06.05.2016 19:16 19,2 C 48 % 1013,6 hPa 0,0 l/m 21,1 km/h (4 Bft) NO 46 1 min 0,000 mm 0,0 UV-I 97 W/m 7,9 C 15,0 C 27,4 km/h (4 Bft) 100,00 %
06.05.2016 19:17 19,2 C 48 % 1013,5 hPa 0,0 l/m 21,1 km/h (4 Bft) O-NO 65 1 min 0,000 mm 0,0 UV-I 94 W/m 7,9 C 15,0 C 29,0 km/h (5 Bft) 100,00 %
06.05.2016 19:18 19,1 C 48 % 1013,5 hPa 0,0 l/m 17,5 km/h (3 Bft) O-NO 61 1 min 0,000 mm 0,0 UV-I 92 W/m 7,8 C 15,6 C 20,9 km/h (4 Bft) 100,00 %
06.05.2016 19:19 19,1 C 48 % 1013,5 hPa 0,0 l/m 16,9 km/h (3 Bft) O-NO 63 1 min 0,000 mm 0,0 UV-I 89 W/m 7,8 C 15,7 C 25,7 km/h (4 Bft) 100,00 %
06.05.2016 19:20 19,1 C 49 % 1013,5 hPa 0,0 l/m 15,1 km/h (3 Bft) O 79 0 min 0,000 mm 0,0 UV-I 85 W/m 8,1 C 16,1 C 19,3 km/h (3 Bft) 95,65 %
06.05.2016 19:21 19,0 C 49 % 1013,6 hPa 0,0 l/m 15,4 km/h (3 Bft) O-NO 69 0 min 0,000 mm 0,0 UV-I 83 W/m 8,0 C 15,9 C 19,3 km/h (3 Bft) 100,00 %
06.05.2016 19:22 18,9 C 49 % 1013,6 hPa 0,0 l/m 17,2 km/h (3 Bft) O-NO 70 0 min 0,000 mm 0,0 UV-I 81 W/m 7,9 C 15,4 C 22,5 km/h (4 Bft) 100,00 %
06.05.2016 19:23 18,9 C 49 % 1013,6 hPa 0,0 l/m 13,3 km/h (3 Bft) O-NO 69 0 min 0,000 mm 0,0 UV-I 78 W/m 7,9 C 16,4 C 17,7 km/h (3 Bft) 100,00 %
06.05.2016 19:24 18,9 C 50 % 1013,6 hPa 0,0 l/m 16,2 km/h (3 Bft) O-NO 58 0 min 0,000 mm 0,0 UV-I 77 W/m 8,2 C 15,6 C 19,3 km/h (3 Bft) 100,00 %
06.05.2016 19:25 18,9 C 50 % 1013,6 hPa 0,0 l/m 15,8 km/h (3 Bft) O-NO 59 0 min 0,000 mm 0,0 UV-I 75 W/m 8,2 C 15,7 C 19,3 km/h (3 Bft) 100,00 %
06.05.2016 19:26 18,8 C 50 % 1013,6 hPa 0,0 l/m 13,3 km/h (3 Bft) O-NO 57 0 min 0,000 mm 0,0 UV-I 73 W/m 8,2 C 16,3 C 19,3 km/h (3 Bft) 100,00 %
06.05.2016 19:27 18,8 C 50 % 1013,6 hPa 0,0 l/m 14,6 km/h (3 Bft) O-NO 62 0 min 0,000 mm 0,0 UV-I 70 W/m 8,2 C 15,9 C 19,3 km/h (3 Bft) 95,65 %
06.05.2016 19:28 18,8 C 50 % 1013,6 hPa 0,0 l/m 12,7 km/h (3 Bft) NO 53 0 min 0,000 mm 0,0 UV-I 69 W/m 8,2 C 16,4 C 16,1 km/h (3 Bft) 100,00 %
06.05.2016 19:29 18,7 C 50 % 1013,6 hPa 0,0 l/m 16,0 km/h (3 Bft) NO 45 0 min 0,000 mm 0,0 UV-I 66 W/m 8,1 C 15,4 C 20,9 km/h (4 Bft) 100,00 %
06.05.2016 19:30 18,7 C 50 % 1013,6 hPa 0,0 l/m 17,1 km/h (3 Bft) NO 54 0 min 0,000 mm 0,0 UV-I 64 W/m 8,1 C 15,2 C 22,5 km/h (4 Bft) 100,00 %
06.05.2016 19:31 18,7 C 51 % 1013,6 hPa 0,0 l/m 15,3 km/h (3 Bft) NO 51 0 min 0,000 mm 0,0 UV-I 62 W/m 8,4 C 15,6 C 19,3 km/h (3 Bft) 100,00 %
06.05.2016 19:32 18,6 C 50 % 1013,6 hPa 0,0 l/m 20,2 km/h (4 Bft) O-NO 69 0 min 0,000 mm 0,0 UV-I 61 W/m 8,0 C 14,4 C 25,7 km/h (4 Bft) 100,00 %
06.05.2016 19:33 18,6 C 50 % 1013,6 hPa 0,0 l/m 18,3 km/h (3 Bft) O-NO 70 0 min 0,000 mm 0,0 UV-I 58 W/m 8,0 C 14,8 C 24,1 km/h (4 Bft) 100,00 %
06.05.2016 19:34 18,6 C 51 % 1013,6 hPa 0,0 l/m 15,6 km/h (3 Bft) NO 53 0 min 0,000 mm 0,0 UV-I 56 W/m 8,3 C 15,4 C 25,7 km/h (4 Bft) 100,00 %
06.05.2016 19:35 18,5 C 51 % 1013,6 hPa 0,0 l/m 21,6 km/h (4 Bft) NO 55 0 min 0,000 mm 0,0 UV-I 54 W/m 8,2 C 14,0 C 29,0 km/h (5 Bft) 100,00 %
06.05.2016 19:36 18,5 C 51 % 1013,6 hPa 0,0 l/m 17,4 km/h (3 Bft) NO 50 0 min 0,000 mm 0,0 UV-I 52 W/m 8,2 C 14,8 C 22,5 km/h (4 Bft) 100,00 %
06.05.2016 19:37 18,5 C 50 % 1013,6 hPa 0,0 l/m 12,4 km/h (3 Bft) O 83 0 min 0,000 mm 0,0 UV-I 50 W/m 7,9 C 16,2 C 16,1 km/h (3 Bft) 100,00 %
06.05.2016 19:38 18,5 C 51 % 1013,6 hPa 0,0 l/m 14,7 km/h (3 Bft) O-NO 78 0 min 0,000 mm 0,0 UV-I 48 W/m 8,2 C 15,5 C 17,7 km/h (3 Bft) 100,00 %
06.05.2016 19:39 18,4 C 51 % 1013,6 hPa 0,0 l/m 17,2 km/h (3 Bft) NO 36 0 min 0,000 mm 0,0 UV-I 46 W/m 8,1 C 14,8 C 20,9 km/h (4 Bft) 100,00 %
06.05.2016 19:40 18,4 C 51 % 1013,6 hPa 0,0 l/m 13,5 km/h (3 Bft) O-NO 64 0 min 0,000 mm 0,0 UV-I 44 W/m 8,1 C 15,7 C 17,7 km/h (3 Bft) 100,00 %
06.05.2016 19:41 18,4 C 51 % 1013,6 hPa 0,0 l/m 14,1 km/h (3 Bft) O-NO 68 0 min 0,000 mm 0,0 UV-I 44 W/m 8,1 C 15,6 C 19,3 km/h (3 Bft) 95,65 %
06.05.2016 19:42 18,3 C 52 % 1013,6 hPa 0,0 l/m 12,7 km/h (3 Bft) NO 56 0 min 0,000 mm 0,0 UV-I 42 W/m 8,3 C 15,9 C 16,1 km/h (3 Bft) 100,00 %
06.05.2016 19:43 18,3 C 52 % 1013,6 hPa 0,0 l/m 13,4 km/h (3 Bft) NO 44 0 min 0,000 mm 0,0 UV-I 39 W/m 8,3 C 15,6 C 19,3 km/h (3 Bft) 100,00 %
06.05.2016 19:44 18,3 C 51 % 1013,7 hPa 0,0 l/m 13,0 km/h (3 Bft) NO 50 0 min 0,000 mm 0,0 UV-I 38 W/m 8,0 C 15,8 C 16,1 km/h (3 Bft) 100,00 %
06.05.2016 19:45 18,3 C 51 % 1013,7 hPa 0,0 l/m 12,7 km/h (3 Bft) O-NO 71 0 min 0,000 mm 0,0 UV-I 35 W/m 8,0 C 15,9 C 19,3 km/h (3 Bft) 100,00 %
06.05.2016 19:46 18,2 C 52 % 1013,7 hPa 0,0 l/m 13,7 km/h (3 Bft) NO 47 0 min 0,000 mm 0,0 UV-I 35 W/m 8,2 C 15,4 C 16,1 km/h (3 Bft) 100,00 %
06.05.2016 19:47 18,2 C 52 % 1013,6 hPa 0,0 l/m 14,4 km/h (3 Bft) O-NO 61 0 min 0,000 mm 0,0 UV-I 33 W/m 8,2 C 15,2 C 19,3 km/h (3 Bft) 100,00 %
06.05.2016 19:48 18,2 C 52 % 1013,7 hPa 0,0 l/m 13,5 km/h (3 Bft) O-NO 71 0 min 0,000 mm 0,0 UV-I 31 W/m 8,2 C 15,5 C 16,1 km/h (3 Bft) 100,00 %
06.05.2016 19:49 18,2 C 52 % 1013,7 hPa 0,0 l/m 14,7 km/h (3 Bft) O-NO 65 0 min 0,000 mm 0,0 UV-I 30 W/m 8,2 C 15,2 C 20,9 km/h (4 Bft) 95,83 %
06.05.2016 19:50 18,1 C 52 % 1013,7 hPa 0,0 l/m 16,0 km/h (3 Bft) O-NO 59 0 min 0,000 mm 0,0 UV-I 28 W/m 8,1 C 14,7 C 19,3 km/h (3 Bft) 100,00 %
06.05.2016 19:51 18,1 C 52 % 1013,7 hPa 0,0 l/m 14,8 km/h (3 Bft) O-NO 75 0 min 0,000 mm 0,0 UV-I 26 W/m 8,1 C 15,0 C 19,3 km/h (3 Bft) 100,00 %
06.05.2016 19:52 18,1 C 51 % 1013,7 hPa 0,0 l/m 16,0 km/h (3 Bft) O-NO 59 0 min 0,000 mm 0,0 UV-I 25 W/m 7,8 C 14,7 C 22,5 km/h (4 Bft) 95,65 %
06.05.2016 19:53 18,1 C 52 % 1013,6 hPa 0,0 l/m 14,8 km/h (3 Bft) O-NO 76 0 min 0,000 mm 0,0 UV-I 24 W/m 8,1 C 15,0 C 20,9 km/h (4 Bft) 100,00 %
06.05.2016 19:54 18,0 C 52 % 1013,7 hPa 0,0 l/m 11,8 km/h (2 Bft) NO 56 0 min 0,000 mm 0,0 UV-I 23 W/m 8,0 C 15,8 C 16,1 km/h (3 Bft) 100,00 %
06.05.2016 19:55 18,0 C 52 % 1013,7 hPa 0,0 l/m 13,9 km/h (3 Bft) NO 49 0 min 0,000 mm 0,0 UV-I 22 W/m 8,0 C 15,1 C 17,7 km/h (3 Bft) 100,00 %
06.05.2016 19:56 17,9 C 52 % 1013,6 hPa 0,0 l/m 14,1 km/h (3 Bft) NO 49 0 min 0,000 mm 0,0 UV-I 21 W/m 7,9 C 15,0 C 20,9 km/h (4 Bft) 100,00 %
06.05.2016 19:57 17,9 C 53 % 1013,6 hPa 0,0 l/m 13,8 km/h (3 Bft) O-NO 61 0 min 0,000 mm 0,0 UV-I 19 W/m 8,2 C 15,0 C 17,7 km/h (3 Bft) 100,00 %
06.05.2016 19:58 17,9 C 53 % 1013,6 hPa 0,0 l/m 13,3 km/h (3 Bft) NO 56 0 min 0,000 mm 0,0 UV-I 19 W/m 8,2 C 15,2 C 19,3 km/h (3 Bft) 95,65 %
06.05.2016 19:59 17,8 C 53 % 1013,6 hPa 0,0 l/m 13,1 km/h (3 Bft) O-NO 58 0 min 0,000 mm 0,0 UV-I 19 W/m 8,1 C 15,1 C 17,7 km/h (3 Bft) 100,00 %
06.05.2016 20:00 17,8 C 53 % 1013,6 hPa 0,0 l/m 10,6 km/h (2 Bft) O-NO 61 0 min 0,000 mm 0,0 UV-I 18 W/m 8,1 C 16,0 C 17,7 km/h (3 Bft) 100,00 %
06.05.2016 20:01 17,7 C 53 % 1013,6 hPa 0,0 l/m 11,0 km/h (2 Bft) NO 48 0 min 0,152 mm 0,0 UV-I 18 W/m 8,0 C 15,7 C 14,5 km/h (3 Bft) 100,00 %
06.05.2016 20:02 17,7 C 54 % 1013,6 hPa 0,0 l/m 13,0 km/h (3 Bft) NO 40 0 min 0,000 mm 0,0 UV-I 18 W/m 8,3 C 15,1 C 16,1 km/h (3 Bft) 100,00 %
06.05.2016 20:03 17,7 C 53 % 1013,6 hPa 0,0 l/m 14,8 km/h (3 Bft) O 83 0 min 0,000 mm 0,0 UV-I 16 W/m 8,0 C 14,5 C 20,9 km/h (4 Bft) 100,00 %
06.05.2016 20:04 17,6 C 53 % 1013,6 hPa 0,0 l/m 15,5 km/h (3 Bft) O-NO 61 0 min 0,000 mm 0,0 UV-I 16 W/m 7,9 C 14,2 C 19,3 km/h (3 Bft) 100,00 %
06.05.2016 20:05 17,6 C 53 % 1013,6 hPa 0,0 l/m 14,5 km/h (3 Bft) O-NO 64 0 min 0,000 mm 0,0 UV-I 16 W/m 7,9 C 14,5 C 17,7 km/h (3 Bft) 95,65 %
06.05.2016 20:06 17,6 C 53 % 1013,6 hPa 0,0 l/m 13,5 km/h (3 Bft) NO 47 0 min 0,000 mm 0,0 UV-I 15 W/m 7,9 C 14,8 C 17,7 km/h (3 Bft) 100,00 %
06.05.2016 20:07 17,6 C 53 % 1013,6 hPa 0,0 l/m 13,8 km/h (3 Bft) O-NO 58 0 min 0,000 mm 0,0 UV-I 14 W/m 7,9 C 14,7 C 17,7 km/h (3 Bft) 100,00 %
06.05.2016 20:08 17,6 C 53 % 1013,6 hPa 0,0 l/m 11,2 km/h (2 Bft) NO 46 0 min 0,000 mm 0,0 UV-I 14 W/m 7,9 C 15,5 C 14,5 km/h (3 Bft) 100,00 %
06.05.2016 20:09 17,5 C 53 % 1013,6 hPa 0,0 l/m 11,6 km/h (2 Bft) NO 41 0 min 0,000 mm 0,0 UV-I 14 W/m 7,8 C 15,3 C 16,1 km/h (3 Bft) 100,00 %
06.05.2016 20:10 17,4 C 53 % 1013,6 hPa 0,0 l/m 10,2 km/h (2 Bft) O-NO 57 0 min 0,000 mm 0,0 UV-I 12 W/m 7,7 C 15,7 C 14,5 km/h (3 Bft) 95,83 %
06.05.2016 20:11 17,4 C 54 % 1013,6 hPa 0,0 l/m 8,8 km/h (2 Bft) O-NO 71 1 min 0,000 mm 0,0 UV-I 12 W/m 8,0 C 16,3 C 16,1 km/h (3 Bft) 100,00 %
06.05.2016 20:12 17,3 C 54 % 1013,6 hPa 0,0 l/m 11,1 km/h (2 Bft) N-NO 28 1 min 0,000 mm 0,0 UV-I 12 W/m 7,9 C 15,2 C 17,7 km/h (3 Bft) 100,00 %
06.05.2016 20:13 17,3 C 54 % 1013,6 hPa 0,0 l/m 12,1 km/h (2 Bft) O-NO 69 1 min 0,000 mm 0,0 UV-I 11 W/m 7,9 C 14,9 C 16,1 km/h (3 Bft) 95,65 %
06.05.2016 20:14 17,3 C 54 % 1013,6 hPa 0,0 l/m 11,6 km/h (2 Bft) O-NO 76 0 min 0,000 mm 0,0 UV-I 11 W/m 7,9 C 15,1 C 16,1 km/h (3 Bft) 100,00 %
06.05.2016 20:15 17,2 C 54 % 1013,6 hPa 0,0 l/m 12,5 km/h (3 Bft) NO 43 0 min 0,000 mm 0,0 UV-I 11 W/m 7,8 C 14,6 C 17,7 km/h (3 Bft) 100,00 %
06.05.2016 20:16 17,2 C 55 % 1013,6 hPa 0,0 l/m 12,1 km/h (2 Bft) NO 36 0 min 0,000 mm 0,0 UV-I 10 W/m 8,1 C 14,8 C 16,1 km/h (3 Bft) 100,00 %
06.05.2016 20:17 17,1 C 55 % 1013,6 hPa 0,0 l/m 12,1 km/h (2 Bft) O-NO 60 0 min 0,000 mm 0,0 UV-I 9 W/m 8,0 C 14,7 C 17,7 km/h (3 Bft) 95,65 %
06.05.2016 20:18 17,1 C 54 % 1013,6 hPa 0,0 l/m 14,8 km/h (3 Bft) O-NO 70 0 min 0,000 mm 0,0 UV-I 9 W/m 7,7 C 13,8 C 20,9 km/h (4 Bft) 100,00 %
06.05.2016 20:19 17,1 C 55 % 1013,6 hPa 0,0 l/m 12,2 km/h (2 Bft) O-NO 57 0 min 0,000 mm 0,0 UV-I 9 W/m 8,0 C 14,6 C 17,7 km/h (3 Bft) 100,00 %
06.05.2016 20:20 17,0 C 55 % 1013,6 hPa 0,0 l/m 14,7 km/h (3 Bft) NO 42 0 min 0,000 mm 0,0 UV-I 7 W/m 7,9 C 13,7 C 20,9 km/h (4 Bft) 100,00 %
06.05.2016 20:21 17,0 C 54 % 1013,6 hPa 0,0 l/m 17,0 km/h (3 Bft) O-NO 74 0 min 0,000 mm 0,0 UV-I 7 W/m 7,6 C 13,1 C 22,5 km/h (4 Bft) 100,00 %
06.05.2016 20:22 16,9 C 54 % 1013,6 hPa 0,0 l/m 13,3 km/h (3 Bft) NO 42 0 min 0,000 mm 0,0 UV-I 7 W/m 7,5 C 14,0 C 17,7 km/h (3 Bft) 100,00 %
06.05.2016 20:23 16,9 C 54 % 1013,6 hPa 0,0 l/m 14,7 km/h (3 Bft) N-NO 24 0 min 0,000 mm 0,0 UV-I 7 W/m 7,5 C 13,6 C 20,9 km/h (4 Bft) 95,65 %
06.05.2016 20:24 16,9 C 54 % 1013,6 hPa 0,0 l/m 14,0 km/h (3 Bft) O-NO 63 0 min 0,000 mm 0,0 UV-I 6 W/m 7,5 C 13,8 C 16,1 km/h (3 Bft) 100,00 %
06.05.2016 20:25 16,9 C 54 % 1013,6 hPa 0,0 l/m 15,2 km/h (3 Bft) O-NO 57 0 min 0,000 mm 0,0 UV-I 5 W/m 7,5 C 13,4 C 20,9 km/h (4 Bft) 91,67 %
06.05.2016 20:26 16,9 C 54 % 1013,6 hPa 0,0 l/m 14,7 km/h (3 Bft) O-NO 67 0 min 0,000 mm 0,0 UV-I 5 W/m 7,5 C 13,6 C 19,3 km/h (3 Bft) 100,00 %
06.05.2016 20:27 16,9 C 53 % 1013,6 hPa 0,0 l/m 17,6 km/h (3 Bft) NO 53 0 min 0,000 mm 0,0 UV-I 5 W/m 7,3 C 12,8 C 22,5 km/h (4 Bft) 100,00 %
06.05.2016 20:28 16,9 C 53 % 1013,7 hPa 0,0 l/m 14,8 km/h (3 Bft) O-NO 59 0 min 0,000 mm 0,0 UV-I 5 W/m 7,3 C 13,6 C 20,9 km/h (4 Bft) 91,30 %
06.05.2016 20:29 16,9 C 54 % 1013,6 hPa 0,0 l/m 14,1 km/h (3 Bft) O-NO 61 0 min 0,000 mm 0,0 UV-I 5 W/m 7,5 C 13,8 C 19,3 km/h (3 Bft) 100,00 %
06.05.2016 20:30 16,9 C 54 % 1013,7 hPa 0,0 l/m 10,4 km/h (2 Bft) NO 40 0 min 0,000 mm 0,0 UV-I 2 W/m 7,5 C 15,1 C 16,1 km/h (3 Bft) 100,00 %
06.05.2016 20:31 16,8 C 54 % 1013,6 hPa 0,0 l/m 12,9 km/h (3 Bft) NO 55 0 min 0,000 mm 0,0 UV-I 0 W/m 7,4 C 14,0 C 17,7 km/h (3 Bft) 97,22 %
06.05.2016 20:32 16,8 C 54 % 1013,7 hPa 0,0 l/m 15,3 km/h (3 Bft) O-NO 60 0 min 0,000 mm 0,0 UV-I 0 W/m 7,4 C 13,3 C 20,9 km/h (4 Bft) 100,00 %
06.05.2016 20:33 16,8 C 54 % 1013,7 hPa 0,0 l/m 14,7 km/h (3 Bft) NO 34 0 min 0,000 mm 0,0 UV-I 0 W/m 7,4 C 13,5 C 17,7 km/h (3 Bft) 95,83 %
06.05.2016 20:34 16,8 C 54 % 1013,7 hPa 0,0 l/m 12,6 km/h (3 Bft) O 80 0 min 0,000 mm 0,0 UV-I 0 W/m 7,4 C 14,1 C 16,1 km/h (3 Bft) 95,65 %
06.05.2016 20:35 16,8 C 54 % 1013,7 hPa 0,0 l/m 14,2 km/h (3 Bft) O-NO 65 0 min 0,000 mm 0,0 UV-I 0 W/m 7,4 C 13,6 C 20,9 km/h (4 Bft) 100,00 %
06.05.2016 20:36 16,7 C 54 % 1013,7 hPa 0,0 l/m 15,0 km/h (3 Bft) O-NO 69 0 min 0,000 mm 0,0 UV-I 0 W/m 7,3 C 13,3 C 22,5 km/h (4 Bft) 95,83 %
06.05.2016 20:37 16,7 C 53 % 1013,7 hPa 0,0 l/m 16,0 km/h (3 Bft) O-NO 57 0 min 0,000 mm 0,0 UV-I 0 W/m 7,1 C 13,0 C 24,1 km/h (4 Bft) 100,00 %
06.05.2016 20:38 16,7 C 53 % 1013,7 hPa 0,0 l/m 17,5 km/h (3 Bft) O-NO 70 0 min 0,000 mm 0,0 UV-I 0 W/m 7,1 C 12,6 C 24,1 km/h (4 Bft) 95,83 %
06.05.2016 20:39 16,7 C 53 % 1013,7 hPa 0,0 l/m 13,5 km/h (3 Bft) O-NO 71 0 min 0,000 mm 0,0 UV-I 0 W/m 7,1 C 13,7 C 19,3 km/h (3 Bft) 95,65 %
06.05.2016 20:40 16,7 C 53 % 1013,7 hPa 0,0 l/m 15,5 km/h (3 Bft) O-NO 73 0 min 0,000 mm 0,0 UV-I 0 W/m 7,1 C 13,1 C 20,9 km/h (4 Bft) 95,83 %
06.05.2016 20:41 16,7 C 53 % 1013,8 hPa 0,0 l/m 11,5 km/h (2 Bft) O-NO 60 0 min 0,000 mm 0,0 UV-I 0 W/m 7,1 C 14,4 C 17,7 km/h (3 Bft) 95,65 %
06.05.2016 20:42 16,7 C 53 % 1013,7 hPa 0,0 l/m 17,2 km/h (3 Bft) O-NO 68 0 min 0,000 mm 0,0 UV-I 0 W/m 7,1 C 12,6 C 24,1 km/h (4 Bft) 100,00 %
06.05.2016 20:43 16,7 C 53 % 1013,8 hPa 0,0 l/m 15,4 km/h (3 Bft) O-NO 63 0 min 0,000 mm 0,0 UV-I 0 W/m 7,1 C 13,1 C 20,9 km/h (4 Bft) 95,65 %
06.05.2016 20:44 16,7 C 53 % 1013,7 hPa 0,0 l/m 12,1 km/h (2 Bft) NO 51 0 min 0,000 mm 0,0 UV-I 0 W/m 7,1 C 14,2 C 16,1 km/h (3 Bft) 95,83 %
06.05.2016 20:45 16,7 C 53 % 1013,8 hPa 0,0 l/m 10,7 km/h (2 Bft) NO 56 0 min 0,000 mm 0,0 UV-I 0 W/m 7,1 C 14,7 C 17,7 km/h (3 Bft) 91,30 %
06.05.2016 20:46 16,7 C 54 % 1013,7 hPa 0,0 l/m 8,8 km/h (2 Bft) NO 55 0 min 0,000 mm 0,0 UV-I 0 W/m 7,3 C 15,5 C 14,5 km/h (3 Bft) 100,00 %
06.05.2016 20:47 16,6 C 54 % 1013,7 hPa 0,0 l/m 10,8 km/h (2 Bft) NO 53 0 min 0,000 mm 0,0 UV-I 0 W/m 7,3 C 14,6 C 16,1 km/h (3 Bft) 95,65 %
06.05.2016 20:48 16,6 C 54 % 1013,8 hPa 0,0 l/m 11,1 km/h (2 Bft) O-NO 59 0 min 0,000 mm 0,0 UV-I 0 W/m 7,3 C 14,4 C 14,5 km/h (3 Bft) 100,00 %
06.05.2016 20:49 16,5 C 54 % 1013,8 hPa 0,0 l/m 9,7 km/h (2 Bft) O-NO 59 0 min 0,000 mm 0,0 UV-I 0 W/m 7,2 C 14,9 C 14,5 km/h (3 Bft) 91,30 %
06.05.2016 20:50 16,4 C 54 % 1013,8 hPa 0,0 l/m 8,0 km/h (2 Bft) NO 46 0 min 0,000 mm 0,0 UV-I 0 W/m 7,1 C 15,6 C 12,9 km/h (3 Bft) 91,67 %
06.05.2016 20:51 16,4 C 54 % 1013,7 hPa 0,0 l/m 13,0 km/h (3 Bft) O-NO 62 0 min 0,000 mm 0,0 UV-I 0 W/m 7,1 C 13,5 C 19,3 km/h (3 Bft) 100,00 %
06.05.2016 20:52 16,3 C 54 % 1013,8 hPa 0,0 l/m 10,1 km/h (2 Bft) O-NO 63 0 min 0,000 mm 0,0 UV-I 0 W/m 7,0 C 14,5 C 16,1 km/h (3 Bft) 95,83 %
06.05.2016 20:53 16,3 C 55 % 1013,9 hPa 0,0 l/m 7,4 km/h (2 Bft) O-NO 61 0 min 0,000 mm 0,0 UV-I 0 W/m 7,2 C 15,8 C 12,9 km/h (3 Bft) 100,00 %
06.05.2016 20:54 16,2 C 56 % 1013,9 hPa 0,0 l/m 6,4 km/h (2 Bft) O-NO 76 0 min 0,000 mm 0,0 UV-I 0 W/m 7,4 C 16,2 C 9,7 km/h (2 Bft) 96,30 %
06.05.2016 20:55 16,1 C 56 % 1013,9 hPa 0,0 l/m 5,5 km/h (1 Bft) NO 46 0 min 0,000 mm 0,0 UV-I 0 W/m 7,3 C 16,1 C 8,0 km/h (2 Bft) 100,00 %
06.05.2016 20:56 15,9 C 57 % 1013,9 hPa 0,0 l/m 7,3 km/h (2 Bft) NO 53 0 min 0,000 mm 0,0 UV-I 0 W/m 7,4 C 15,4 C 9,7 km/h (2 Bft) 95,83 %
06.05.2016 20:57 15,8 C 58 % 1013,9 hPa 0,0 l/m 6,4 km/h (2 Bft) NO 51 0 min 0,000 mm 0,0 UV-I 0 W/m 7,6 C 15,8 C 8,0 km/h (2 Bft) 92,31 %
06.05.2016 20:58 15,7 C 58 % 1013,9 hPa 0,0 l/m 7,2 km/h (2 Bft) NO 39 0 min 0,000 mm 0,0 UV-I 0 W/m 7,5 C 15,3 C 12,9 km/h (3 Bft) 100,00 %
06.05.2016 20:59 15,7 C 58 % 1013,9 hPa 0,0 l/m 7,8 km/h (2 Bft) NO 46 0 min 0,000 mm 0,0 UV-I 0 W/m 7,5 C 14,9 C 11,3 km/h (2 Bft) 95,65 %
06.05.2016 21:00 15,6 C 58 % 1013,9 hPa 0,0 l/m 6,4 km/h (2 Bft) O-NO 59 0 min 0,000 mm 0,0 UV-I 0 W/m 7,4 C 15,6 C 8,0 km/h (2 Bft) 100,00 %
06.05.2016 21:01 15,6 C 59 % 1013,9 hPa 0,0 l/m 5,2 km/h (1 Bft) NO 56 0 min 0,077 mm 0,0 UV-I 0 W/m 7,6 C 15,6 C 6,4 km/h (2 Bft) 95,65 %
06.05.2016 21:02 15,4 C 60 % 1013,9 hPa 0,0 l/m 7,2 km/h (2 Bft) NO 46 0 min 0,000 mm 0,0 UV-I 0 W/m 7,7 C 15,0 C 9,7 km/h (2 Bft) 100,00 %
06.05.2016 21:03 15,3 C 60 % 1013,9 hPa 0,0 l/m 8,5 km/h (2 Bft) N-NO 18 0 min 0,000 mm 0,0 UV-I 0 W/m 7,6 C 14,2 C 11,3 km/h (2 Bft) 95,83 %
06.05.2016 21:04 15,1 C 60 % 1013,9 hPa 0,0 l/m 10,4 km/h (2 Bft) NO 35 0 min 0,000 mm 0,0 UV-I 0 W/m 7,4 C 13,1 C 14,5 km/h (3 Bft) 100,00 %
06.05.2016 21:05 15,0 C 61 % 1013,9 hPa 0,0 l/m 9,0 km/h (2 Bft) NO 37 0 min 0,000 mm 0,0 UV-I 0 W/m 7,5 C 13,6 C 14,5 km/h (3 Bft) 100,00 %
06.05.2016 21:06 14,9 C 61 % 1013,9 hPa 0,0 l/m 9,1 km/h (2 Bft) NO 45 0 min 0,000 mm 0,0 UV-I 0 W/m 7,4 C 13,4 C 11,3 km/h (2 Bft) 100,00 %
06.05.2016 21:07 14,8 C 61 % 1013,9 hPa 0,0 l/m 8,0 km/h (2 Bft) NO 51 0 min 0,000 mm 0,0 UV-I 0 W/m 7,4 C 13,9 C 9,7 km/h (2 Bft) 100,00 %
06.05.2016 21:08 14,8 C 61 % 1014,0 hPa 0,0 l/m 9,2 km/h (2 Bft) NO 44 0 min 0,000 mm 0,0 UV-I 0 W/m 7,4 C 13,3 C 14,5 km/h (3 Bft) 100,00 %
06.05.2016 21:09 14,8 C 62 % 1014,0 hPa 0,0 l/m 8,6 km/h (2 Bft) NO 50 0 min 0,000 mm 0,0 UV-I 0 W/m 7,6 C 13,6 C 11,3 km/h (2 Bft) 100,00 %
06.05.2016 21:10 14,7 C 62 % 1014,0 hPa 0,0 l/m 6,9 km/h (2 Bft) O-NO 58 0 min 0,000 mm 0,0 UV-I 0 W/m 7,5 C 14,4 C 11,3 km/h (2 Bft) 100,00 %
06.05.2016 21:11 14,8 C 61 % 1014,0 hPa 0,0 l/m 7,8 km/h (2 Bft) O-NO 59 0 min 0,000 mm 0,0 UV-I 0 W/m 7,4 C 14,0 C 16,1 km/h (3 Bft) 100,00 %
06.05.2016 21:12 14,8 C 61 % 1013,9 hPa 0,0 l/m 8,0 km/h (2 Bft) NO 49 0 min 0,000 mm 0,0 UV-I 0 W/m 7,4 C 13,9 C 9,7 km/h (2 Bft) 95,65 %
06.05.2016 21:13 14,8 C 61 % 1014,0 hPa 0,0 l/m 7,6 km/h (2 Bft) O-NO 63 0 min 0,000 mm 0,0 UV-I 0 W/m 7,4 C 14,1 C 12,9 km/h (3 Bft) 100,00 %
06.05.2016 21:14 14,8 C 61 % 1014,0 hPa 0,0 l/m 6,4 km/h (2 Bft) NO 51 0 min 0,000 mm 0,0 UV-I 0 W/m 7,4 C 14,8 C 8,0 km/h (2 Bft) 100,00 %
06.05.2016 21:15 14,8 C 61 % 1014,0 hPa 0,0 l/m 7,8 km/h (2 Bft) NO 44 0 min 0,000 mm 0,0 UV-I 0 W/m 7,4 C 14,0 C 11,3 km/h (2 Bft) 95,83 %
06.05.2016 21:16 14,8 C 62 % 1014,0 hPa 0,0 l/m 7,6 km/h (2 Bft) NO 49 0 min 0,000 mm 0,0 UV-I 0 W/m 7,6 C 14,1 C 12,9 km/h (3 Bft) 96,15 %
06.05.2016 21:17 14,8 C 61 % 1014,0 hPa 0,0 l/m 5,0 km/h (1 Bft) NO 54 0 min 0,000 mm 0,0 UV-I 0 W/m 7,4 C 14,8 C 8,0 km/h (2 Bft) 95,83 %
06.05.2016 21:18 14,8 C 61 % 1014,0 hPa 0,0 l/m 7,3 km/h (2 Bft) NO 49 0 min 0,000 mm 0,0 UV-I 0 W/m 7,4 C 14,3 C 12,9 km/h (3 Bft) 95,65 %
06.05.2016 21:19 14,8 C 61 % 1014,0 hPa 0,0 l/m 7,4 km/h (2 Bft) O-NO 58 0 min 0,000 mm 0,0 UV-I 0 W/m 7,4 C 14,2 C 9,7 km/h (2 Bft) 100,00 %
06.05.2016 21:20 14,9 C 61 % 1014,0 hPa 0,0 l/m 7,9 km/h (2 Bft) O-NO 65 0 min 0,000 mm 0,0 UV-I 0 W/m 7,4 C 14,1 C 11,3 km/h (2 Bft) 95,65 %
06.05.2016 21:21 14,9 C 61 % 1014,0 hPa 0,0 l/m 7,6 km/h (2 Bft) O-NO 67 0 min 0,000 mm 0,0 UV-I 0 W/m 7,4 C 14,2 C 12,9 km/h (3 Bft) 100,00 %
06.05.2016 21:22 14,9 C 61 % 1014,0 hPa 0,0 l/m 8,0 km/h (2 Bft) O-NO 66 0 min 0,000 mm 0,0 UV-I 0 W/m 7,4 C 14,0 C 12,9 km/h (3 Bft) 100,00 %
06.05.2016 21:23 14,9 C 61 % 1014,0 hPa 0,0 l/m 10,4 km/h (2 Bft) O-NO 62 0 min 0,000 mm 0,0 UV-I 0 W/m 7,4 C 12,8 C 14,5 km/h (3 Bft) 100,00 %
06.05.2016 21:24 14,9 C 61 % 1014,0 hPa 0,0 l/m 9,7 km/h (2 Bft) NO 49 0 min 0,000 mm 0,0 UV-I 0 W/m 7,4 C 13,1 C 12,9 km/h (3 Bft) 100,00 %
06.05.2016 21:25 14,9 C 60 % 1014,0 hPa 0,0 l/m 10,6 km/h (2 Bft) O-NO 57 0 min 0,000 mm 0,0 UV-I 0 W/m 7,2 C 12,7 C 16,1 km/h (3 Bft) 100,00 %
06.05.2016 21:26 14,9 C 60 % 1014,0 hPa 0,0 l/m 9,7 km/h (2 Bft) O-NO 72 0 min 0,000 mm 0,0 UV-I 0 W/m 7,2 C 13,1 C 12,9 km/h (3 Bft) 100,00 %
06.05.2016 21:27 14,9 C 60 % 1014,0 hPa 0,0 l/m 8,9 km/h (2 Bft) NO 55 0 min 0,000 mm 0,0 UV-I 0 W/m 7,2 C 13,5 C 12,9 km/h (3 Bft) 95,65 %
06.05.2016 21:28 14,9 C 60 % 1014,0 hPa 0,0 l/m 8,6 km/h (2 Bft) O-NO 63 0 min 0,000 mm 0,0 UV-I 0 W/m 7,2 C 13,7 C 14,5 km/h (3 Bft) 100,00 %
06.05.2016 21:29 15,0 C 60 % 1014,0 hPa 0,0 l/m 9,0 km/h (2 Bft) NO 49 0 min 0,000 mm 0,0 UV-I 0 W/m 7,3 C 13,6 C 12,9 km/h (3 Bft) 100,00 %
06.05.2016 21:30 15,0 C 60 % 1014,0 hPa 0,0 l/m 8,3 km/h (2 Bft) O-NO 69 0 min 0,000 mm 0,0 UV-I 0 W/m 7,3 C 13,9 C 11,3 km/h (2 Bft) 100,00 %
06.05.2016 21:31 15,0 C 60 % 1014,0 hPa 0,0 l/m 9,4 km/h (2 Bft) NO 34 0 min 0,000 mm 0,0 UV-I 0 W/m 7,3 C 13,4 C 14,5 km/h (3 Bft) 100,00 %
06.05.2016 21:32 14,9 C 60 % 1014,0 hPa 0,0 l/m 8,4 km/h (2 Bft) O-NO 66 0 min 0,000 mm 0,0 UV-I 0 W/m 7,2 C 13,8 C 11,3 km/h (2 Bft) 100,00 %
06.05.2016 21:33 14,9 C 60 % 1014,0 hPa 0,0 l/m 10,1 km/h (2 Bft) NO 40 0 min 0,000 mm 0,0 UV-I 0 W/m 7,2 C 13,0 C 16,1 km/h (3 Bft) 100,00 %
06.05.2016 21:34 14,9 C 60 % 1014,0 hPa 0,0 l/m 9,5 km/h (2 Bft) O-NO 60 0 min 0,000 mm 0,0 UV-I 0 W/m 7,2 C 13,2 C 14,5 km/h (3 Bft) 100,00 %
06.05.2016 21:35 14,9 C 60 % 1014,0 hPa 0,0 l/m 8,4 km/h (2 Bft) NO 46 0 min 0,000 mm 0,0 UV-I 0 W/m 7,2 C 13,8 C 11,3 km/h (2 Bft) 95,65 %
06.05.2016 21:36 14,9 C 61 % 1014,0 hPa 0,0 l/m 8,3 km/h (2 Bft) O-NO 63 0 min 0,000 mm 0,0 UV-I 0 W/m 7,4 C 13,8 C 14,5 km/h (3 Bft) 100,00 %
06.05.2016 21:37 14,8 C 60 % 1014,0 hPa 0,0 l/m 6,2 km/h (2 Bft) O-NO 63 0 min 0,000 mm 0,0 UV-I 0 W/m 7,1 C 14,8 C 8,0 km/h (2 Bft) 100,00 %
06.05.2016 21:38 14,8 C 61 % 1014,1 hPa 0,0 l/m 7,3 km/h (2 Bft) O-NO 61 0 min 0,000 mm 0,0 UV-I 0 W/m 7,4 C 14,3 C 11,3 km/h (2 Bft) 96,30 %
06.05.2016 21:39 14,8 C 61 % 1014,0 hPa 0,0 l/m 7,4 km/h (2 Bft) O-NO 59 0 min 0,000 mm 0,0 UV-I 0 W/m 7,4 C 14,2 C 9,7 km/h (2 Bft) 95,65 %
06.05.2016 21:40 14,7 C 61 % 1014,0 hPa 0,0 l/m 5,6 km/h (1 Bft) NO 53 0 min 0,000 mm 0,0 UV-I 0 W/m 7,3 C 14,7 C 8,0 km/h (2 Bft) 100,00 %
06.05.2016 21:41 14,7 C 61 % 1014,0 hPa 0,0 l/m 8,0 km/h (2 Bft) O-NO 67 0 min 0,000 mm 0,0 UV-I 0 W/m 7,3 C 13,8 C 11,3 km/h (2 Bft) 100,00 %
06.05.2016 21:42 14,7 C 61 % 1014,1 hPa 0,0 l/m 8,3 km/h (2 Bft) NO 40 0 min 0,000 mm 0,0 UV-I 0 W/m 7,3 C 13,6 C 12,9 km/h (3 Bft) 95,65 %
06.05.2016 21:43 14,7 C 61 % 1014,1 hPa 0,0 l/m 6,8 km/h (2 Bft) NO 44 0 min 0,000 mm 0,0 UV-I 0 W/m 7,3 C 14,5 C 8,0 km/h (2 Bft) 100,00 %
06.05.2016 21:44 14,7 C 61 % 1014,0 hPa 0,0 l/m 8,6 km/h (2 Bft) NO 51 0 min 0,000 mm 0,0 UV-I 0 W/m 7,3 C 13,5 C 11,3 km/h (2 Bft) 95,65 %
06.05.2016 21:45 14,6 C 61 % 1014,0 hPa 0,0 l/m 7,1 km/h (2 Bft) O-NO 73 0 min 0,000 mm 0,0 UV-I 0 W/m 7,2 C 14,2 C 9,7 km/h (2 Bft) 95,83 %
06.05.2016 21:46 14,6 C 61 % 1014,0 hPa 0,0 l/m 8,4 km/h (2 Bft) NO 50 0 min 0,000 mm 0,0 UV-I 0 W/m 7,2 C 13,5 C 11,3 km/h (2 Bft) 100,00 %
06.05.2016 21:47 14,6 C 61 % 1014,1 hPa 0,0 l/m 8,9 km/h (2 Bft) NO 42 0 min 0,000 mm 0,0 UV-I 0 W/m 7,2 C 13,2 C 12,9 km/h (3 Bft) 100,00 %
06.05.2016 21:48 14,6 C 61 % 1014,0 hPa 0,0 l/m 7,2 km/h (2 Bft) NO 49 0 min 0,000 mm 0,0 UV-I 0 W/m 7,2 C 14,1 C 9,7 km/h (2 Bft) 100,00 %
06.05.2016 21:49 14,6 C 60 % 1014,0 hPa 0,0 l/m 9,4 km/h (2 Bft) O-NO 63 0 min 0,000 mm 0,0 UV-I 0 W/m 6,9 C 13,0 C 12,9 km/h (3 Bft) 100,00 %
06.05.2016 21:50 14,6 C 61 % 1014,0 hPa 0,0 l/m 8,9 km/h (2 Bft) O-NO 60 0 min 0,000 mm 0,0 UV-I 0 W/m 7,2 C 13,2 C 12,9 km/h (3 Bft) 95,65 %
06.05.2016 21:51 14,6 C 60 % 1014,0 hPa 0,0 l/m 8,4 km/h (2 Bft) N-NO 31 0 min 0,000 mm 0,0 UV-I 0 W/m 6,9 C 13,5 C 12,9 km/h (3 Bft) 100,00 %
06.05.2016 21:52 14,6 C 61 % 1014,0 hPa 0,0 l/m 8,9 km/h (2 Bft) O-NO 66 0 min 0,000 mm 0,0 UV-I 0 W/m 7,2 C 13,2 C 14,5 km/h (3 Bft) 91,30 %
06.05.2016 21:53 14,6 C 61 % 1014,0 hPa 0,0 l/m 10,0 km/h (2 Bft) O-NO 77 0 min 0,000 mm 0,0 UV-I 0 W/m 7,2 C 12,7 C 12,9 km/h (3 Bft) 100,00 %
06.05.2016 21:54 14,6 C 61 % 1014,0 hPa 0,0 l/m 8,7 km/h (2 Bft) NO 56 0 min 0,000 mm 0,0 UV-I 0 W/m 7,2 C 13,3 C 11,3 km/h (2 Bft) 100,00 %
06.05.2016 21:55 14,6 C 61 % 1014,0 hPa 0,0 l/m 9,0 km/h (2 Bft) NO 55 0 min 0,000 mm 0,0 UV-I 0 W/m 7,2 C 13,2 C 12,9 km/h (3 Bft) 95,83 %
06.05.2016 21:56 14,5 C 61 % 1014,0 hPa 0,0 l/m 8,1 km/h (2 Bft) O-NO 67 0 min 0,000 mm 0,0 UV-I 0 W/m 7,1 C 13,5 C 11,3 km/h (2 Bft) 100,00 %
06.05.2016 21:57 14,5 C 61 % 1014,0 hPa 0,0 l/m 8,9 km/h (2 Bft) O-NO 61 0 min 0,000 mm 0,0 UV-I 0 W/m 7,1 C 13,1 C 12,9 km/h (3 Bft) 100,00 %
06.05.2016 21:58 14,4 C 60 % 1014,0 hPa 0,0 l/m 9,5 km/h (2 Bft) NO 54 0 min 0,000 mm 0,0 UV-I 0 W/m 6,7 C 12,7 C 12,9 km/h (3 Bft) 95,65 %
06.05.2016 21:59 14,4 C 61 % 1014,0 hPa 0,0 l/m 7,3 km/h (2 Bft) O-NO 65 0 min 0,000 mm 0,0 UV-I 0 W/m 7,0 C 13,9 C 11,3 km/h (2 Bft) 100,00 %
06.05.2016 22:00 14,4 C 61 % 1014,0 hPa 0,0 l/m 10,7 km/h (2 Bft) NO 54 0 min 0,000 mm 0,0 UV-I 0 W/m 7,0 C 12,1 C 14,5 km/h (3 Bft) 100,00 %
06.05.2016 22:01 14,4 C 61 % 1014,0 hPa 0,0 l/m 8,7 km/h (2 Bft) NO 48 0 min 0,050 mm 0,0 UV-I 0 W/m 7,0 C 13,1 C 16,1 km/h (3 Bft) 100,00 %
06.05.2016 22:02 14,4 C 61 % 1014,0 hPa 0,0 l/m 11,3 km/h (2 Bft) O-NO 67 0 min 0,000 mm 0,0 UV-I 0 W/m 7,0 C 11,9 C 16,1 km/h (3 Bft) 100,00 %
06.05.2016 22:03 14,4 C 61 % 1014,1 hPa 0,0 l/m 11,6 km/h (2 Bft) O-NO 70 0 min 0,000 mm 0,0 UV-I 0 W/m 7,0 C 11,7 C 16,1 km/h (3 Bft) 100,00 %
06.05.2016 22:04 14,4 C 60 % 1014,0 hPa 0,0 l/m 10,1 km/h (2 Bft) O-NO 57 0 min 0,000 mm 0,0 UV-I 0 W/m 6,7 C 12,4 C 14,5 km/h (3 Bft) 100,00 %
06.05.2016 22:05 14,3 C 60 % 1014,1 hPa 0,0 l/m 8,6 km/h (2 Bft) NO 52 0 min 0,000 mm 0,0 UV-I 0 W/m 6,6 C 13,0 C 14,5 km/h (3 Bft) 95,65 %
06.05.2016 22:06 14,3 C 60 % 1014,1 hPa 0,0 l/m 11,4 km/h (2 Bft) O-NO 61 0 min 0,000 mm 0,0 UV-I 0 W/m 6,6 C 11,7 C 14,5 km/h (3 Bft) 100,00 %
06.05.2016 22:07 14,3 C 60 % 1014,0 hPa 0,0 l/m 10,7 km/h (2 Bft) NO 54 0 min 0,000 mm 0,0 UV-I 0 W/m 6,6 C 12,0 C 16,1 km/h (3 Bft) 100,00 %
06.05.2016 22:08 14,3 C 60 % 1014,0 hPa 0,0 l/m 10,2 km/h (2 Bft) O-NO 63 0 min 0,000 mm 0,0 UV-I 0 W/m 6,6 C 12,3 C 14,5 km/h (3 Bft) 100,00 %
06.05.2016 22:09 14,3 C 60 % 1014,0 hPa 0,0 l/m 11,0 km/h (2 Bft) NO 47 0 min 0,000 mm 0,0 UV-I 0 W/m 6,6 C 11,9 C 16,1 km/h (3 Bft) 95,65 %
06.05.2016 22:10 14,3 C 60 % 1014,0 hPa 0,0 l/m 9,5 km/h (2 Bft) NO 55 0 min 0,000 mm 0,0 UV-I 0 W/m 6,6 C 12,6 C 14,5 km/h (3 Bft) 96,30 %
06.05.2016 22:11 14,3 C 60 % 1014,0 hPa 0,0 l/m 7,8 km/h (2 Bft) NO 47 0 min 0,000 mm 0,0 UV-I 0 W/m 6,6 C 13,5 C 12,9 km/h (3 Bft) 95,65 %
06.05.2016 22:12 14,3 C 60 % 1013,9 hPa 0,0 l/m 10,5 km/h (2 Bft) O-NO 69 0 min 0,000 mm 0,0 UV-I 0 W/m 6,6 C 12,1 C 14,5 km/h (3 Bft) 100,00 %
06.05.2016 22:13 14,2 C 61 % 1014,0 hPa 0,0 l/m 10,3 km/h (2 Bft) NO 44 0 min 0,000 mm 0,0 UV-I 0 W/m 6,8 C 12,1 C 16,1 km/h (3 Bft) 100,00 %
06.05.2016 22:14 14,2 C 61 % 1014,0 hPa 0,0 l/m 7,8 km/h (2 Bft) NO 53 0 min 0,000 mm 0,0 UV-I 0 W/m 6,8 C 13,4 C 12,9 km/h (3 Bft) 95,83 %
06.05.2016 22:15 14,2 C 60 % 1013,9 hPa 0,0 l/m 10,7 km/h (2 Bft) NO 56 0 min 0,000 mm 0,0 UV-I 0 W/m 6,5 C 11,9 C 14,5 km/h (3 Bft) 100,00 %
06.05.2016 22:16 14,2 C 61 % 1014,0 hPa 0,0 l/m 10,3 km/h (2 Bft) O-NO 70 0 min 0,000 mm 0,0 UV-I 0 W/m 6,8 C 12,1 C 14,5 km/h (3 Bft) 100,00 %
06.05.2016 22:17 14,2 C 61 % 1014,0 hPa 0,0 l/m 9,8 km/h (2 Bft) NO 49 0 min 0,000 mm 0,0 UV-I 0 W/m 6,8 C 12,3 C 14,5 km/h (3 Bft) 100,00 %
06.05.2016 22:18 14,2 C 61 % 1014,0 hPa 0,0 l/m 9,8 km/h (2 Bft) O-NO 59 0 min 0,000 mm 0,0 UV-I 0 W/m 6,8 C 12,3 C 14,5 km/h (3 Bft) 95,65 %
06.05.2016 22:19 14,1 C 61 % 1014,0 hPa 0,0 l/m 9,0 km/h (2 Bft) NO 45 0 min 0,000 mm 0,0 UV-I 0 W/m 6,7 C 12,6 C 11,3 km/h (2 Bft) 100,00 %
06.05.2016 22:20 14,1 C 61 % 1014,0 hPa 0,0 l/m 8,6 km/h (2 Bft) O-NO 65 0 min 0,000 mm 0,0 UV-I 0 W/m 6,7 C 12,8 C 11,3 km/h (2 Bft) 95,65 %
06.05.2016 22:21 14,1 C 61 % 1014,0 hPa 0,0 l/m 9,2 km/h (2 Bft) NO 47 0 min 0,000 mm 0,0 UV-I 0 W/m 6,7 C 12,5 C 14,5 km/h (3 Bft) 100,00 %
06.05.2016 22:22 14,1 C 61 % 1014,0 hPa 0,0 l/m 9,9 km/h (2 Bft) NO 49 0 min 0,000 mm 0,0 UV-I 0 W/m 6,7 C 12,2 C 14,5 km/h (3 Bft) 100,00 %
06.05.2016 22:23 14,1 C 61 % 1014,0 hPa 0,0 l/m 7,4 km/h (2 Bft) O-NO 61 0 min 0,000 mm 0,0 UV-I 0 W/m 6,7 C 13,5 C 11,3 km/h (2 Bft) 100,00 %
06.05.2016 22:24 14,1 C 61 % 1014,0 hPa 0,0 l/m 9,3 km/h (2 Bft) NO 38 0 min 0,000 mm 0,0 UV-I 0 W/m 6,7 C 12,5 C 14,5 km/h (3 Bft) 95,65 %
06.05.2016 22:25 14,0 C 61 % 1014,0 hPa 0,0 l/m 8,7 km/h (2 Bft) O-NO 64 0 min 0,000 mm 0,0 UV-I 0 W/m 6,6 C 12,7 C 12,9 km/h (3 Bft) 100,00 %
06.05.2016 22:26 14,0 C 61 % 1014,0 hPa 0,0 l/m 8,3 km/h (2 Bft) O-NO 58 0 min 0,000 mm 0,0 UV-I 0 W/m 6,6 C 12,9 C 12,9 km/h (3 Bft) 100,00 %
06.05.2016 22:27 14,0 C 61 % 1014,0 hPa 0,0 l/m 9,5 km/h (2 Bft) NO 50 0 min 0,000 mm 0,0 UV-I 0 W/m 6,6 C 12,3 C 12,9 km/h (3 Bft) 100,00 %
06.05.2016 22:28 13,9 C 61 % 1014,0 hPa 0,0 l/m 7,8 km/h (2 Bft) O-NO 57 0 min 0,000 mm 0,0 UV-I 0 W/m 6,5 C 13,1 C 11,3 km/h (2 Bft) 100,00 %
06.05.2016 22:29 13,9 C 62 % 1014,0 hPa 0,0 l/m 7,5 km/h (2 Bft) NO 42 0 min 0,000 mm 0,0 UV-I 0 W/m 6,7 C 13,2 C 9,7 km/h (2 Bft) 95,83 %
06.05.2016 22:30 13,9 C 61 % 1014,0 hPa 0,0 l/m 8,4 km/h (2 Bft) NO 44 0 min 0,000 mm 0,0 UV-I 0 W/m 6,5 C 12,7 C 11,3 km/h (2 Bft) 95,65 %
06.05.2016 22:31 13,9 C 61 % 1014,0 hPa 0,0 l/m 9,8 km/h (2 Bft) O-NO 69 0 min 0,000 mm 0,0 UV-I 0 W/m 6,5 C 12,0 C 14,5 km/h (3 Bft) 95,83 %
06.05.2016 22:32 13,8 C 61 % 1014,0 hPa 0,0 l/m 9,0 km/h (2 Bft) O-NO 61 0 min 0,000 mm 0,0 UV-I 0 W/m 6,4 C 12,3 C 12,9 km/h (3 Bft) 92,31 %
06.05.2016 22:33 13,8 C 61 % 1014,0 hPa 0,0 l/m 8,4 km/h (2 Bft) O-NO 69 0 min 0,000 mm 0,0 UV-I 0 W/m 6,4 C 12,6 C 12,9 km/h (3 Bft) 100,00 %
06.05.2016 22:34 13,8 C 62 % 1014,0 hPa 0,0 l/m 10,7 km/h (2 Bft) NO 40 0 min 0,000 mm 0,0 UV-I 0 W/m 6,6 C 11,5 C 14,5 km/h (3 Bft) 86,96 %
06.05.2016 22:35 13,8 C 62 % 1014,0 hPa 0,0 l/m 10,8 km/h (2 Bft) NO 43 0 min 0,000 mm 0,0 UV-I 0 W/m 6,6 C 11,4 C 14,5 km/h (3 Bft) 97,78 %
06.05.2016 22:36 13,8 C 62 % 1014,0 hPa 0,0 l/m 12,3 km/h (3 Bft) O-NO 70 0 min 0,000 mm 0,0 UV-I 0 W/m 6,6 C 10,8 C 16,1 km/h (3 Bft) 97,44 %
06.05.2016 22:37 13,8 C 62 % 1014,0 hPa 0,0 l/m 10,1 km/h (2 Bft) O-NO 64 0 min 0,000 mm 0,0 UV-I 0 W/m 6,6 C 11,7 C 14,5 km/h (3 Bft) 100,00 %
06.05.2016 22:38 13,7 C 62 % 1014,0 hPa 0,0 l/m 11,7 km/h (2 Bft) O-NO 59 0 min 0,000 mm 0,0 UV-I 0 W/m 6,6 C 10,9 C 14,5 km/h (3 Bft) 95,83 %
06.05.2016 22:39 13,7 C 62 % 1014,0 hPa 0,0 l/m 7,8 km/h (2 Bft) O-NO 66 0 min 0,000 mm 0,0 UV-I 0 W/m 6,6 C 12,9 C 12,9 km/h (3 Bft) 100,00 %
06.05.2016 22:40 13,7 C 62 % 1014,0 hPa 0,0 l/m 10,9 km/h (2 Bft) O-NO 60 0 min 0,000 mm 0,0 UV-I 0 W/m 6,6 C 11,3 C 14,5 km/h (3 Bft) 95,83 %
06.05.2016 22:41 13,7 C 62 % 1014,0 hPa 0,0 l/m 10,5 km/h (2 Bft) NO 56 0 min 0,000 mm 0,0 UV-I 0 W/m 6,6 C 11,4 C 12,9 km/h (3 Bft) 92,31 %
06.05.2016 22:42 13,7 C 62 % 1013,9 hPa 0,0 l/m 8,4 km/h (2 Bft) NO 55 0 min 0,000 mm 0,0 UV-I 0 W/m 6,6 C 12,5 C 11,3 km/h (2 Bft) 100,00 %
06.05.2016 22:43 13,7 C 62 % 1014,0 hPa 0,0 l/m 10,8 km/h (2 Bft) O-NO 69 0 min 0,000 mm 0,0 UV-I 0 W/m 6,6 C 11,3 C 14,5 km/h (3 Bft) 95,65 %
06.05.2016 22:44 13,7 C 62 % 1014,0 hPa 0,0 l/m 10,7 km/h (2 Bft) NO 43 0 min 0,000 mm 0,0 UV-I 0 W/m 6,6 C 11,3 C 14,5 km/h (3 Bft) 95,83 %
06.05.2016 22:45 13,7 C 62 % 1014,0 hPa 0,0 l/m 8,3 km/h (2 Bft) NO 40 0 min 0,000 mm 0,0 UV-I 0 W/m 6,6 C 12,6 C 9,7 km/h (2 Bft) 96,15 %
06.05.2016 22:46 13,7 C 62 % 1013,9 hPa 0,0 l/m 7,0 km/h (2 Bft) O-NO 57 0 min 0,000 mm 0,0 UV-I 0 W/m 6,6 C 13,3 C 12,9 km/h (3 Bft) 100,00 %
06.05.2016 22:47 13,7 C 62 % 1013,9 hPa 0,0 l/m 8,4 km/h (2 Bft) NO 55 0 min 0,000 mm 0,0 UV-I 0 W/m 6,6 C 12,5 C 12,9 km/h (3 Bft) 86,96 %
06.05.2016 22:48 13,6 C 63 % 1013,9 hPa 0,0 l/m 10,8 km/h (2 Bft) NO 49 0 min 0,000 mm 0,0 UV-I 0 W/m 6,7 C 11,2 C 16,1 km/h (3 Bft) 95,83 %
06.05.2016 22:49 13,6 C 63 % 1014,0 hPa 0,0 l/m 8,9 km/h (2 Bft) O-NO 59 0 min 0,000 mm 0,0 UV-I 0 W/m 6,7 C 12,1 C 12,9 km/h (3 Bft) 95,65 %
06.05.2016 22:50 13,6 C 63 % 1014,0 hPa 0,0 l/m 10,1 km/h (2 Bft) NO 53 0 min 0,000 mm 0,0 UV-I 0 W/m 6,7 C 11,5 C 12,9 km/h (3 Bft) 95,83 %
06.05.2016 22:51 13,5 C 63 % 1013,9 hPa 0,0 l/m 9,9 km/h (2 Bft) O-NO 61 0 min 0,000 mm 0,0 UV-I 0 W/m 6,6 C 11,5 C 14,5 km/h (3 Bft) 91,30 %
06.05.2016 22:52 13,5 C 63 % 1013,9 hPa 0,0 l/m 7,8 km/h (2 Bft) O-NO 65 0 min 0,000 mm 0,0 UV-I 0 W/m 6,6 C 12,6 C 12,9 km/h (3 Bft) 95,83 %
06.05.2016 22:53 13,4 C 63 % 1013,9 hPa 0,0 l/m 8,0 km/h (2 Bft) NO 53 0 min 0,000 mm 0,0 UV-I 0 W/m 6,5 C 12,4 C 11,3 km/h (2 Bft) 95,65 %
06.05.2016 22:54 13,4 C 63 % 1013,9 hPa 0,0 l/m 8,2 km/h (2 Bft) NO 40 0 min 0,000 mm 0,0 UV-I 0 W/m 6,5 C 12,3 C 11,3 km/h (2 Bft) 95,83 %
06.05.2016 22:55 13,4 C 64 % 1014,0 hPa 0,0 l/m 6,7 km/h (2 Bft) NO 55 0 min 0,000 mm 0,0 UV-I 0 W/m 6,7 C 13,2 C 9,7 km/h (2 Bft) 95,65 %
06.05.2016 22:56 13,4 C 64 % 1014,0 hPa 0,0 l/m 7,6 km/h (2 Bft) O-NO 71 0 min 0,000 mm 0,0 UV-I 0 W/m 6,7 C 12,7 C 11,3 km/h (2 Bft) 95,83 %
06.05.2016 22:57 13,3 C 64 % 1014,0 hPa 0,0 l/m 7,8 km/h (2 Bft) O-NO 61 0 min 0,000 mm 0,0 UV-I 0 W/m 6,6 C 12,4 C 11,3 km/h (2 Bft) 95,65 %
06.05.2016 22:58 13,3 C 64 % 1014,0 hPa 0,0 l/m 7,2 km/h (2 Bft) NO 48 0 min 0,000 mm 0,0 UV-I 0 W/m 6,6 C 12,8 C 11,3 km/h (2 Bft) 100,00 %
06.05.2016 22:59 13,3 C 64 % 1013,9 hPa 0,0 l/m 9,1 km/h (2 Bft) O-NO 73 0 min 0,000 mm 0,0 UV-I 0 W/m 6,6 C 11,7 C 12,9 km/h (3 Bft) 91,30 %
06.05.2016 23:00 13,3 C 64 % 1013,9 hPa 0,0 l/m 8,4 km/h (2 Bft) O-NO 64 0 min 0,000 mm 0,0 UV-I 0 W/m 6,6 C 12,1 C 11,3 km/h (2 Bft) 100,00 %
06.05.2016 23:01 13,2 C 64 % 1013,9 hPa 0,0 l/m 9,2 km/h (2 Bft) O-NO 58 0 min 0,051 mm 0,0 UV-I 0 W/m 6,5 C 11,5 C 12,9 km/h (3 Bft) 91,67 %
06.05.2016 23:02 13,2 C 64 % 1013,9 hPa 0,0 l/m 9,7 km/h (2 Bft) O-NO 58 0 min 0,000 mm 0,0 UV-I 0 W/m 6,5 C 11,3 C 12,9 km/h (3 Bft) 100,00 %
06.05.2016 23:03 13,2 C 64 % 1013,9 hPa 0,0 l/m 9,7 km/h (2 Bft) O-NO 65 0 min 0,000 mm 0,0 UV-I 0 W/m 6,5 C 11,3 C 12,9 km/h (3 Bft) 100,00 %
06.05.2016 23:04 13,2 C 64 % 1013,9 hPa 0,0 l/m 8,7 km/h (2 Bft) NO 53 0 min 0,000 mm 0,0 UV-I 0 W/m 6,5 C 11,8 C 11,3 km/h (2 Bft) 100,00 %
06.05.2016 23:05 13,2 C 65 % 1013,9 hPa 0,0 l/m 7,7 km/h (2 Bft) NO 42 0 min 0,000 mm 0,0 UV-I 0 W/m 6,8 C 12,4 C 11,3 km/h (2 Bft) 100,00 %
06.05.2016 23:06 13,2 C 65 % 1013,9 hPa 0,0 l/m 7,4 km/h (2 Bft) O-NO 76 0 min 0,000 mm 0,0 UV-I 0 W/m 6,8 C 12,6 C 9,7 km/h (2 Bft) 100,00 %
06.05.2016 23:07 13,2 C 65 % 1013,9 hPa 0,0 l/m 7,5 km/h (2 Bft) O-NO 71 0 min 0,000 mm 0,0 UV-I 0 W/m 6,8 C 12,5 C 9,7 km/h (2 Bft) 100,00 %
06.05.2016 23:08 13,1 C 65 % 1013,9 hPa 0,0 l/m 8,7 km/h (2 Bft) NO 46 0 min 0,000 mm 0,0 UV-I 0 W/m 6,7 C 11,7 C 16,1 km/h (3 Bft) 95,65 %
06.05.2016 23:09 13,1 C 65 % 1013,9 hPa 0,0 l/m 8,9 km/h (2 Bft) O-NO 60 0 min 0,000 mm 0,0 UV-I 0 W/m 6,7 C 11,6 C 14,5 km/h (3 Bft) 95,83 %
06.05.2016 23:10 13,1 C 65 % 1013,9 hPa 0,0 l/m 9,7 km/h (2 Bft) NO 52 0 min 0,000 mm 0,0 UV-I 0 W/m 6,7 C 11,2 C 14,5 km/h (3 Bft) 100,00 %
06.05.2016 23:11 13,1 C 65 % 1013,9 hPa 0,0 l/m 10,0 km/h (2 Bft) O-NO 74 0 min 0,000 mm 0,0 UV-I 0 W/m 6,7 C 11,0 C 14,5 km/h (3 Bft) 100,00 %
06.05.2016 23:12 13,0 C 66 % 1013,9 hPa 0,0 l/m 9,1 km/h (2 Bft) NO 52 0 min 0,000 mm 0,0 UV-I 0 W/m 6,8 C 11,4 C 12,9 km/h (3 Bft) 95,65 %
06.05.2016 23:13 13,0 C 66 % 1013,9 hPa 0,0 l/m 10,9 km/h (2 Bft) NO 49 0 min 0,000 mm 0,0 UV-I 0 W/m 6,8 C 10,5 C 14,5 km/h (3 Bft) 95,83 %
06.05.2016 23:14 13,0 C 65 % 1013,9 hPa 0,0 l/m 8,9 km/h (2 Bft) O-NO 60 0 min 0,000 mm 0,0 UV-I 0 W/m 6,6 C 11,5 C 12,9 km/h (3 Bft) 95,65 %
06.05.2016 23:15 12,9 C 66 % 1013,9 hPa 0,0 l/m 8,9 km/h (2 Bft) O-NO 57 0 min 0,000 mm 0,0 UV-I 0 W/m 6,7 C 11,4 C 12,9 km/h (3 Bft) 95,83 %
06.05.2016 23:16 12,9 C 66 % 1013,9 hPa 0,0 l/m 8,6 km/h (2 Bft) O-NO 67 0 min 0,000 mm 0,0 UV-I 0 W/m 6,7 C 11,5 C 12,9 km/h (3 Bft) 95,65 %
06.05.2016 23:17 12,9 C 66 % 1013,9 hPa 0,0 l/m 8,1 km/h (2 Bft) NO 56 0 min 0,000 mm 0,0 UV-I 0 W/m 6,7 C 11,8 C 11,3 km/h (2 Bft) 100,00 %
06.05.2016 23:18 12,9 C 66 % 1013,9 hPa 0,0 l/m 7,4 km/h (2 Bft) NO 42 0 min 0,000 mm 0,0 UV-I 0 W/m 6,7 C 12,3 C 9,7 km/h (2 Bft) 95,65 %
06.05.2016 23:19 12,9 C 66 % 1013,9 hPa 0,0 l/m 6,3 km/h (2 Bft) NO 48 0 min 0,000 mm 0,0 UV-I 0 W/m 6,7 C 12,9 C 8,0 km/h (2 Bft) 100,00 %
06.05.2016 23:20 12,9 C 66 % 1013,9 hPa 0,0 l/m 6,9 km/h (2 Bft) NO 44 0 min 0,000 mm 0,0 UV-I 0 W/m 6,7 C 12,6 C 8,0 km/h (2 Bft) 100,00 %
06.05.2016 23:21 12,8 C 66 % 1013,9 hPa 0,0 l/m 8,0 km/h (2 Bft) NO 45 0 min 0,000 mm 0,0 UV-I 0 W/m 6,6 C 11,8 C 12,9 km/h (3 Bft) 96,15 %
06.05.2016 23:22 12,8 C 66 % 1013,9 hPa 0,0 l/m 7,1 km/h (2 Bft) NO 42 0 min 0,000 mm 0,0 UV-I 0 W/m 6,6 C 12,4 C 9,7 km/h (2 Bft) 100,00 %
06.05.2016 23:23 12,8 C 67 % 1013,9 hPa 0,0 l/m 6,9 km/h (2 Bft) O-NO 61 0 min 0,000 mm 0,0 UV-I 0 W/m 6,8 C 12,5 C 9,7 km/h (2 Bft) 100,00 %
06.05.2016 23:24 12,8 C 67 % 1013,8 hPa 0,0 l/m 5,4 km/h (1 Bft) NO 50 0 min 0,000 mm 0,0 UV-I 0 W/m 6,8 C 12,8 C 8,0 km/h (2 Bft) 100,00 %
06.05.2016 23:25 12,8 C 67 % 1013,8 hPa 0,0 l/m 6,0 km/h (2 Bft) NO 47 0 min 0,000 mm 0,0 UV-I 0 W/m 6,8 C 12,8 C 8,0 km/h (2 Bft) 100,00 %
06.05.2016 23:26 12,7 C 67 % 1013,8 hPa 0,0 l/m 6,0 km/h (2 Bft) O-NO 67 0 min 0,000 mm 0,0 UV-I 0 W/m 6,7 C 12,7 C 8,0 km/h (2 Bft) 95,83 %
06.05.2016 23:27 12,6 C 67 % 1013,8 hPa 0,0 l/m 6,8 km/h (2 Bft) O-NO 63 0 min 0,000 mm 0,0 UV-I 0 W/m 6,6 C 12,4 C 9,7 km/h (2 Bft) 95,65 %
06.05.2016 23:28 12,6 C 67 % 1013,9 hPa 0,0 l/m 7,5 km/h (2 Bft) O-NO 66 0 min 0,000 mm 0,0 UV-I 0 W/m 6,6 C 11,9 C 11,3 km/h (2 Bft) 100,00 %
06.05.2016 23:29 12,6 C 68 % 1013,8 hPa 0,0 l/m 9,3 km/h (2 Bft) O-NO 66 0 min 0,000 mm 0,0 UV-I 0 W/m 6,9 C 10,8 C 14,5 km/h (3 Bft) 91,30 %
06.05.2016 23:30 12,6 C 68 % 1013,8 hPa 0,0 l/m 7,6 km/h (2 Bft) O-NO 68 0 min 0,000 mm 0,0 UV-I 0 W/m 6,9 C 11,8 C 11,3 km/h (2 Bft) 95,83 %
06.05.2016 23:31 12,6 C 68 % 1013,7 hPa 0,0 l/m 9,1 km/h (2 Bft) O-NO 69 0 min 0,000 mm 0,0 UV-I 0 W/m 6,9 C 10,9 C 12,9 km/h (3 Bft) 100,00 %
06.05.2016 23:32 12,6 C 68 % 1013,8 hPa 0,0 l/m 7,0 km/h (2 Bft) O-NO 65 0 min 0,000 mm 0,0 UV-I 0 W/m 6,9 C 12,2 C 8,0 km/h (2 Bft) 100,00 %
06.05.2016 23:33 12,5 C 68 % 1013,8 hPa 0,0 l/m 7,0 km/h (2 Bft) NO 50 0 min 0,000 mm 0,0 UV-I 0 W/m 6,8 C 12,1 C 9,7 km/h (2 Bft) 91,30 %
06.05.2016 23:34 12,6 C 68 % 1013,8 hPa 0,0 l/m 7,8 km/h (2 Bft) NO 49 0 min 0,000 mm 0,0 UV-I 0 W/m 6,9 C 11,7 C 12,9 km/h (3 Bft) 100,00 %
06.05.2016 23:35 12,6 C 68 % 1013,8 hPa 0,0 l/m 7,6 km/h (2 Bft) O-NO 58 0 min 0,000 mm 0,0 UV-I 0 W/m 6,9 C 11,8 C 9,7 km/h (2 Bft) 100,00 %
06.05.2016 23:36 12,6 C 67 % 1013,7 hPa 0,0 l/m 5,6 km/h (1 Bft) NO 39 0 min 0,000 mm 0,0 UV-I 0 W/m 6,6 C 12,6 C 8,0 km/h (2 Bft) 100,00 %
06.05.2016 23:37 12,6 C 68 % 1013,7 hPa 0,0 l/m 7,1 km/h (2 Bft) NO 55 0 min 0,000 mm 0,0 UV-I 0 W/m 6,9 C 12,2 C 9,7 km/h (2 Bft) 95,83 %
06.05.2016 23:38 12,6 C 68 % 1013,8 hPa 0,0 l/m 6,7 km/h (2 Bft) O-NO 71 0 min 0,000 mm 0,0 UV-I 0 W/m 6,9 C 12,4 C 9,7 km/h (2 Bft) 100,00 %
06.05.2016 23:39 12,6 C 68 % 1013,7 hPa 0,0 l/m 6,5 km/h (2 Bft) NO 54 0 min 0,000 mm 0,0 UV-I 0 W/m 6,9 C 12,6 C 9,7 km/h (2 Bft) 92,59 %
06.05.2016 23:40 12,6 C 68 % 1013,8 hPa 0,0 l/m 6,0 km/h (2 Bft) O-NO 61 0 min 0,000 mm 0,0 UV-I 0 W/m 6,9 C 12,6 C 8,0 km/h (2 Bft) 100,00 %
06.05.2016 23:41 12,5 C 68 % 1013,7 hPa 0,0 l/m 7,5 km/h (2 Bft) O-NO 71 0 min 0,000 mm 0,0 UV-I 0 W/m 6,8 C 11,8 C 9,7 km/h (2 Bft) 100,00 %
06.05.2016 23:42 12,5 C 68 % 1013,7 hPa 0,0 l/m 8,0 km/h (2 Bft) O-NO 57 0 min 0,000 mm 0,0 UV-I 0 W/m 6,8 C 11,5 C 9,7 km/h (2 Bft) 95,65 %
06.05.2016 23:43 12,4 C 68 % 1013,7 hPa 0,0 l/m 7,0 km/h (2 Bft) NO 54 0 min 0,000 mm 0,0 UV-I 0 W/m 6,7 C 12,0 C 9,7 km/h (2 Bft) 100,00 %
06.05.2016 23:44 12,4 C 69 % 1013,7 hPa 0,0 l/m 6,6 km/h (2 Bft) O-NO 74 0 min 0,000 mm 0,0 UV-I 0 W/m 6,9 C 12,3 C 9,7 km/h (2 Bft) 95,65 %
06.05.2016 23:45 12,4 C 69 % 1013,8 hPa 0,0 l/m 7,8 km/h (2 Bft) NO 53 0 min 0,000 mm 0,0 UV-I 0 W/m 6,9 C 11,5 C 12,9 km/h (3 Bft) 95,83 %
06.05.2016 23:46 12,4 C 69 % 1013,7 hPa 0,0 l/m 7,8 km/h (2 Bft) O-NO 65 0 min 0,000 mm 0,0 UV-I 0 W/m 6,9 C 11,5 C 11,3 km/h (2 Bft) 100,00 %
06.05.2016 23:47 12,3 C 69 % 1013,8 hPa 0,0 l/m 8,8 km/h (2 Bft) NO 42 0 min 0,000 mm 0,0 UV-I 0 W/m 6,8 C 10,8 C 12,9 km/h (3 Bft) 100,00 %
06.05.2016 23:48 12,3 C 69 % 1013,7 hPa 0,0 l/m 8,4 km/h (2 Bft) NO 55 0 min 0,000 mm 0,0 UV-I 0 W/m 6,8 C 11,0 C 11,3 km/h (2 Bft) 95,65 %
06.05.2016 23:49 12,3 C 69 % 1013,7 hPa 0,0 l/m 8,6 km/h (2 Bft) O-NO 76 0 min 0,000 mm 0,0 UV-I 0 W/m 6,8 C 10,9 C 12,9 km/h (3 Bft) 100,00 %
06.05.2016 23:50 12,3 C 69 % 1013,7 hPa 0,0 l/m 6,2 km/h (2 Bft) O-NO 63 0 min 0,000 mm 0,0 UV-I 0 W/m 6,8 C 12,3 C 9,7 km/h (2 Bft) 95,65 %
06.05.2016 23:51 12,3 C 69 % 1013,7 hPa 0,0 l/m 6,8 km/h (2 Bft) NO 44 0 min 0,000 mm 0,0 UV-I 0 W/m 6,8 C 12,0 C 8,0 km/h (2 Bft) 95,83 %
06.05.2016 23:52 12,3 C 69 % 1013,8 hPa 0,0 l/m 7,0 km/h (2 Bft) O-NO 65 0 min 0,000 mm 0,0 UV-I 0 W/m 6,8 C 11,9 C 9,7 km/h (2 Bft) 95,65 %
06.05.2016 23:53 12,3 C 69 % 1013,8 hPa 0,0 l/m 9,9 km/h (2 Bft) O-NO 57 0 min 0,000 mm 0,0 UV-I 0 W/m 6,8 C 10,2 C 16,1 km/h (3 Bft) 100,00 %
06.05.2016 23:54 12,3 C 69 % 1013,7 hPa 0,0 l/m 8,4 km/h (2 Bft) O-NO 65 0 min 0,000 mm 0,0 UV-I 0 W/m 6,8 C 11,0 C 11,3 km/h (2 Bft) 95,65 %
06.05.2016 23:55 12,3 C 69 % 1013,8 hPa 0,0 l/m 7,6 km/h (2 Bft) NO 53 0 min 0,000 mm 0,0 UV-I 0 W/m 6,8 C 11,5 C 11,3 km/h (2 Bft) 100,00 %
06.05.2016 23:56 12,3 C 69 % 1013,8 hPa 0,0 l/m 9,9 km/h (2 Bft) O-NO 69 0 min 0,000 mm 0,0 UV-I 0 W/m 6,8 C 10,2 C 12,9 km/h (3 Bft) 95,65 %
06.05.2016 23:57 12,3 C 69 % 1013,8 hPa 0,0 l/m 9,9 km/h (2 Bft) O-NO 68 0 min 0,000 mm 0,0 UV-I 0 W/m 6,8 C 10,2 C 12,9 km/h (3 Bft) 100,00 %
06.05.2016 23:58 12,3 C 69 % 1013,8 hPa 0,0 l/m 9,5 km/h (2 Bft) NO 52 0 min 0,000 mm 0,0 UV-I 0 W/m 6,8 C 10,4 C 12,9 km/h (3 Bft) 95,65 %
06.05.2016 23:59 12,3 C 69 % 1013,8 hPa 0,0 l/m 9,0 km/h (2 Bft) NO 51 0 min 0,000 mm 0,0 UV-I 0 W/m 6,8 C 10,7 C 12,9 km/h (3 Bft) 100,00 %
_ Min-Zeit 06:20 18:01 19:13 - 06:17 - - - - - - 06:20 00:53 06:17 00:02
Minimum _ 6,0 C 45 % 1013,5 hPa - 0,0 km/h (0 Bft) - - - - - - 5,4 C 3,7 C 0,0 km/h (0 Bft) 16,67 %
_ Max-Zeit 15:29 06:31 00:10 00:00 18:08 - - 11:45 14:01 12:32 13:16 13:03 15:26 09:16 00:00
Maximum _ 21,2 C 97 % 1021,2 hPa 0,0 l/m 28,5 km/h
O-NO (4 Bft)
- - 4 min 0,584 mm 4,9 UV-I 858 W/m 12,0 C 19,1 C 37,0 km/h
O-NO (5 Bft)
100,00 %
Durchschnitt _ 14,0 C 71 % 1016,9 hPa #0,0 l/m 12,6 km/h (3 Bft) O-NO - #12:19 h #5,283 mm 2,8 UV-I 471 W/m 8,3 C 11,6 C 17,3 km/h (3 Bft) 97,69 %